<?xml version="1.0" encoding="UTF-8" standalone="no" ?>
<gpx xmlns="http://www.topografix.com/GPX/1/1" xmlns:xsi="http://www.w3.org/2001/XMLSchema-instance" xsi:schemaLocation="http://www.topografix.com/GPX/1/1 http://www.topografix.com/GPX/1/1/gpx.xsd" version="1.1" creator="VisuGPX - https://www.visugpx.com">
  <metadata>
    <name>vtt st astier</name>
  </metadata>
  <trk>
    <name><![CDATA[AST 28 BLEUE]]></name>
    <extensions>
      <line xmlns="http://www.topografix.com/GPX/gpx_style/0/2">
        <color>0000FF</color>
        <width>4</width>
      </line>
    </extensions>
    <trkseg>
      <trkpt lat="45.14451" lon="0.51935">
        <ele>96.799987792969</ele>
        <time>2017-02-13T11:09:19Z</time>
      </trkpt>
      <trkpt lat="45.14451" lon="0.51931">
        <ele>96.799987792969</ele>
        <time>2017-02-13T11:09:23Z</time>
      </trkpt>
      <trkpt lat="45.14449" lon="0.51933">
        <ele>96.799987792969</ele>
        <time>2017-02-13T11:09:25Z</time>
      </trkpt>
      <trkpt lat="45.14447" lon="0.51937">
        <ele>96</ele>
        <time>2017-02-13T11:09:27Z</time>
      </trkpt>
      <trkpt lat="45.14445" lon="0.51939">
        <ele>95.799987792969</ele>
        <time>2017-02-13T11:09:28Z</time>
      </trkpt>
      <trkpt lat="45.14439" lon="0.51944">
        <ele>95.400024414062</ele>
        <time>2017-02-13T11:09:30Z</time>
      </trkpt>
      <trkpt lat="45.14429" lon="0.51954">
        <ele>94.799987792969</ele>
        <time>2017-02-13T11:09:33Z</time>
      </trkpt>
      <trkpt lat="45.14424" lon="0.51956">
        <ele>94.599975585938</ele>
        <time>2017-02-13T11:09:34Z</time>
      </trkpt>
      <trkpt lat="45.14411" lon="0.51955">
        <ele>94.400024414062</ele>
        <time>2017-02-13T11:09:37Z</time>
      </trkpt>
      <trkpt lat="45.14395" lon="0.5195">
        <ele>94.799987792969</ele>
        <time>2017-02-13T11:09:41Z</time>
      </trkpt>
      <trkpt lat="45.14382" lon="0.51948">
        <ele>95.200012207031</ele>
        <time>2017-02-13T11:09:44Z</time>
      </trkpt>
      <trkpt lat="45.14373" lon="0.51949">
        <ele>95</ele>
        <time>2017-02-13T11:09:46Z</time>
      </trkpt>
      <trkpt lat="45.14364" lon="0.51947">
        <ele>94.200012207031</ele>
        <time>2017-02-13T11:09:48Z</time>
      </trkpt>
      <trkpt lat="45.14355" lon="0.51941">
        <ele>93.799987792969</ele>
        <time>2017-02-13T11:09:50Z</time>
      </trkpt>
      <trkpt lat="45.14351" lon="0.51938">
        <ele>93.599975585938</ele>
        <time>2017-02-13T11:09:51Z</time>
      </trkpt>
      <trkpt lat="45.14344" lon="0.5193">
        <ele>93.599975585938</ele>
        <time>2017-02-13T11:09:53Z</time>
      </trkpt>
      <trkpt lat="45.1434" lon="0.51925">
        <ele>93.599975585938</ele>
        <time>2017-02-13T11:09:54Z</time>
      </trkpt>
      <trkpt lat="45.14335" lon="0.51903">
        <ele>93.799987792969</ele>
        <time>2017-02-13T11:09:57Z</time>
      </trkpt>
      <trkpt lat="45.14325" lon="0.51836">
        <ele>94</ele>
        <time>2017-02-13T11:10:06Z</time>
      </trkpt>
      <trkpt lat="45.14318" lon="0.51815">
        <ele>93.599975585938</ele>
        <time>2017-02-13T11:10:09Z</time>
      </trkpt>
      <trkpt lat="45.14313" lon="0.51801">
        <ele>93.599975585938</ele>
        <time>2017-02-13T11:10:11Z</time>
      </trkpt>
      <trkpt lat="45.14296" lon="0.51744">
        <ele>92.599975585938</ele>
        <time>2017-02-13T11:10:18Z</time>
      </trkpt>
      <trkpt lat="45.14291" lon="0.5171">
        <ele>92.200012207031</ele>
        <time>2017-02-13T11:10:22Z</time>
      </trkpt>
      <trkpt lat="45.14288" lon="0.51695">
        <ele>92.400024414062</ele>
        <time>2017-02-13T11:10:24Z</time>
      </trkpt>
      <trkpt lat="45.14278" lon="0.5165">
        <ele>92.599975585938</ele>
        <time>2017-02-13T11:10:30Z</time>
      </trkpt>
      <trkpt lat="45.14266" lon="0.51598">
        <ele>92.799987792969</ele>
        <time>2017-02-13T11:10:37Z</time>
      </trkpt>
      <trkpt lat="45.14263" lon="0.51592">
        <ele>92.799987792969</ele>
        <time>2017-02-13T11:10:38Z</time>
      </trkpt>
      <trkpt lat="45.14253" lon="0.51581">
        <ele>93.200012207031</ele>
        <time>2017-02-13T11:10:40Z</time>
      </trkpt>
      <trkpt lat="45.14242" lon="0.51569">
        <ele>93.200012207031</ele>
        <time>2017-02-13T11:10:42Z</time>
      </trkpt>
      <trkpt lat="45.1422" lon="0.51552">
        <ele>93</ele>
        <time>2017-02-13T11:10:46Z</time>
      </trkpt>
      <trkpt lat="45.14213" lon="0.51549">
        <ele>93</ele>
        <time>2017-02-13T11:10:47Z</time>
      </trkpt>
      <trkpt lat="45.14201" lon="0.5155">
        <ele>93.200012207031</ele>
        <time>2017-02-13T11:10:49Z</time>
      </trkpt>
      <trkpt lat="45.14186" lon="0.51541">
        <ele>93.200012207031</ele>
        <time>2017-02-13T11:10:52Z</time>
      </trkpt>
      <trkpt lat="45.14179" lon="0.5153">
        <ele>93.200012207031</ele>
        <time>2017-02-13T11:10:54Z</time>
      </trkpt>
      <trkpt lat="45.14175" lon="0.51525">
        <ele>93</ele>
        <time>2017-02-13T11:10:55Z</time>
      </trkpt>
      <trkpt lat="45.14171" lon="0.51517">
        <ele>92.599975585938</ele>
        <time>2017-02-13T11:10:57Z</time>
      </trkpt>
      <trkpt lat="45.14158" lon="0.51491">
        <ele>93.200012207031</ele>
        <time>2017-02-13T11:11:02Z</time>
      </trkpt>
      <trkpt lat="45.14155" lon="0.51485">
        <ele>93.599975585938</ele>
        <time>2017-02-13T11:11:03Z</time>
      </trkpt>
      <trkpt lat="45.1414" lon="0.51446">
        <ele>94.200012207031</ele>
        <time>2017-02-13T11:11:09Z</time>
      </trkpt>
      <trkpt lat="45.14146" lon="0.51426">
        <ele>94.599975585938</ele>
        <time>2017-02-13T11:11:12Z</time>
      </trkpt>
      <trkpt lat="45.14149" lon="0.5142">
        <ele>94.799987792969</ele>
        <time>2017-02-13T11:11:13Z</time>
      </trkpt>
      <trkpt lat="45.14152" lon="0.51414">
        <ele>95</ele>
        <time>2017-02-13T11:11:14Z</time>
      </trkpt>
      <trkpt lat="45.14158" lon="0.51404">
        <ele>95</ele>
        <time>2017-02-13T11:11:16Z</time>
      </trkpt>
      <trkpt lat="45.14161" lon="0.514">
        <ele>95</ele>
        <time>2017-02-13T11:11:17Z</time>
      </trkpt>
      <trkpt lat="45.14162" lon="0.51379">
        <ele>94.200012207031</ele>
        <time>2017-02-13T11:11:21Z</time>
      </trkpt>
      <trkpt lat="45.14156" lon="0.51371">
        <ele>94.200012207031</ele>
        <time>2017-02-13T11:11:23Z</time>
      </trkpt>
      <trkpt lat="45.14145" lon="0.5136">
        <ele>94</ele>
        <time>2017-02-13T11:11:26Z</time>
      </trkpt>
      <trkpt lat="45.14138" lon="0.51354">
        <ele>93.799987792969</ele>
        <time>2017-02-13T11:11:28Z</time>
      </trkpt>
      <trkpt lat="45.14134" lon="0.51353">
        <ele>93.799987792969</ele>
        <time>2017-02-13T11:11:29Z</time>
      </trkpt>
      <trkpt lat="45.1413" lon="0.51356">
        <ele>93.599975585938</ele>
        <time>2017-02-13T11:11:30Z</time>
      </trkpt>
      <trkpt lat="45.14123" lon="0.51365">
        <ele>93.200012207031</ele>
        <time>2017-02-13T11:11:32Z</time>
      </trkpt>
      <trkpt lat="45.14116" lon="0.5137">
        <ele>93</ele>
        <time>2017-02-13T11:11:34Z</time>
      </trkpt>
      <trkpt lat="45.14108" lon="0.51362">
        <ele>92.799987792969</ele>
        <time>2017-02-13T11:11:36Z</time>
      </trkpt>
      <trkpt lat="45.14101" lon="0.51346">
        <ele>92.799987792969</ele>
        <time>2017-02-13T11:11:39Z</time>
      </trkpt>
      <trkpt lat="45.14094" lon="0.51328">
        <ele>92.799987792969</ele>
        <time>2017-02-13T11:11:42Z</time>
      </trkpt>
      <trkpt lat="45.14091" lon="0.51322">
        <ele>92.799987792969</ele>
        <time>2017-02-13T11:11:43Z</time>
      </trkpt>
      <trkpt lat="45.14071" lon="0.5128">
        <ele>93.599975585938</ele>
        <time>2017-02-13T11:11:50Z</time>
      </trkpt>
      <trkpt lat="45.14068" lon="0.51274">
        <ele>94</ele>
        <time>2017-02-13T11:11:51Z</time>
      </trkpt>
      <trkpt lat="45.14044" lon="0.51219">
        <ele>94.599975585938</ele>
        <time>2017-02-13T11:12:00Z</time>
      </trkpt>
      <trkpt lat="45.14034" lon="0.51187">
        <ele>94.400024414062</ele>
        <time>2017-02-13T11:12:06Z</time>
      </trkpt>
      <trkpt lat="45.14039" lon="0.51173">
        <ele>94.599975585938</ele>
        <time>2017-02-13T11:12:09Z</time>
      </trkpt>
      <trkpt lat="45.14048" lon="0.51159">
        <ele>95.200012207031</ele>
        <time>2017-02-13T11:12:13Z</time>
      </trkpt>
      <trkpt lat="45.14051" lon="0.51151">
        <ele>96.400024414062</ele>
        <time>2017-02-13T11:12:15Z</time>
      </trkpt>
      <trkpt lat="45.14053" lon="0.51142">
        <ele>96.599975585938</ele>
        <time>2017-02-13T11:12:18Z</time>
      </trkpt>
      <trkpt lat="45.14053" lon="0.51124">
        <ele>96.799987792969</ele>
        <time>2017-02-13T11:12:23Z</time>
      </trkpt>
      <trkpt lat="45.14054" lon="0.51116">
        <ele>98</ele>
        <time>2017-02-13T11:12:25Z</time>
      </trkpt>
      <trkpt lat="45.14057" lon="0.5109">
        <ele>97.400024414062</ele>
        <time>2017-02-13T11:12:30Z</time>
      </trkpt>
      <trkpt lat="45.14058" lon="0.51084">
        <ele>96.599975585938</ele>
        <time>2017-02-13T11:12:31Z</time>
      </trkpt>
      <trkpt lat="45.14061" lon="0.51071">
        <ele>95.200012207031</ele>
        <time>2017-02-13T11:12:33Z</time>
      </trkpt>
      <trkpt lat="45.14065" lon="0.51058">
        <ele>94.799987792969</ele>
        <time>2017-02-13T11:12:35Z</time>
      </trkpt>
      <trkpt lat="45.14067" lon="0.51051">
        <ele>94.799987792969</ele>
        <time>2017-02-13T11:12:36Z</time>
      </trkpt>
      <trkpt lat="45.14075" lon="0.51033">
        <ele>96.400024414062</ele>
        <time>2017-02-13T11:12:39Z</time>
      </trkpt>
      <trkpt lat="45.14078" lon="0.51026">
        <ele>97</ele>
        <time>2017-02-13T11:12:40Z</time>
      </trkpt>
      <trkpt lat="45.14083" lon="0.51014">
        <ele>97.400024414062</ele>
        <time>2017-02-13T11:12:42Z</time>
      </trkpt>
      <trkpt lat="45.14107" lon="0.50964">
        <ele>98</ele>
        <time>2017-02-13T11:12:50Z</time>
      </trkpt>
      <trkpt lat="45.14129" lon="0.50928">
        <ele>96.599975585938</ele>
        <time>2017-02-13T11:12:56Z</time>
      </trkpt>
      <trkpt lat="45.14132" lon="0.50922">
        <ele>96.400024414062</ele>
        <time>2017-02-13T11:12:57Z</time>
      </trkpt>
      <trkpt lat="45.14143" lon="0.50895">
        <ele>96.599975585938</ele>
        <time>2017-02-13T11:13:02Z</time>
      </trkpt>
      <trkpt lat="45.14158" lon="0.50864">
        <ele>96.400024414062</ele>
        <time>2017-02-13T11:13:08Z</time>
      </trkpt>
      <trkpt lat="45.14161" lon="0.50858">
        <ele>96.200012207031</ele>
        <time>2017-02-13T11:13:09Z</time>
      </trkpt>
      <trkpt lat="45.1417" lon="0.50835">
        <ele>96.599975585938</ele>
        <time>2017-02-13T11:13:13Z</time>
      </trkpt>
      <trkpt lat="45.14173" lon="0.50809">
        <ele>97.599975585938</ele>
        <time>2017-02-13T11:13:17Z</time>
      </trkpt>
      <trkpt lat="45.14165" lon="0.5079">
        <ele>98</ele>
        <time>2017-02-13T11:13:20Z</time>
      </trkpt>
      <trkpt lat="45.14154" lon="0.50788">
        <ele>98</ele>
        <time>2017-02-13T11:13:22Z</time>
      </trkpt>
      <trkpt lat="45.14137" lon="0.50781">
        <ele>96.799987792969</ele>
        <time>2017-02-13T11:13:25Z</time>
      </trkpt>
      <trkpt lat="45.14132" lon="0.50776">
        <ele>96.200012207031</ele>
        <time>2017-02-13T11:13:26Z</time>
      </trkpt>
      <trkpt lat="45.14127" lon="0.50771">
        <ele>95</ele>
        <time>2017-02-13T11:13:27Z</time>
      </trkpt>
      <trkpt lat="45.14109" lon="0.50753">
        <ele>94.400024414062</ele>
        <time>2017-02-13T11:13:31Z</time>
      </trkpt>
      <trkpt lat="45.14098" lon="0.5074">
        <ele>95</ele>
        <time>2017-02-13T11:13:35Z</time>
      </trkpt>
      <trkpt lat="45.14091" lon="0.50724">
        <ele>94.799987792969</ele>
        <time>2017-02-13T11:13:41Z</time>
      </trkpt>
      <trkpt lat="45.14081" lon="0.50715">
        <ele>94.799987792969</ele>
        <time>2017-02-13T11:16:28Z</time>
      </trkpt>
      <trkpt lat="45.1407" lon="0.5072">
        <ele>94.400024414062</ele>
        <time>2017-02-13T11:16:33Z</time>
      </trkpt>
      <trkpt lat="45.14061" lon="0.50712">
        <ele>94.200012207031</ele>
        <time>2017-02-13T11:16:36Z</time>
      </trkpt>
      <trkpt lat="45.14056" lon="0.50705">
        <ele>94.599975585938</ele>
        <time>2017-02-13T11:16:38Z</time>
      </trkpt>
      <trkpt lat="45.14049" lon="0.50694">
        <ele>96.400024414062</ele>
        <time>2017-02-13T11:16:41Z</time>
      </trkpt>
      <trkpt lat="45.14034" lon="0.50672">
        <ele>96.799987792969</ele>
        <time>2017-02-13T11:16:47Z</time>
      </trkpt>
      <trkpt lat="45.1403" lon="0.50667">
        <ele>97.400024414062</ele>
        <time>2017-02-13T11:16:50Z</time>
      </trkpt>
      <trkpt lat="45.14025" lon="0.50659">
        <ele>98.200012207031</ele>
        <time>2017-02-13T11:16:53Z</time>
      </trkpt>
      <trkpt lat="45.14024" lon="0.50657">
        <ele>98.599975585938</ele>
        <time>2017-02-13T11:16:54Z</time>
      </trkpt>
      <trkpt lat="45.14019" lon="0.50651">
        <ele>99.599975585938</ele>
        <time>2017-02-13T11:16:57Z</time>
      </trkpt>
      <trkpt lat="45.14017" lon="0.50649">
        <ele>99.799987792969</ele>
        <time>2017-02-13T11:16:58Z</time>
      </trkpt>
      <trkpt lat="45.14016" lon="0.50647">
        <ele>100</ele>
        <time>2017-02-13T11:16:59Z</time>
      </trkpt>
      <trkpt lat="45.14012" lon="0.50641">
        <ele>100.79998779297</ele>
        <time>2017-02-13T11:17:02Z</time>
      </trkpt>
      <trkpt lat="45.14008" lon="0.50635">
        <ele>101.59997558594</ele>
        <time>2017-02-13T11:17:05Z</time>
      </trkpt>
      <trkpt lat="45.14006" lon="0.50633">
        <ele>102</ele>
        <time>2017-02-13T11:17:06Z</time>
      </trkpt>
      <trkpt lat="45.14003" lon="0.50626">
        <ele>103.40002441406</ele>
        <time>2017-02-13T11:17:09Z</time>
      </trkpt>
      <trkpt lat="45.13998" lon="0.50621">
        <ele>104.20001220703</ele>
        <time>2017-02-13T11:17:12Z</time>
      </trkpt>
      <trkpt lat="45.13992" lon="0.50615">
        <ele>104.59997558594</ele>
        <time>2017-02-13T11:17:15Z</time>
      </trkpt>
      <trkpt lat="45.13983" lon="0.50606">
        <ele>105.20001220703</ele>
        <time>2017-02-13T11:17:19Z</time>
      </trkpt>
      <trkpt lat="45.13978" lon="0.506">
        <ele>105.59997558594</ele>
        <time>2017-02-13T11:17:21Z</time>
      </trkpt>
      <trkpt lat="45.1397" lon="0.50588">
        <ele>106.79998779297</ele>
        <time>2017-02-13T11:17:25Z</time>
      </trkpt>
      <trkpt lat="45.13968" lon="0.50585">
        <ele>107.40002441406</ele>
        <time>2017-02-13T11:17:26Z</time>
      </trkpt>
      <trkpt lat="45.13966" lon="0.50583">
        <ele>108</ele>
        <time>2017-02-13T11:17:27Z</time>
      </trkpt>
      <trkpt lat="45.13963" lon="0.50579">
        <ele>109.79998779297</ele>
        <time>2017-02-13T11:17:29Z</time>
      </trkpt>
      <trkpt lat="45.13959" lon="0.50571">
        <ele>110.40002441406</ele>
        <time>2017-02-13T11:17:32Z</time>
      </trkpt>
      <trkpt lat="45.13958" lon="0.50565">
        <ele>111</ele>
        <time>2017-02-13T11:17:34Z</time>
      </trkpt>
      <trkpt lat="45.13959" lon="0.50554">
        <ele>111.59997558594</ele>
        <time>2017-02-13T11:17:37Z</time>
      </trkpt>
      <trkpt lat="45.13961" lon="0.50548">
        <ele>112.20001220703</ele>
        <time>2017-02-13T11:17:39Z</time>
      </trkpt>
      <trkpt lat="45.13964" lon="0.50533">
        <ele>113.20001220703</ele>
        <time>2017-02-13T11:17:44Z</time>
      </trkpt>
      <trkpt lat="45.13965" lon="0.5053">
        <ele>113.40002441406</ele>
        <time>2017-02-13T11:17:45Z</time>
      </trkpt>
      <trkpt lat="45.13966" lon="0.50516">
        <ele>114.20001220703</ele>
        <time>2017-02-13T11:17:49Z</time>
      </trkpt>
      <trkpt lat="45.13967" lon="0.50512">
        <ele>114.40002441406</ele>
        <time>2017-02-13T11:17:50Z</time>
      </trkpt>
      <trkpt lat="45.13969" lon="0.50496">
        <ele>114.79998779297</ele>
        <time>2017-02-13T11:17:54Z</time>
      </trkpt>
      <trkpt lat="45.13966" lon="0.50466">
        <ele>115.20001220703</ele>
        <time>2017-02-13T11:18:00Z</time>
      </trkpt>
      <trkpt lat="45.13965" lon="0.50457">
        <ele>115.59997558594</ele>
        <time>2017-02-13T11:18:02Z</time>
      </trkpt>
      <trkpt lat="45.13965" lon="0.50445">
        <ele>116.59997558594</ele>
        <time>2017-02-13T11:18:05Z</time>
      </trkpt>
      <trkpt lat="45.13965" lon="0.50427">
        <ele>117.79998779297</ele>
        <time>2017-02-13T11:18:09Z</time>
      </trkpt>
      <trkpt lat="45.13966" lon="0.50413">
        <ele>118.40002441406</ele>
        <time>2017-02-13T11:18:12Z</time>
      </trkpt>
      <trkpt lat="45.13967" lon="0.50393">
        <ele>119.20001220703</ele>
        <time>2017-02-13T11:18:17Z</time>
      </trkpt>
      <trkpt lat="45.13967" lon="0.50379">
        <ele>119.20001220703</ele>
        <time>2017-02-13T11:18:20Z</time>
      </trkpt>
      <trkpt lat="45.13966" lon="0.50348">
        <ele>120</ele>
        <time>2017-02-13T11:18:27Z</time>
      </trkpt>
      <trkpt lat="45.13966" lon="0.50345">
        <ele>120.20001220703</ele>
        <time>2017-02-13T11:18:28Z</time>
      </trkpt>
      <trkpt lat="45.13966" lon="0.50332">
        <ele>121.40002441406</ele>
        <time>2017-02-13T11:18:32Z</time>
      </trkpt>
      <trkpt lat="45.13967" lon="0.50322">
        <ele>121.79998779297</ele>
        <time>2017-02-13T11:18:35Z</time>
      </trkpt>
      <trkpt lat="45.1397" lon="0.50315">
        <ele>122.79998779297</ele>
        <time>2017-02-13T11:18:37Z</time>
      </trkpt>
      <trkpt lat="45.13973" lon="0.50308">
        <ele>123.79998779297</ele>
        <time>2017-02-13T11:18:39Z</time>
      </trkpt>
      <trkpt lat="45.13979" lon="0.50297">
        <ele>124.79998779297</ele>
        <time>2017-02-13T11:18:42Z</time>
      </trkpt>
      <trkpt lat="45.13981" lon="0.50294">
        <ele>125</ele>
        <time>2017-02-13T11:18:43Z</time>
      </trkpt>
      <trkpt lat="45.13987" lon="0.50283">
        <ele>126.40002441406</ele>
        <time>2017-02-13T11:18:46Z</time>
      </trkpt>
      <trkpt lat="45.13997" lon="0.50265">
        <ele>127.40002441406</ele>
        <time>2017-02-13T11:18:51Z</time>
      </trkpt>
      <trkpt lat="45.13999" lon="0.50261">
        <ele>127.59997558594</ele>
        <time>2017-02-13T11:18:52Z</time>
      </trkpt>
      <trkpt lat="45.14015" lon="0.50237">
        <ele>128.20001220703</ele>
        <time>2017-02-13T11:18:59Z</time>
      </trkpt>
      <trkpt lat="45.1402" lon="0.50226">
        <ele>128.59997558594</ele>
        <time>2017-02-13T11:19:02Z</time>
      </trkpt>
      <trkpt lat="45.14028" lon="0.50211">
        <ele>129.40002441406</ele>
        <time>2017-02-13T11:19:06Z</time>
      </trkpt>
      <trkpt lat="45.14035" lon="0.50201">
        <ele>129.79998779297</ele>
        <time>2017-02-13T11:19:09Z</time>
      </trkpt>
      <trkpt lat="45.14045" lon="0.50183">
        <ele>131</ele>
        <time>2017-02-13T11:19:14Z</time>
      </trkpt>
      <trkpt lat="45.14049" lon="0.50176">
        <ele>131.79998779297</ele>
        <time>2017-02-13T11:19:16Z</time>
      </trkpt>
      <trkpt lat="45.14051" lon="0.50174">
        <ele>132.20001220703</ele>
        <time>2017-02-13T11:19:17Z</time>
      </trkpt>
      <trkpt lat="45.14048" lon="0.50174">
        <ele>133.20001220703</ele>
        <time>2017-02-13T11:19:21Z</time>
      </trkpt>
      <trkpt lat="45.14044" lon="0.5017">
        <ele>133.59997558594</ele>
        <time>2017-02-13T11:19:23Z</time>
      </trkpt>
      <trkpt lat="45.14038" lon="0.50157">
        <ele>133.79998779297</ele>
        <time>2017-02-13T11:19:27Z</time>
      </trkpt>
      <trkpt lat="45.14036" lon="0.50151">
        <ele>133.79998779297</ele>
        <time>2017-02-13T11:19:28Z</time>
      </trkpt>
      <trkpt lat="45.14019" lon="0.50104">
        <ele>132.40002441406</ele>
        <time>2017-02-13T11:19:36Z</time>
      </trkpt>
      <trkpt lat="45.14018" lon="0.50099">
        <ele>132.20001220703</ele>
        <time>2017-02-13T11:19:37Z</time>
      </trkpt>
      <trkpt lat="45.14012" lon="0.50089">
        <ele>131.79998779297</ele>
        <time>2017-02-13T11:19:40Z</time>
      </trkpt>
      <trkpt lat="45.14003" lon="0.50089">
        <ele>131.40002441406</ele>
        <time>2017-02-13T11:19:43Z</time>
      </trkpt>
      <trkpt lat="45.14002" lon="0.5009">
        <ele>131</ele>
        <time>2017-02-13T11:19:44Z</time>
      </trkpt>
      <trkpt lat="45.14" lon="0.5009">
        <ele>128.20001220703</ele>
        <time>2017-02-13T11:20:08Z</time>
      </trkpt>
      <trkpt lat="45.13986" lon="0.50091">
        <ele>128.40002441406</ele>
        <time>2017-02-13T11:20:12Z</time>
      </trkpt>
      <trkpt lat="45.13958" lon="0.50096">
        <ele>126.79998779297</ele>
        <time>2017-02-13T11:20:17Z</time>
      </trkpt>
      <trkpt lat="45.1394" lon="0.50098">
        <ele>125.59997558594</ele>
        <time>2017-02-13T11:20:20Z</time>
      </trkpt>
      <trkpt lat="45.13921" lon="0.50097">
        <ele>124.20001220703</ele>
        <time>2017-02-13T11:20:23Z</time>
      </trkpt>
      <trkpt lat="45.13909" lon="0.50096">
        <ele>123.40002441406</ele>
        <time>2017-02-13T11:20:25Z</time>
      </trkpt>
      <trkpt lat="45.13904" lon="0.50096">
        <ele>123</ele>
        <time>2017-02-13T11:20:26Z</time>
      </trkpt>
      <trkpt lat="45.139" lon="0.50095">
        <ele>122.59997558594</ele>
        <time>2017-02-13T11:20:27Z</time>
      </trkpt>
      <trkpt lat="45.13888" lon="0.5009">
        <ele>121.79998779297</ele>
        <time>2017-02-13T11:20:30Z</time>
      </trkpt>
      <trkpt lat="45.13881" lon="0.50083">
        <ele>121.59997558594</ele>
        <time>2017-02-13T11:20:32Z</time>
      </trkpt>
      <trkpt lat="45.13855" lon="0.50058">
        <ele>121.40002441406</ele>
        <time>2017-02-13T11:20:39Z</time>
      </trkpt>
      <trkpt lat="45.13844" lon="0.50045">
        <ele>121.40002441406</ele>
        <time>2017-02-13T11:20:42Z</time>
      </trkpt>
      <trkpt lat="45.13836" lon="0.50029">
        <ele>121.20001220703</ele>
        <time>2017-02-13T11:20:45Z</time>
      </trkpt>
      <trkpt lat="45.13827" lon="0.50002">
        <ele>121.79998779297</ele>
        <time>2017-02-13T11:20:50Z</time>
      </trkpt>
      <trkpt lat="45.1382" lon="0.49983">
        <ele>122.79998779297</ele>
        <time>2017-02-13T11:20:54Z</time>
      </trkpt>
      <trkpt lat="45.13815" lon="0.49974">
        <ele>123.20001220703</ele>
        <time>2017-02-13T11:20:56Z</time>
      </trkpt>
      <trkpt lat="45.1381" lon="0.49957">
        <ele>123.59997558594</ele>
        <time>2017-02-13T11:21:00Z</time>
      </trkpt>
      <trkpt lat="45.13811" lon="0.49955">
        <ele>123.79998779297</ele>
        <time>2017-02-13T11:21:01Z</time>
      </trkpt>
      <trkpt lat="45.13815" lon="0.49951">
        <ele>123.79998779297</ele>
        <time>2017-02-13T11:21:04Z</time>
      </trkpt>
      <trkpt lat="45.13818" lon="0.49948">
        <ele>124.79998779297</ele>
        <time>2017-02-13T11:21:06Z</time>
      </trkpt>
      <trkpt lat="45.13819" lon="0.49946">
        <ele>125.20001220703</ele>
        <time>2017-02-13T11:21:07Z</time>
      </trkpt>
      <trkpt lat="45.13821" lon="0.49944">
        <ele>125.40002441406</ele>
        <time>2017-02-13T11:21:08Z</time>
      </trkpt>
      <trkpt lat="45.13824" lon="0.4994">
        <ele>126.40002441406</ele>
        <time>2017-02-13T11:21:10Z</time>
      </trkpt>
      <trkpt lat="45.1383" lon="0.49934">
        <ele>127.40002441406</ele>
        <time>2017-02-13T11:21:13Z</time>
      </trkpt>
      <trkpt lat="45.13835" lon="0.49928">
        <ele>127.59997558594</ele>
        <time>2017-02-13T11:21:16Z</time>
      </trkpt>
      <trkpt lat="45.13843" lon="0.49915">
        <ele>128.59997558594</ele>
        <time>2017-02-13T11:21:21Z</time>
      </trkpt>
      <trkpt lat="45.13845" lon="0.49913">
        <ele>129</ele>
        <time>2017-02-13T11:21:22Z</time>
      </trkpt>
      <trkpt lat="45.13849" lon="0.49909">
        <ele>129.59997558594</ele>
        <time>2017-02-13T11:21:24Z</time>
      </trkpt>
      <trkpt lat="45.13861" lon="0.499">
        <ele>130.79998779297</ele>
        <time>2017-02-13T11:21:30Z</time>
      </trkpt>
      <trkpt lat="45.13867" lon="0.49895">
        <ele>131.79998779297</ele>
        <time>2017-02-13T11:21:33Z</time>
      </trkpt>
      <trkpt lat="45.13875" lon="0.49891">
        <ele>132.79998779297</ele>
        <time>2017-02-13T11:21:37Z</time>
      </trkpt>
      <trkpt lat="45.13878" lon="0.49889">
        <ele>133</ele>
        <time>2017-02-13T11:21:39Z</time>
      </trkpt>
      <trkpt lat="45.13884" lon="0.49885">
        <ele>134.20001220703</ele>
        <time>2017-02-13T11:21:43Z</time>
      </trkpt>
      <trkpt lat="45.13888" lon="0.49884">
        <ele>134.59997558594</ele>
        <time>2017-02-13T11:21:45Z</time>
      </trkpt>
      <trkpt lat="45.13892" lon="0.49881">
        <ele>135.20001220703</ele>
        <time>2017-02-13T11:21:48Z</time>
      </trkpt>
      <trkpt lat="45.13897" lon="0.49877">
        <ele>135.40002441406</ele>
        <time>2017-02-13T11:21:51Z</time>
      </trkpt>
      <trkpt lat="45.13901" lon="0.49874">
        <ele>136.40002441406</ele>
        <time>2017-02-13T11:21:53Z</time>
      </trkpt>
      <trkpt lat="45.13908" lon="0.49865">
        <ele>137.59997558594</ele>
        <time>2017-02-13T11:21:57Z</time>
      </trkpt>
      <trkpt lat="45.13915" lon="0.49857">
        <ele>138.79998779297</ele>
        <time>2017-02-13T11:22:01Z</time>
      </trkpt>
      <trkpt lat="45.13918" lon="0.49853">
        <ele>139</ele>
        <time>2017-02-13T11:22:03Z</time>
      </trkpt>
      <trkpt lat="45.13928" lon="0.49842">
        <ele>139.20001220703</ele>
        <time>2017-02-13T11:22:09Z</time>
      </trkpt>
      <trkpt lat="45.13944" lon="0.49833">
        <ele>140</ele>
        <time>2017-02-13T11:22:16Z</time>
      </trkpt>
      <trkpt lat="45.13948" lon="0.49833">
        <ele>141</ele>
        <time>2017-02-13T11:22:18Z</time>
      </trkpt>
      <trkpt lat="45.13954" lon="0.49834">
        <ele>142.20001220703</ele>
        <time>2017-02-13T11:22:21Z</time>
      </trkpt>
      <trkpt lat="45.13958" lon="0.49835">
        <ele>142.59997558594</ele>
        <time>2017-02-13T11:22:23Z</time>
      </trkpt>
      <trkpt lat="45.13971" lon="0.49839">
        <ele>143</ele>
        <time>2017-02-13T11:22:30Z</time>
      </trkpt>
      <trkpt lat="45.13974" lon="0.4984">
        <ele>143.40002441406</ele>
        <time>2017-02-13T11:22:32Z</time>
      </trkpt>
      <trkpt lat="45.13977" lon="0.49841">
        <ele>143.79998779297</ele>
        <time>2017-02-13T11:22:34Z</time>
      </trkpt>
      <trkpt lat="45.13977" lon="0.49844">
        <ele>144</ele>
        <time>2017-02-13T11:22:35Z</time>
      </trkpt>
      <trkpt lat="45.13979" lon="0.49854">
        <ele>144.20001220703</ele>
        <time>2017-02-13T11:22:38Z</time>
      </trkpt>
      <trkpt lat="45.13981" lon="0.49866">
        <ele>144</ele>
        <time>2017-02-13T11:22:41Z</time>
      </trkpt>
      <trkpt lat="45.13989" lon="0.49885">
        <ele>143.59997558594</ele>
        <time>2017-02-13T11:22:46Z</time>
      </trkpt>
      <trkpt lat="45.14009" lon="0.49905">
        <ele>143.40002441406</ele>
        <time>2017-02-13T11:22:53Z</time>
      </trkpt>
      <trkpt lat="45.14026" lon="0.49907">
        <ele>142.40002441406</ele>
        <time>2017-02-13T11:22:58Z</time>
      </trkpt>
      <trkpt lat="45.14044" lon="0.49902">
        <ele>144.79998779297</ele>
        <time>2017-02-13T11:23:04Z</time>
      </trkpt>
      <trkpt lat="45.14049" lon="0.49899">
        <ele>146</ele>
        <time>2017-02-13T11:23:06Z</time>
      </trkpt>
      <trkpt lat="45.14055" lon="0.49901">
        <ele>146.20001220703</ele>
        <time>2017-02-13T11:23:08Z</time>
      </trkpt>
      <trkpt lat="45.14061" lon="0.49905">
        <ele>146.40002441406</ele>
        <time>2017-02-13T11:23:10Z</time>
      </trkpt>
      <trkpt lat="45.14068" lon="0.49915">
        <ele>146.40002441406</ele>
        <time>2017-02-13T11:23:13Z</time>
      </trkpt>
      <trkpt lat="45.14074" lon="0.49923">
        <ele>146.79998779297</ele>
        <time>2017-02-13T11:23:15Z</time>
      </trkpt>
      <trkpt lat="45.14077" lon="0.49926">
        <ele>147</ele>
        <time>2017-02-13T11:23:16Z</time>
      </trkpt>
      <trkpt lat="45.14096" lon="0.49951">
        <ele>148</ele>
        <time>2017-02-13T11:23:23Z</time>
      </trkpt>
      <trkpt lat="45.14099" lon="0.49955">
        <ele>148</ele>
        <time>2017-02-13T11:23:24Z</time>
      </trkpt>
      <trkpt lat="45.14117" lon="0.49978">
        <ele>147.79998779297</ele>
        <time>2017-02-13T11:23:31Z</time>
      </trkpt>
      <trkpt lat="45.14123" lon="0.49986">
        <ele>147.40002441406</ele>
        <time>2017-02-13T11:23:49Z</time>
      </trkpt>
      <trkpt lat="45.14121" lon="0.4999">
        <ele>147.40002441406</ele>
        <time>2017-02-13T11:23:51Z</time>
      </trkpt>
      <trkpt lat="45.14123" lon="0.49987">
        <ele>146.79998779297</ele>
        <time>2017-02-13T11:23:58Z</time>
      </trkpt>
      <trkpt lat="45.14124" lon="0.49984">
        <ele>146.79998779297</ele>
        <time>2017-02-13T11:23:59Z</time>
      </trkpt>
      <trkpt lat="45.1413" lon="0.49968">
        <ele>147.40002441406</ele>
        <time>2017-02-13T11:24:03Z</time>
      </trkpt>
      <trkpt lat="45.14135" lon="0.4996">
        <ele>147.79998779297</ele>
        <time>2017-02-13T11:24:05Z</time>
      </trkpt>
      <trkpt lat="45.1414" lon="0.49948">
        <ele>148.79998779297</ele>
        <time>2017-02-13T11:24:08Z</time>
      </trkpt>
      <trkpt lat="45.14144" lon="0.4994">
        <ele>149.20001220703</ele>
        <time>2017-02-13T11:24:10Z</time>
      </trkpt>
      <trkpt lat="45.1415" lon="0.49926">
        <ele>150</ele>
        <time>2017-02-13T11:24:14Z</time>
      </trkpt>
      <trkpt lat="45.14152" lon="0.49922">
        <ele>150.40002441406</ele>
        <time>2017-02-13T11:24:15Z</time>
      </trkpt>
      <trkpt lat="45.14155" lon="0.49913">
        <ele>151</ele>
        <time>2017-02-13T11:24:17Z</time>
      </trkpt>
      <trkpt lat="45.14166" lon="0.49892">
        <ele>151.59997558594</ele>
        <time>2017-02-13T11:24:23Z</time>
      </trkpt>
      <trkpt lat="45.14173" lon="0.4988">
        <ele>152</ele>
        <time>2017-02-13T11:24:27Z</time>
      </trkpt>
      <trkpt lat="45.14175" lon="0.49876">
        <ele>152.20001220703</ele>
        <time>2017-02-13T11:24:29Z</time>
      </trkpt>
      <trkpt lat="45.14178" lon="0.49869">
        <ele>152.20001220703</ele>
        <time>2017-02-13T11:24:38Z</time>
      </trkpt>
      <trkpt lat="45.14179" lon="0.49866">
        <ele>152.20001220703</ele>
        <time>2017-02-13T11:24:39Z</time>
      </trkpt>
      <trkpt lat="45.1419" lon="0.49844">
        <ele>151.79998779297</ele>
        <time>2017-02-13T11:24:46Z</time>
      </trkpt>
      <trkpt lat="45.14201" lon="0.49824">
        <ele>151.59997558594</ele>
        <time>2017-02-13T11:24:51Z</time>
      </trkpt>
      <trkpt lat="45.14213" lon="0.49801">
        <ele>150.79998779297</ele>
        <time>2017-02-13T11:24:55Z</time>
      </trkpt>
      <trkpt lat="45.14215" lon="0.49795">
        <ele>150.59997558594</ele>
        <time>2017-02-13T11:24:56Z</time>
      </trkpt>
      <trkpt lat="45.1422" lon="0.49783">
        <ele>150.40002441406</ele>
        <time>2017-02-13T11:24:58Z</time>
      </trkpt>
      <trkpt lat="45.14223" lon="0.49772">
        <ele>150.20001220703</ele>
        <time>2017-02-13T11:25:00Z</time>
      </trkpt>
      <trkpt lat="45.14226" lon="0.49767">
        <ele>150.40002441406</ele>
        <time>2017-02-13T11:25:01Z</time>
      </trkpt>
      <trkpt lat="45.1423" lon="0.49747">
        <ele>152.40002441406</ele>
        <time>2017-02-13T11:25:05Z</time>
      </trkpt>
      <trkpt lat="45.14233" lon="0.49737">
        <ele>153.79998779297</ele>
        <time>2017-02-13T11:25:07Z</time>
      </trkpt>
      <trkpt lat="45.14237" lon="0.49728">
        <ele>154.79998779297</ele>
        <time>2017-02-13T11:25:09Z</time>
      </trkpt>
      <trkpt lat="45.14247" lon="0.49706">
        <ele>155</ele>
        <time>2017-02-13T11:25:14Z</time>
      </trkpt>
      <trkpt lat="45.1426" lon="0.49682">
        <ele>154</ele>
        <time>2017-02-13T11:25:18Z</time>
      </trkpt>
      <trkpt lat="45.14263" lon="0.49676">
        <ele>153.79998779297</ele>
        <time>2017-02-13T11:25:19Z</time>
      </trkpt>
      <trkpt lat="45.14276" lon="0.49657">
        <ele>153.59997558594</ele>
        <time>2017-02-13T11:25:22Z</time>
      </trkpt>
      <trkpt lat="45.14288" lon="0.49638">
        <ele>152.79998779297</ele>
        <time>2017-02-13T11:25:25Z</time>
      </trkpt>
      <trkpt lat="45.14303" lon="0.49621">
        <ele>151.79998779297</ele>
        <time>2017-02-13T11:25:28Z</time>
      </trkpt>
      <trkpt lat="45.14308" lon="0.49617">
        <ele>151.59997558594</ele>
        <time>2017-02-13T11:25:29Z</time>
      </trkpt>
      <trkpt lat="45.14319" lon="0.49614">
        <ele>151.59997558594</ele>
        <time>2017-02-13T11:25:31Z</time>
      </trkpt>
      <trkpt lat="45.14328" lon="0.49609">
        <ele>151.59997558594</ele>
        <time>2017-02-13T11:25:33Z</time>
      </trkpt>
      <trkpt lat="45.14342" lon="0.49599">
        <ele>152.20001220703</ele>
        <time>2017-02-13T11:25:36Z</time>
      </trkpt>
      <trkpt lat="45.14347" lon="0.49595">
        <ele>152.59997558594</ele>
        <time>2017-02-13T11:25:37Z</time>
      </trkpt>
      <trkpt lat="45.14351" lon="0.4959">
        <ele>153</ele>
        <time>2017-02-13T11:25:38Z</time>
      </trkpt>
      <trkpt lat="45.1436" lon="0.49579">
        <ele>154.40002441406</ele>
        <time>2017-02-13T11:25:41Z</time>
      </trkpt>
      <trkpt lat="45.14366" lon="0.49568">
        <ele>156</ele>
        <time>2017-02-13T11:25:44Z</time>
      </trkpt>
      <trkpt lat="45.14368" lon="0.49564">
        <ele>156.59997558594</ele>
        <time>2017-02-13T11:25:45Z</time>
      </trkpt>
      <trkpt lat="45.14369" lon="0.49561">
        <ele>157</ele>
        <time>2017-02-13T11:25:46Z</time>
      </trkpt>
      <trkpt lat="45.14379" lon="0.49552">
        <ele>158.20001220703</ele>
        <time>2017-02-13T11:25:50Z</time>
      </trkpt>
      <trkpt lat="45.14399" lon="0.49541">
        <ele>158.79998779297</ele>
        <time>2017-02-13T11:25:56Z</time>
      </trkpt>
      <trkpt lat="45.14421" lon="0.49529">
        <ele>158.59997558594</ele>
        <time>2017-02-13T11:26:02Z</time>
      </trkpt>
      <trkpt lat="45.14424" lon="0.49531">
        <ele>158.59997558594</ele>
        <time>2017-02-13T11:26:03Z</time>
      </trkpt>
      <trkpt lat="45.14428" lon="0.4954">
        <ele>158.59997558594</ele>
        <time>2017-02-13T11:26:05Z</time>
      </trkpt>
      <trkpt lat="45.14434" lon="0.49558">
        <ele>157.79998779297</ele>
        <time>2017-02-13T11:26:08Z</time>
      </trkpt>
      <trkpt lat="45.14438" lon="0.49576">
        <ele>157</ele>
        <time>2017-02-13T11:26:10Z</time>
      </trkpt>
      <trkpt lat="45.14445" lon="0.49608">
        <ele>155.59997558594</ele>
        <time>2017-02-13T11:26:13Z</time>
      </trkpt>
      <trkpt lat="45.14452" lon="0.49631">
        <ele>154.40002441406</ele>
        <time>2017-02-13T11:26:15Z</time>
      </trkpt>
      <trkpt lat="45.14459" lon="0.49654">
        <ele>152.40002441406</ele>
        <time>2017-02-13T11:26:17Z</time>
      </trkpt>
      <trkpt lat="45.14467" lon="0.49679">
        <ele>151</ele>
        <time>2017-02-13T11:26:19Z</time>
      </trkpt>
      <trkpt lat="45.14476" lon="0.49704">
        <ele>149.59997558594</ele>
        <time>2017-02-13T11:26:21Z</time>
      </trkpt>
      <trkpt lat="45.14486" lon="0.49729">
        <ele>148.40002441406</ele>
        <time>2017-02-13T11:26:23Z</time>
      </trkpt>
      <trkpt lat="45.14499" lon="0.49752">
        <ele>147</ele>
        <time>2017-02-13T11:26:25Z</time>
      </trkpt>
      <trkpt lat="45.14506" lon="0.49763">
        <ele>145.79998779297</ele>
        <time>2017-02-13T11:26:26Z</time>
      </trkpt>
      <trkpt lat="45.14513" lon="0.49773">
        <ele>144.40002441406</ele>
        <time>2017-02-13T11:26:27Z</time>
      </trkpt>
      <trkpt lat="45.14519" lon="0.49783">
        <ele>143.20001220703</ele>
        <time>2017-02-13T11:26:28Z</time>
      </trkpt>
      <trkpt lat="45.14525" lon="0.49793">
        <ele>142</ele>
        <time>2017-02-13T11:26:29Z</time>
      </trkpt>
      <trkpt lat="45.14532" lon="0.49808">
        <ele>140.20001220703</ele>
        <time>2017-02-13T11:26:31Z</time>
      </trkpt>
      <trkpt lat="45.14538" lon="0.49819">
        <ele>139.20001220703</ele>
        <time>2017-02-13T11:26:34Z</time>
      </trkpt>
      <trkpt lat="45.14542" lon="0.49823">
        <ele>139</ele>
        <time>2017-02-13T11:26:38Z</time>
      </trkpt>
      <trkpt lat="45.14545" lon="0.49819">
        <ele>139</ele>
        <time>2017-02-13T11:26:39Z</time>
      </trkpt>
      <trkpt lat="45.14558" lon="0.49808">
        <ele>137.79998779297</ele>
        <time>2017-02-13T11:26:42Z</time>
      </trkpt>
      <trkpt lat="45.14564" lon="0.49802">
        <ele>137.40002441406</ele>
        <time>2017-02-13T11:26:43Z</time>
      </trkpt>
      <trkpt lat="45.14575" lon="0.49775">
        <ele>137</ele>
        <time>2017-02-13T11:26:46Z</time>
      </trkpt>
      <trkpt lat="45.14575" lon="0.49764">
        <ele>136.79998779297</ele>
        <time>2017-02-13T11:26:47Z</time>
      </trkpt>
      <trkpt lat="45.14576" lon="0.49739">
        <ele>136</ele>
        <time>2017-02-13T11:26:49Z</time>
      </trkpt>
      <trkpt lat="45.14577" lon="0.49725">
        <ele>135.40002441406</ele>
        <time>2017-02-13T11:26:50Z</time>
      </trkpt>
      <trkpt lat="45.14579" lon="0.49688">
        <ele>134</ele>
        <time>2017-02-13T11:26:53Z</time>
      </trkpt>
      <trkpt lat="45.1458" lon="0.49665">
        <ele>132.59997558594</ele>
        <time>2017-02-13T11:26:55Z</time>
      </trkpt>
      <trkpt lat="45.14582" lon="0.49647">
        <ele>131</ele>
        <time>2017-02-13T11:26:57Z</time>
      </trkpt>
      <trkpt lat="45.14589" lon="0.49638">
        <ele>130.40002441406</ele>
        <time>2017-02-13T11:26:59Z</time>
      </trkpt>
      <trkpt lat="45.14601" lon="0.49633">
        <ele>130.20001220703</ele>
        <time>2017-02-13T11:27:01Z</time>
      </trkpt>
      <trkpt lat="45.14606" lon="0.49631">
        <ele>130.20001220703</ele>
        <time>2017-02-13T11:27:02Z</time>
      </trkpt>
      <trkpt lat="45.14626" lon="0.4962">
        <ele>131.79998779297</ele>
        <time>2017-02-13T11:27:07Z</time>
      </trkpt>
      <trkpt lat="45.14629" lon="0.49617">
        <ele>132.20001220703</ele>
        <time>2017-02-13T11:27:08Z</time>
      </trkpt>
      <trkpt lat="45.1464" lon="0.49605">
        <ele>133.40002441406</ele>
        <time>2017-02-13T11:27:12Z</time>
      </trkpt>
      <trkpt lat="45.14645" lon="0.49599">
        <ele>133.79998779297</ele>
        <time>2017-02-13T11:27:14Z</time>
      </trkpt>
      <trkpt lat="45.14649" lon="0.49593">
        <ele>134.59997558594</ele>
        <time>2017-02-13T11:27:16Z</time>
      </trkpt>
      <trkpt lat="45.14656" lon="0.49587">
        <ele>135.79998779297</ele>
        <time>2017-02-13T11:27:19Z</time>
      </trkpt>
      <trkpt lat="45.14666" lon="0.4958">
        <ele>136.79998779297</ele>
        <time>2017-02-13T11:27:24Z</time>
      </trkpt>
      <trkpt lat="45.1467" lon="0.49581">
        <ele>137.40002441406</ele>
        <time>2017-02-13T11:27:26Z</time>
      </trkpt>
      <trkpt lat="45.14675" lon="0.49586">
        <ele>138</ele>
        <time>2017-02-13T11:27:29Z</time>
      </trkpt>
      <trkpt lat="45.14679" lon="0.49591">
        <ele>138.20001220703</ele>
        <time>2017-02-13T11:27:32Z</time>
      </trkpt>
      <trkpt lat="45.14689" lon="0.49605">
        <ele>138.40002441406</ele>
        <time>2017-02-13T11:27:37Z</time>
      </trkpt>
      <trkpt lat="45.14695" lon="0.49614">
        <ele>139.40002441406</ele>
        <time>2017-02-13T11:27:40Z</time>
      </trkpt>
      <trkpt lat="45.14704" lon="0.4963">
        <ele>140.20001220703</ele>
        <time>2017-02-13T11:27:44Z</time>
      </trkpt>
      <trkpt lat="45.14712" lon="0.4964">
        <ele>140.59997558594</ele>
        <time>2017-02-13T11:27:47Z</time>
      </trkpt>
      <trkpt lat="45.14721" lon="0.49655">
        <ele>141</ele>
        <time>2017-02-13T11:27:50Z</time>
      </trkpt>
      <trkpt lat="45.14726" lon="0.49665">
        <ele>141.20001220703</ele>
        <time>2017-02-13T11:27:52Z</time>
      </trkpt>
      <trkpt lat="45.1473" lon="0.49681">
        <ele>141</ele>
        <time>2017-02-13T11:27:54Z</time>
      </trkpt>
      <trkpt lat="45.14737" lon="0.49705">
        <ele>140.20001220703</ele>
        <time>2017-02-13T11:27:57Z</time>
      </trkpt>
      <trkpt lat="45.14746" lon="0.49711">
        <ele>140</ele>
        <time>2017-02-13T11:27:59Z</time>
      </trkpt>
      <trkpt lat="45.1476" lon="0.497">
        <ele>140.40002441406</ele>
        <time>2017-02-13T11:28:02Z</time>
      </trkpt>
      <trkpt lat="45.14779" lon="0.4968">
        <ele>141.40002441406</ele>
        <time>2017-02-13T11:28:06Z</time>
      </trkpt>
      <trkpt lat="45.14784" lon="0.49675">
        <ele>141.79998779297</ele>
        <time>2017-02-13T11:28:07Z</time>
      </trkpt>
      <trkpt lat="45.14797" lon="0.49663">
        <ele>143.20001220703</ele>
        <time>2017-02-13T11:28:10Z</time>
      </trkpt>
      <trkpt lat="45.14801" lon="0.49661">
        <ele>143.79998779297</ele>
        <time>2017-02-13T11:28:11Z</time>
      </trkpt>
      <trkpt lat="45.14811" lon="0.49661">
        <ele>144.59997558594</ele>
        <time>2017-02-13T11:28:13Z</time>
      </trkpt>
      <trkpt lat="45.14816" lon="0.49665">
        <ele>145</ele>
        <time>2017-02-13T11:28:14Z</time>
      </trkpt>
      <trkpt lat="45.1483" lon="0.49684">
        <ele>145.20001220703</ele>
        <time>2017-02-13T11:28:17Z</time>
      </trkpt>
      <trkpt lat="45.14835" lon="0.49692">
        <ele>144.40002441406</ele>
        <time>2017-02-13T11:28:18Z</time>
      </trkpt>
      <trkpt lat="45.14844" lon="0.49706">
        <ele>142.79998779297</ele>
        <time>2017-02-13T11:28:20Z</time>
      </trkpt>
      <trkpt lat="45.14851" lon="0.49708">
        <ele>142</ele>
        <time>2017-02-13T11:28:21Z</time>
      </trkpt>
      <trkpt lat="45.14859" lon="0.49706">
        <ele>141</ele>
        <time>2017-02-13T11:28:22Z</time>
      </trkpt>
      <trkpt lat="45.14868" lon="0.49704">
        <ele>139.79998779297</ele>
        <time>2017-02-13T11:28:23Z</time>
      </trkpt>
      <trkpt lat="45.14878" lon="0.49704">
        <ele>138.79998779297</ele>
        <time>2017-02-13T11:28:24Z</time>
      </trkpt>
      <trkpt lat="45.14897" lon="0.49698">
        <ele>137</ele>
        <time>2017-02-13T11:28:26Z</time>
      </trkpt>
      <trkpt lat="45.14907" lon="0.49692">
        <ele>136.20001220703</ele>
        <time>2017-02-13T11:28:27Z</time>
      </trkpt>
      <trkpt lat="45.14916" lon="0.49682">
        <ele>135.40002441406</ele>
        <time>2017-02-13T11:28:28Z</time>
      </trkpt>
      <trkpt lat="45.14935" lon="0.49666">
        <ele>133.79998779297</ele>
        <time>2017-02-13T11:28:30Z</time>
      </trkpt>
      <trkpt lat="45.14945" lon="0.49663">
        <ele>132.79998779297</ele>
        <time>2017-02-13T11:28:31Z</time>
      </trkpt>
      <trkpt lat="45.14955" lon="0.49662">
        <ele>131.59997558594</ele>
        <time>2017-02-13T11:28:32Z</time>
      </trkpt>
      <trkpt lat="45.14964" lon="0.49665">
        <ele>130.40002441406</ele>
        <time>2017-02-13T11:28:33Z</time>
      </trkpt>
      <trkpt lat="45.14972" lon="0.49668">
        <ele>129.40002441406</ele>
        <time>2017-02-13T11:28:34Z</time>
      </trkpt>
      <trkpt lat="45.1498" lon="0.4967">
        <ele>128.59997558594</ele>
        <time>2017-02-13T11:28:35Z</time>
      </trkpt>
      <trkpt lat="45.14986" lon="0.49673">
        <ele>128</ele>
        <time>2017-02-13T11:28:36Z</time>
      </trkpt>
      <trkpt lat="45.14992" lon="0.49674">
        <ele>127.59997558594</ele>
        <time>2017-02-13T11:28:37Z</time>
      </trkpt>
      <trkpt lat="45.15003" lon="0.49675">
        <ele>127.40002441406</ele>
        <time>2017-02-13T11:28:39Z</time>
      </trkpt>
      <trkpt lat="45.15012" lon="0.49673">
        <ele>127.79998779297</ele>
        <time>2017-02-13T11:28:41Z</time>
      </trkpt>
      <trkpt lat="45.15019" lon="0.49669">
        <ele>129.40002441406</ele>
        <time>2017-02-13T11:28:43Z</time>
      </trkpt>
      <trkpt lat="45.15028" lon="0.49663">
        <ele>130.59997558594</ele>
        <time>2017-02-13T11:28:46Z</time>
      </trkpt>
      <trkpt lat="45.15036" lon="0.49656">
        <ele>131.79998779297</ele>
        <time>2017-02-13T11:28:49Z</time>
      </trkpt>
      <trkpt lat="45.15043" lon="0.49651">
        <ele>132.59997558594</ele>
        <time>2017-02-13T11:28:52Z</time>
      </trkpt>
      <trkpt lat="45.15044" lon="0.49649">
        <ele>133</ele>
        <time>2017-02-13T11:28:53Z</time>
      </trkpt>
      <trkpt lat="45.15047" lon="0.4965">
        <ele>133.79998779297</ele>
        <time>2017-02-13T11:28:55Z</time>
      </trkpt>
      <trkpt lat="45.15048" lon="0.49653">
        <ele>134.20001220703</ele>
        <time>2017-02-13T11:28:56Z</time>
      </trkpt>
      <trkpt lat="45.15051" lon="0.49672">
        <ele>134.40002441406</ele>
        <time>2017-02-13T11:29:00Z</time>
      </trkpt>
      <trkpt lat="45.1505" lon="0.49678">
        <ele>134</ele>
        <time>2017-02-13T11:29:01Z</time>
      </trkpt>
      <trkpt lat="45.15045" lon="0.49693">
        <ele>133.20001220703</ele>
        <time>2017-02-13T11:29:03Z</time>
      </trkpt>
      <trkpt lat="45.15042" lon="0.49702">
        <ele>132.79998779297</ele>
        <time>2017-02-13T11:29:04Z</time>
      </trkpt>
      <trkpt lat="45.15038" lon="0.49719">
        <ele>132</ele>
        <time>2017-02-13T11:29:06Z</time>
      </trkpt>
      <trkpt lat="45.15035" lon="0.49738">
        <ele>131.20001220703</ele>
        <time>2017-02-13T11:29:08Z</time>
      </trkpt>
      <trkpt lat="45.15033" lon="0.49747">
        <ele>130.59997558594</ele>
        <time>2017-02-13T11:29:09Z</time>
      </trkpt>
      <trkpt lat="45.15033" lon="0.49766">
        <ele>129.59997558594</ele>
        <time>2017-02-13T11:29:11Z</time>
      </trkpt>
      <trkpt lat="45.15033" lon="0.49784">
        <ele>128</ele>
        <time>2017-02-13T11:29:13Z</time>
      </trkpt>
      <trkpt lat="45.15034" lon="0.49793">
        <ele>127.40002441406</ele>
        <time>2017-02-13T11:29:14Z</time>
      </trkpt>
      <trkpt lat="45.15036" lon="0.4981">
        <ele>126.79998779297</ele>
        <time>2017-02-13T11:29:16Z</time>
      </trkpt>
      <trkpt lat="45.15041" lon="0.49855">
        <ele>125.79998779297</ele>
        <time>2017-02-13T11:29:21Z</time>
      </trkpt>
      <trkpt lat="45.15044" lon="0.49874">
        <ele>124.59997558594</ele>
        <time>2017-02-13T11:29:23Z</time>
      </trkpt>
      <trkpt lat="45.15048" lon="0.49904">
        <ele>123.20001220703</ele>
        <time>2017-02-13T11:29:26Z</time>
      </trkpt>
      <trkpt lat="45.15051" lon="0.49923">
        <ele>122.20001220703</ele>
        <time>2017-02-13T11:29:28Z</time>
      </trkpt>
      <trkpt lat="45.15054" lon="0.49943">
        <ele>120.20001220703</ele>
        <time>2017-02-13T11:29:30Z</time>
      </trkpt>
      <trkpt lat="45.15058" lon="0.49963">
        <ele>118.79998779297</ele>
        <time>2017-02-13T11:29:32Z</time>
      </trkpt>
      <trkpt lat="45.1506" lon="0.49974">
        <ele>118.40002441406</ele>
        <time>2017-02-13T11:29:33Z</time>
      </trkpt>
      <trkpt lat="45.15061" lon="0.49984">
        <ele>117.79998779297</ele>
        <time>2017-02-13T11:29:34Z</time>
      </trkpt>
      <trkpt lat="45.15067" lon="0.50018">
        <ele>116.59997558594</ele>
        <time>2017-02-13T11:29:37Z</time>
      </trkpt>
      <trkpt lat="45.15069" lon="0.50029">
        <ele>116</ele>
        <time>2017-02-13T11:29:38Z</time>
      </trkpt>
      <trkpt lat="45.15071" lon="0.50041">
        <ele>115.40002441406</ele>
        <time>2017-02-13T11:29:39Z</time>
      </trkpt>
      <trkpt lat="45.15073" lon="0.50066">
        <ele>114.40002441406</ele>
        <time>2017-02-13T11:29:41Z</time>
      </trkpt>
      <trkpt lat="45.1507" lon="0.50078">
        <ele>113.79998779297</ele>
        <time>2017-02-13T11:29:42Z</time>
      </trkpt>
      <trkpt lat="45.15066" lon="0.5009">
        <ele>113</ele>
        <time>2017-02-13T11:29:43Z</time>
      </trkpt>
      <trkpt lat="45.1506" lon="0.50113">
        <ele>111.59997558594</ele>
        <time>2017-02-13T11:29:45Z</time>
      </trkpt>
      <trkpt lat="45.15055" lon="0.50136">
        <ele>110</ele>
        <time>2017-02-13T11:29:47Z</time>
      </trkpt>
      <trkpt lat="45.15052" lon="0.5016">
        <ele>108.20001220703</ele>
        <time>2017-02-13T11:29:49Z</time>
      </trkpt>
      <trkpt lat="45.15051" lon="0.50172">
        <ele>107.59997558594</ele>
        <time>2017-02-13T11:29:50Z</time>
      </trkpt>
      <trkpt lat="45.1505" lon="0.50184">
        <ele>107</ele>
        <time>2017-02-13T11:29:51Z</time>
      </trkpt>
      <trkpt lat="45.15042" lon="0.50218">
        <ele>106</ele>
        <time>2017-02-13T11:29:54Z</time>
      </trkpt>
      <trkpt lat="45.15039" lon="0.50229">
        <ele>106</ele>
        <time>2017-02-13T11:29:55Z</time>
      </trkpt>
      <trkpt lat="45.15017" lon="0.50261">
        <ele>105.79998779297</ele>
        <time>2017-02-13T11:29:59Z</time>
      </trkpt>
      <trkpt lat="45.1501" lon="0.50268">
        <ele>106</ele>
        <time>2017-02-13T11:30:00Z</time>
      </trkpt>
      <trkpt lat="45.15002" lon="0.50273">
        <ele>106</ele>
        <time>2017-02-13T11:30:01Z</time>
      </trkpt>
      <trkpt lat="45.14978" lon="0.50287">
        <ele>107.20001220703</ele>
        <time>2017-02-13T11:30:04Z</time>
      </trkpt>
      <trkpt lat="45.14922" lon="0.50321">
        <ele>106.59997558594</ele>
        <time>2017-02-13T11:30:11Z</time>
      </trkpt>
      <trkpt lat="45.14914" lon="0.50326">
        <ele>106.59997558594</ele>
        <time>2017-02-13T11:30:12Z</time>
      </trkpt>
      <trkpt lat="45.14868" lon="0.50354">
        <ele>106</ele>
        <time>2017-02-13T11:30:18Z</time>
      </trkpt>
      <trkpt lat="45.14861" lon="0.50359">
        <ele>105.79998779297</ele>
        <time>2017-02-13T11:30:19Z</time>
      </trkpt>
      <trkpt lat="45.14819" lon="0.50392">
        <ele>105.79998779297</ele>
        <time>2017-02-13T11:30:26Z</time>
      </trkpt>
      <trkpt lat="45.14775" lon="0.50428">
        <ele>106.79998779297</ele>
        <time>2017-02-13T11:30:34Z</time>
      </trkpt>
      <trkpt lat="45.1477" lon="0.50431">
        <ele>107.20001220703</ele>
        <time>2017-02-13T11:30:35Z</time>
      </trkpt>
      <trkpt lat="45.14753" lon="0.50441">
        <ele>108.20001220703</ele>
        <time>2017-02-13T11:30:38Z</time>
      </trkpt>
      <trkpt lat="45.14736" lon="0.50448">
        <ele>108.59997558594</ele>
        <time>2017-02-13T11:30:41Z</time>
      </trkpt>
      <trkpt lat="45.14708" lon="0.50458">
        <ele>109.20001220703</ele>
        <time>2017-02-13T11:30:46Z</time>
      </trkpt>
      <trkpt lat="45.14692" lon="0.50463">
        <ele>109.40002441406</ele>
        <time>2017-02-13T11:30:49Z</time>
      </trkpt>
      <trkpt lat="45.14652" lon="0.50474">
        <ele>109.20001220703</ele>
        <time>2017-02-13T11:30:56Z</time>
      </trkpt>
      <trkpt lat="45.14614" lon="0.50479">
        <ele>109.79998779297</ele>
        <time>2017-02-13T11:31:03Z</time>
      </trkpt>
      <trkpt lat="45.14608" lon="0.50477">
        <ele>110</ele>
        <time>2017-02-13T11:31:04Z</time>
      </trkpt>
      <trkpt lat="45.14592" lon="0.5047">
        <ele>110.40002441406</ele>
        <time>2017-02-13T11:31:07Z</time>
      </trkpt>
      <trkpt lat="45.14587" lon="0.50471">
        <ele>110.40002441406</ele>
        <time>2017-02-13T11:31:08Z</time>
      </trkpt>
      <trkpt lat="45.14569" lon="0.50475">
        <ele>109.59997558594</ele>
        <time>2017-02-13T11:31:11Z</time>
      </trkpt>
      <trkpt lat="45.14563" lon="0.50477">
        <ele>109.20001220703</ele>
        <time>2017-02-13T11:31:12Z</time>
      </trkpt>
      <trkpt lat="45.14551" lon="0.5048">
        <ele>108.40002441406</ele>
        <time>2017-02-13T11:31:14Z</time>
      </trkpt>
      <trkpt lat="45.14538" lon="0.50486">
        <ele>107.79998779297</ele>
        <time>2017-02-13T11:31:16Z</time>
      </trkpt>
      <trkpt lat="45.1452" lon="0.50496">
        <ele>107.20001220703</ele>
        <time>2017-02-13T11:31:19Z</time>
      </trkpt>
      <trkpt lat="45.14491" lon="0.50504">
        <ele>106.79998779297</ele>
        <time>2017-02-13T11:31:23Z</time>
      </trkpt>
      <trkpt lat="45.14483" lon="0.50501">
        <ele>106.79998779297</ele>
        <time>2017-02-13T11:31:24Z</time>
      </trkpt>
      <trkpt lat="45.14475" lon="0.50493">
        <ele>106.59997558594</ele>
        <time>2017-02-13T11:31:25Z</time>
      </trkpt>
      <trkpt lat="45.1447" lon="0.50482">
        <ele>106.40002441406</ele>
        <time>2017-02-13T11:31:26Z</time>
      </trkpt>
      <trkpt lat="45.14466" lon="0.50455">
        <ele>105.40002441406</ele>
        <time>2017-02-13T11:31:28Z</time>
      </trkpt>
      <trkpt lat="45.14464" lon="0.50429">
        <ele>103.59997558594</ele>
        <time>2017-02-13T11:31:30Z</time>
      </trkpt>
      <trkpt lat="45.14458" lon="0.50406">
        <ele>102.79998779297</ele>
        <time>2017-02-13T11:31:32Z</time>
      </trkpt>
      <trkpt lat="45.14453" lon="0.50396">
        <ele>102.59997558594</ele>
        <time>2017-02-13T11:31:33Z</time>
      </trkpt>
      <trkpt lat="45.1444" lon="0.50381">
        <ele>102</ele>
        <time>2017-02-13T11:31:35Z</time>
      </trkpt>
      <trkpt lat="45.14434" lon="0.50374">
        <ele>101.79998779297</ele>
        <time>2017-02-13T11:31:36Z</time>
      </trkpt>
      <trkpt lat="45.14423" lon="0.50361">
        <ele>101.40002441406</ele>
        <time>2017-02-13T11:31:38Z</time>
      </trkpt>
      <trkpt lat="45.14417" lon="0.5036">
        <ele>101.40002441406</ele>
        <time>2017-02-13T11:31:39Z</time>
      </trkpt>
      <trkpt lat="45.14413" lon="0.50361">
        <ele>101.20001220703</ele>
        <time>2017-02-13T11:31:40Z</time>
      </trkpt>
      <trkpt lat="45.14405" lon="0.50373">
        <ele>101.20001220703</ele>
        <time>2017-02-13T11:31:42Z</time>
      </trkpt>
      <trkpt lat="45.14399" lon="0.50386">
        <ele>101</ele>
        <time>2017-02-13T11:31:44Z</time>
      </trkpt>
      <trkpt lat="45.14387" lon="0.50404">
        <ele>100.59997558594</ele>
        <time>2017-02-13T11:31:47Z</time>
      </trkpt>
      <trkpt lat="45.14381" lon="0.5041">
        <ele>100.40002441406</ele>
        <time>2017-02-13T11:31:48Z</time>
      </trkpt>
      <trkpt lat="45.14365" lon="0.50428">
        <ele>100</ele>
        <time>2017-02-13T11:31:51Z</time>
      </trkpt>
      <trkpt lat="45.14331" lon="0.50453">
        <ele>99.400024414062</ele>
        <time>2017-02-13T11:31:57Z</time>
      </trkpt>
      <trkpt lat="45.14312" lon="0.50463">
        <ele>99.200012207031</ele>
        <time>2017-02-13T11:32:00Z</time>
      </trkpt>
      <trkpt lat="45.14307" lon="0.50467">
        <ele>99.200012207031</ele>
        <time>2017-02-13T11:32:01Z</time>
      </trkpt>
      <trkpt lat="45.14297" lon="0.50477">
        <ele>98.799987792969</ele>
        <time>2017-02-13T11:32:03Z</time>
      </trkpt>
      <trkpt lat="45.14288" lon="0.50484">
        <ele>98.200012207031</ele>
        <time>2017-02-13T11:32:05Z</time>
      </trkpt>
      <trkpt lat="45.14278" lon="0.50489">
        <ele>97.599975585938</ele>
        <time>2017-02-13T11:32:07Z</time>
      </trkpt>
      <trkpt lat="45.14254" lon="0.50504">
        <ele>97.599975585938</ele>
        <time>2017-02-13T11:32:12Z</time>
      </trkpt>
      <trkpt lat="45.14248" lon="0.50508">
        <ele>97.799987792969</ele>
        <time>2017-02-13T11:32:13Z</time>
      </trkpt>
      <trkpt lat="45.14237" lon="0.5052">
        <ele>98</ele>
        <time>2017-02-13T11:32:15Z</time>
      </trkpt>
      <trkpt lat="45.14227" lon="0.50537">
        <ele>98</ele>
        <time>2017-02-13T11:32:17Z</time>
      </trkpt>
      <trkpt lat="45.14202" lon="0.50559">
        <ele>97.599975585938</ele>
        <time>2017-02-13T11:32:21Z</time>
      </trkpt>
      <trkpt lat="45.14196" lon="0.50563">
        <ele>97.400024414062</ele>
        <time>2017-02-13T11:32:22Z</time>
      </trkpt>
      <trkpt lat="45.14183" lon="0.50569">
        <ele>97</ele>
        <time>2017-02-13T11:32:24Z</time>
      </trkpt>
      <trkpt lat="45.14178" lon="0.50577">
        <ele>97</ele>
        <time>2017-02-13T11:32:25Z</time>
      </trkpt>
      <trkpt lat="45.14174" lon="0.50585">
        <ele>97</ele>
        <time>2017-02-13T11:32:26Z</time>
      </trkpt>
      <trkpt lat="45.14152" lon="0.50623">
        <ele>96.799987792969</ele>
        <time>2017-02-13T11:32:31Z</time>
      </trkpt>
      <trkpt lat="45.14134" lon="0.50651">
        <ele>96</ele>
        <time>2017-02-13T11:32:35Z</time>
      </trkpt>
      <trkpt lat="45.14131" lon="0.50658">
        <ele>96</ele>
        <time>2017-02-13T11:32:36Z</time>
      </trkpt>
      <trkpt lat="45.14116" lon="0.50675">
        <ele>96</ele>
        <time>2017-02-13T11:32:40Z</time>
      </trkpt>
      <trkpt lat="45.14112" lon="0.50679">
        <ele>96.200012207031</ele>
        <time>2017-02-13T11:32:41Z</time>
      </trkpt>
      <trkpt lat="45.1409" lon="0.50699">
        <ele>96</ele>
        <time>2017-02-13T11:32:47Z</time>
      </trkpt>
      <trkpt lat="45.14092" lon="0.50711">
        <ele>95.599975585938</ele>
        <time>2017-02-13T11:32:49Z</time>
      </trkpt>
      <trkpt lat="45.14096" lon="0.50722">
        <ele>95.200012207031</ele>
        <time>2017-02-13T11:32:51Z</time>
      </trkpt>
      <trkpt lat="45.14098" lon="0.50729">
        <ele>95</ele>
        <time>2017-02-13T11:32:52Z</time>
      </trkpt>
      <trkpt lat="45.14101" lon="0.50734">
        <ele>94.599975585938</ele>
        <time>2017-02-13T11:32:53Z</time>
      </trkpt>
      <trkpt lat="45.14104" lon="0.50739">
        <ele>94.400024414062</ele>
        <time>2017-02-13T11:32:54Z</time>
      </trkpt>
      <trkpt lat="45.14109" lon="0.50753">
        <ele>94.200012207031</ele>
        <time>2017-02-13T11:32:57Z</time>
      </trkpt>
      <trkpt lat="45.14115" lon="0.5076">
        <ele>94.599975585938</ele>
        <time>2017-02-13T11:32:59Z</time>
      </trkpt>
      <trkpt lat="45.14134" lon="0.50777">
        <ele>94.799987792969</ele>
        <time>2017-02-13T11:33:04Z</time>
      </trkpt>
      <trkpt lat="45.14157" lon="0.5079">
        <ele>94.599975585938</ele>
        <time>2017-02-13T11:33:10Z</time>
      </trkpt>
      <trkpt lat="45.14172" lon="0.50796">
        <ele>95.400024414062</ele>
        <time>2017-02-13T11:33:15Z</time>
      </trkpt>
      <trkpt lat="45.14173" lon="0.50805">
        <ele>96</ele>
        <time>2017-02-13T11:33:17Z</time>
      </trkpt>
      <trkpt lat="45.14173" lon="0.50814">
        <ele>96.400024414062</ele>
        <time>2017-02-13T11:33:19Z</time>
      </trkpt>
      <trkpt lat="45.14171" lon="0.50831">
        <ele>97.200012207031</ele>
        <time>2017-02-13T11:33:22Z</time>
      </trkpt>
      <trkpt lat="45.14169" lon="0.50842">
        <ele>97.599975585938</ele>
        <time>2017-02-13T11:33:24Z</time>
      </trkpt>
      <trkpt lat="45.14165" lon="0.50853">
        <ele>98</ele>
        <time>2017-02-13T11:33:26Z</time>
      </trkpt>
      <trkpt lat="45.14163" lon="0.5086">
        <ele>98.200012207031</ele>
        <time>2017-02-13T11:33:27Z</time>
      </trkpt>
      <trkpt lat="45.14156" lon="0.50872">
        <ele>98.400024414062</ele>
        <time>2017-02-13T11:33:29Z</time>
      </trkpt>
      <trkpt lat="45.14139" lon="0.50905">
        <ele>97.200012207031</ele>
        <time>2017-02-13T11:33:34Z</time>
      </trkpt>
      <trkpt lat="45.14129" lon="0.50925">
        <ele>96.400024414062</ele>
        <time>2017-02-13T11:33:37Z</time>
      </trkpt>
      <trkpt lat="45.14125" lon="0.50931">
        <ele>96</ele>
        <time>2017-02-13T11:33:38Z</time>
      </trkpt>
      <trkpt lat="45.14098" lon="0.5097">
        <ele>96</ele>
        <time>2017-02-13T11:33:44Z</time>
      </trkpt>
      <trkpt lat="45.14076" lon="0.51014">
        <ele>96.400024414062</ele>
        <time>2017-02-13T11:33:50Z</time>
      </trkpt>
      <trkpt lat="45.14055" lon="0.51067">
        <ele>96.599975585938</ele>
        <time>2017-02-13T11:33:57Z</time>
      </trkpt>
      <trkpt lat="45.14051" lon="0.51083">
        <ele>96.200012207031</ele>
        <time>2017-02-13T11:33:59Z</time>
      </trkpt>
      <trkpt lat="45.1405" lon="0.51106">
        <ele>96</ele>
        <time>2017-02-13T11:34:02Z</time>
      </trkpt>
      <trkpt lat="45.14044" lon="0.51155">
        <ele>95</ele>
        <time>2017-02-13T11:34:08Z</time>
      </trkpt>
      <trkpt lat="45.14041" lon="0.51162">
        <ele>94.799987792969</ele>
        <time>2017-02-13T11:34:09Z</time>
      </trkpt>
      <trkpt lat="45.14032" lon="0.51191">
        <ele>94.400024414062</ele>
        <time>2017-02-13T11:34:13Z</time>
      </trkpt>
      <trkpt lat="45.14039" lon="0.51214">
        <ele>94.400024414062</ele>
        <time>2017-02-13T11:34:16Z</time>
      </trkpt>
      <trkpt lat="45.14042" lon="0.51222">
        <ele>94.400024414062</ele>
        <time>2017-02-13T11:34:17Z</time>
      </trkpt>
      <trkpt lat="45.14052" lon="0.51247">
        <ele>94.799987792969</ele>
        <time>2017-02-13T11:34:20Z</time>
      </trkpt>
      <trkpt lat="45.1406" lon="0.51263">
        <ele>94.799987792969</ele>
        <time>2017-02-13T11:34:22Z</time>
      </trkpt>
      <trkpt lat="45.14076" lon="0.51301">
        <ele>94</ele>
        <time>2017-02-13T11:34:27Z</time>
      </trkpt>
      <trkpt lat="45.1408" lon="0.51308">
        <ele>93.599975585938</ele>
        <time>2017-02-13T11:34:28Z</time>
      </trkpt>
      <trkpt lat="45.14104" lon="0.51359">
        <ele>93</ele>
        <time>2017-02-13T11:34:35Z</time>
      </trkpt>
      <trkpt lat="45.14107" lon="0.51366">
        <ele>92.799987792969</ele>
        <time>2017-02-13T11:34:36Z</time>
      </trkpt>
      <trkpt lat="45.14113" lon="0.51376">
        <ele>92.400024414062</ele>
        <time>2017-02-13T11:34:38Z</time>
      </trkpt>
      <trkpt lat="45.14116" lon="0.51377">
        <ele>92.200012207031</ele>
        <time>2017-02-13T11:34:39Z</time>
      </trkpt>
      <trkpt lat="45.14126" lon="0.51363">
        <ele>92.599975585938</ele>
        <time>2017-02-13T11:34:42Z</time>
      </trkpt>
      <trkpt lat="45.14129" lon="0.51357">
        <ele>92.799987792969</ele>
        <time>2017-02-13T11:34:43Z</time>
      </trkpt>
      <trkpt lat="45.14134" lon="0.51351">
        <ele>92.799987792969</ele>
        <time>2017-02-13T11:34:44Z</time>
      </trkpt>
      <trkpt lat="45.14145" lon="0.51354">
        <ele>92.799987792969</ele>
        <time>2017-02-13T11:34:46Z</time>
      </trkpt>
      <trkpt lat="45.14154" lon="0.51365">
        <ele>92.200012207031</ele>
        <time>2017-02-13T11:34:48Z</time>
      </trkpt>
      <trkpt lat="45.14159" lon="0.51369">
        <ele>92.200012207031</ele>
        <time>2017-02-13T11:34:49Z</time>
      </trkpt>
      <trkpt lat="45.14164" lon="0.51373">
        <ele>92</ele>
        <time>2017-02-13T11:34:50Z</time>
      </trkpt>
      <trkpt lat="45.14168" lon="0.51379">
        <ele>91.799987792969</ele>
        <time>2017-02-13T11:34:51Z</time>
      </trkpt>
      <trkpt lat="45.14168" lon="0.51387">
        <ele>91.799987792969</ele>
        <time>2017-02-13T11:34:52Z</time>
      </trkpt>
      <trkpt lat="45.14159" lon="0.51404">
        <ele>91.400024414062</ele>
        <time>2017-02-13T11:34:55Z</time>
      </trkpt>
      <trkpt lat="45.14157" lon="0.51407">
        <ele>91.400024414062</ele>
        <time>2017-02-13T11:34:56Z</time>
      </trkpt>
      <trkpt lat="45.14151" lon="0.51418">
        <ele>91.799987792969</ele>
        <time>2017-02-13T11:34:59Z</time>
      </trkpt>
      <trkpt lat="45.14139" lon="0.51448">
        <ele>92.200012207031</ele>
        <time>2017-02-13T11:35:04Z</time>
      </trkpt>
      <trkpt lat="45.14146" lon="0.51465">
        <ele>91</ele>
        <time>2017-02-13T11:35:07Z</time>
      </trkpt>
      <trkpt lat="45.14148" lon="0.51471">
        <ele>90.799987792969</ele>
        <time>2017-02-13T11:35:08Z</time>
      </trkpt>
      <trkpt lat="45.14155" lon="0.51488">
        <ele>90.200012207031</ele>
        <time>2017-02-13T11:35:11Z</time>
      </trkpt>
      <trkpt lat="45.14158" lon="0.51493">
        <ele>89.599975585938</ele>
        <time>2017-02-13T11:35:12Z</time>
      </trkpt>
      <trkpt lat="45.14163" lon="0.51504">
        <ele>88.799987792969</ele>
        <time>2017-02-13T11:35:14Z</time>
      </trkpt>
      <trkpt lat="45.14166" lon="0.51509">
        <ele>88.400024414062</ele>
        <time>2017-02-13T11:35:15Z</time>
      </trkpt>
      <trkpt lat="45.14176" lon="0.5153">
        <ele>88</ele>
        <time>2017-02-13T11:35:20Z</time>
      </trkpt>
      <trkpt lat="45.14184" lon="0.51541">
        <ele>89.799987792969</ele>
        <time>2017-02-13T11:35:23Z</time>
      </trkpt>
      <trkpt lat="45.14188" lon="0.51546">
        <ele>90.200012207031</ele>
        <time>2017-02-13T11:35:24Z</time>
      </trkpt>
      <trkpt lat="45.14203" lon="0.51545">
        <ele>90.799987792969</ele>
        <time>2017-02-13T11:35:27Z</time>
      </trkpt>
      <trkpt lat="45.14207" lon="0.51544">
        <ele>90.799987792969</ele>
        <time>2017-02-13T11:35:28Z</time>
      </trkpt>
      <trkpt lat="45.14213" lon="0.51546">
        <ele>91</ele>
        <time>2017-02-13T11:35:29Z</time>
      </trkpt>
      <trkpt lat="45.14221" lon="0.51554">
        <ele>91.200012207031</ele>
        <time>2017-02-13T11:35:31Z</time>
      </trkpt>
      <trkpt lat="45.14237" lon="0.51569">
        <ele>91.400024414062</ele>
        <time>2017-02-13T11:35:35Z</time>
      </trkpt>
      <trkpt lat="45.1425" lon="0.51579">
        <ele>91.400024414062</ele>
        <time>2017-02-13T11:35:38Z</time>
      </trkpt>
      <trkpt lat="45.14253" lon="0.51583">
        <ele>91.400024414062</ele>
        <time>2017-02-13T11:35:39Z</time>
      </trkpt>
      <trkpt lat="45.14261" lon="0.51602">
        <ele>91.599975585938</ele>
        <time>2017-02-13T11:35:42Z</time>
      </trkpt>
      <trkpt lat="45.14265" lon="0.51615">
        <ele>91.599975585938</ele>
        <time>2017-02-13T11:35:44Z</time>
      </trkpt>
      <trkpt lat="45.14271" lon="0.51643">
        <ele>90.200012207031</ele>
        <time>2017-02-13T11:35:48Z</time>
      </trkpt>
      <trkpt lat="45.14276" lon="0.51662">
        <ele>89.799987792969</ele>
        <time>2017-02-13T11:35:51Z</time>
      </trkpt>
      <trkpt lat="45.14282" lon="0.51687">
        <ele>89</ele>
        <time>2017-02-13T11:35:55Z</time>
      </trkpt>
      <trkpt lat="45.14284" lon="0.51693">
        <ele>88.799987792969</ele>
        <time>2017-02-13T11:35:56Z</time>
      </trkpt>
      <trkpt lat="45.14285" lon="0.517">
        <ele>88.599975585938</ele>
        <time>2017-02-13T11:35:57Z</time>
      </trkpt>
      <trkpt lat="45.14288" lon="0.51723">
        <ele>88</ele>
        <time>2017-02-13T11:36:00Z</time>
      </trkpt>
      <trkpt lat="45.1429" lon="0.51731">
        <ele>87</ele>
        <time>2017-02-13T11:36:01Z</time>
      </trkpt>
      <trkpt lat="45.14294" lon="0.51747">
        <ele>85.799987792969</ele>
        <time>2017-02-13T11:36:03Z</time>
      </trkpt>
      <trkpt lat="45.14298" lon="0.51762">
        <ele>85.400024414062</ele>
        <time>2017-02-13T11:36:05Z</time>
      </trkpt>
      <trkpt lat="45.14307" lon="0.51789">
        <ele>86.200012207031</ele>
        <time>2017-02-13T11:36:09Z</time>
      </trkpt>
      <trkpt lat="45.1431" lon="0.51795">
        <ele>86.799987792969</ele>
        <time>2017-02-13T11:36:10Z</time>
      </trkpt>
      <trkpt lat="45.14314" lon="0.51808">
        <ele>88.400024414062</ele>
        <time>2017-02-13T11:36:12Z</time>
      </trkpt>
      <trkpt lat="45.14318" lon="0.51819">
        <ele>89.200012207031</ele>
        <time>2017-02-13T11:36:14Z</time>
      </trkpt>
      <trkpt lat="45.14325" lon="0.51836">
        <ele>89.400024414062</ele>
        <time>2017-02-13T11:36:17Z</time>
      </trkpt>
      <trkpt lat="45.14332" lon="0.51873">
        <ele>88.799987792969</ele>
        <time>2017-02-13T11:36:23Z</time>
      </trkpt>
      <trkpt lat="45.14337" lon="0.51922">
        <ele>89.200012207031</ele>
        <time>2017-02-13T11:36:30Z</time>
      </trkpt>
      <trkpt lat="45.14347" lon="0.51935">
        <ele>88.599975585938</ele>
        <time>2017-02-13T11:36:33Z</time>
      </trkpt>
      <trkpt lat="45.14357" lon="0.51938">
        <ele>89.200012207031</ele>
        <time>2017-02-13T11:36:35Z</time>
      </trkpt>
      <trkpt lat="45.14362" lon="0.51939">
        <ele>90.799987792969</ele>
        <time>2017-02-13T11:36:36Z</time>
      </trkpt>
      <trkpt lat="45.14367" lon="0.5194">
        <ele>92.200012207031</ele>
        <time>2017-02-13T11:36:37Z</time>
      </trkpt>
      <trkpt lat="45.14371" lon="0.51943">
        <ele>93</ele>
        <time>2017-02-13T11:36:38Z</time>
      </trkpt>
      <trkpt lat="45.14374" lon="0.51944">
        <ele>93.400024414062</ele>
        <time>2017-02-13T11:36:39Z</time>
      </trkpt>
      <trkpt lat="45.14383" lon="0.51947">
        <ele>93.400024414062</ele>
        <time>2017-02-13T11:36:41Z</time>
      </trkpt>
      <trkpt lat="45.14403" lon="0.51951">
        <ele>92.799987792969</ele>
        <time>2017-02-13T11:36:46Z</time>
      </trkpt>
      <trkpt lat="45.14415" lon="0.51957">
        <ele>93.400024414062</ele>
        <time>2017-02-13T11:36:49Z</time>
      </trkpt>
      <trkpt lat="45.14419" lon="0.51957">
        <ele>93.400024414062</ele>
        <time>2017-02-13T11:36:50Z</time>
      </trkpt>
      <trkpt lat="45.14431" lon="0.51951">
        <ele>93.599975585938</ele>
        <time>2017-02-13T11:36:53Z</time>
      </trkpt>
      <trkpt lat="45.14435" lon="0.51948">
        <ele>93.599975585938</ele>
        <time>2017-02-13T11:36:54Z</time>
      </trkpt>
      <trkpt lat="45.1445" lon="0.51938">
        <ele>92.599975585938</ele>
        <time>2017-02-13T11:36:59Z</time>
      </trkpt>
    </trkseg>
  </trk>
  <trk>
    <name><![CDATA[AST 29 ROUGE]]></name>
    <trkseg>
      <trkpt lat="45.14451" lon="0.51936">
        <ele>93</ele>
      </trkpt>
      <trkpt lat="45.1446" lon="0.51908">
        <ele>93</ele>
      </trkpt>
      <trkpt lat="45.14491" lon="0.51862">
        <ele>92</ele>
      </trkpt>
      <trkpt lat="45.14527" lon="0.51837">
        <ele>94</ele>
      </trkpt>
      <trkpt lat="45.14563" lon="0.5182">
        <ele>95</ele>
      </trkpt>
      <trkpt lat="45.14581" lon="0.51801">
        <ele>97</ele>
      </trkpt>
      <trkpt lat="45.14592" lon="0.51801">
        <ele>97</ele>
      </trkpt>
      <trkpt lat="45.14606" lon="0.51806">
        <ele>97</ele>
      </trkpt>
      <trkpt lat="45.14623" lon="0.51793">
        <ele>97</ele>
      </trkpt>
      <trkpt lat="45.14648" lon="0.5178">
        <ele>97</ele>
      </trkpt>
      <trkpt lat="45.14655" lon="0.5179">
        <ele>97</ele>
      </trkpt>
      <trkpt lat="45.14662" lon="0.51816">
        <ele>97</ele>
      </trkpt>
      <trkpt lat="45.14693" lon="0.5197">
        <ele>95</ele>
      </trkpt>
      <trkpt lat="45.14701" lon="0.52072">
        <ele>95</ele>
      </trkpt>
      <trkpt lat="45.14709" lon="0.52125">
        <ele>95</ele>
      </trkpt>
      <trkpt lat="45.14745" lon="0.52246">
        <ele>93</ele>
      </trkpt>
      <trkpt lat="45.1475" lon="0.52255">
        <ele>93</ele>
      </trkpt>
      <trkpt lat="45.14755" lon="0.52254">
        <ele>93</ele>
      </trkpt>
      <trkpt lat="45.14766" lon="0.52239">
        <ele>93</ele>
      </trkpt>
      <trkpt lat="45.14774" lon="0.52219">
        <ele>93</ele>
      </trkpt>
      <trkpt lat="45.14808" lon="0.52143">
        <ele>94</ele>
      </trkpt>
      <trkpt lat="45.14876" lon="0.52004">
        <ele>97</ele>
      </trkpt>
      <trkpt lat="45.1492" lon="0.51901">
        <ele>100</ele>
      </trkpt>
      <trkpt lat="45.14929" lon="0.5186">
        <ele>101</ele>
      </trkpt>
      <trkpt lat="45.14932" lon="0.51839">
        <ele>101</ele>
      </trkpt>
      <trkpt lat="45.14942" lon="0.51772">
        <ele>103</ele>
      </trkpt>
      <trkpt lat="45.14961" lon="0.51718">
        <ele>105</ele>
      </trkpt>
      <trkpt lat="45.14977" lon="0.51671">
        <ele>105</ele>
      </trkpt>
      <trkpt lat="45.14982" lon="0.51643">
        <ele>106</ele>
      </trkpt>
      <trkpt lat="45.15007" lon="0.51563">
        <ele>106</ele>
      </trkpt>
      <trkpt lat="45.15012" lon="0.5153">
        <ele>106</ele>
      </trkpt>
      <trkpt lat="45.15003" lon="0.51454">
        <ele>108</ele>
      </trkpt>
      <trkpt lat="45.15019" lon="0.51345">
        <ele>117</ele>
      </trkpt>
      <trkpt lat="45.15021" lon="0.51316">
        <ele>119</ele>
      </trkpt>
      <trkpt lat="45.15037" lon="0.51211">
        <ele>126</ele>
      </trkpt>
      <trkpt lat="45.15038" lon="0.51196">
        <ele>128</ele>
      </trkpt>
      <trkpt lat="45.15051" lon="0.51114">
        <ele>134</ele>
      </trkpt>
      <trkpt lat="45.15052" lon="0.51091">
        <ele>137</ele>
      </trkpt>
      <trkpt lat="45.15058" lon="0.51066">
        <ele>138</ele>
      </trkpt>
      <trkpt lat="45.15058" lon="0.51047">
        <ele>139</ele>
      </trkpt>
      <trkpt lat="45.15059" lon="0.51029">
        <ele>140</ele>
      </trkpt>
      <trkpt lat="45.1503" lon="0.50843">
        <ele>148</ele>
      </trkpt>
      <trkpt lat="45.15026" lon="0.50758">
        <ele>150</ele>
      </trkpt>
      <trkpt lat="45.15017" lon="0.50702">
        <ele>151</ele>
      </trkpt>
      <trkpt lat="45.15003" lon="0.50644">
        <ele>154</ele>
      </trkpt>
      <trkpt lat="45.15007" lon="0.50633">
        <ele>155</ele>
      </trkpt>
      <trkpt lat="45.15022" lon="0.50632">
        <ele>157</ele>
      </trkpt>
      <trkpt lat="45.15082" lon="0.50618">
        <ele>165</ele>
      </trkpt>
      <trkpt lat="45.15264" lon="0.50612">
        <ele>175</ele>
      </trkpt>
      <trkpt lat="45.15281" lon="0.50608">
        <ele>175</ele>
      </trkpt>
      <trkpt lat="45.15304" lon="0.50614">
        <ele>175</ele>
      </trkpt>
      <trkpt lat="45.15369" lon="0.50641">
        <ele>176</ele>
      </trkpt>
      <trkpt lat="45.15484" lon="0.50716">
        <ele>175</ele>
      </trkpt>
      <trkpt lat="45.15551" lon="0.50785">
        <ele>178</ele>
      </trkpt>
      <trkpt lat="45.15586" lon="0.50827">
        <ele>180</ele>
      </trkpt>
      <trkpt lat="45.1559" lon="0.50821">
        <ele>180</ele>
      </trkpt>
      <trkpt lat="45.1563" lon="0.50649">
        <ele>161</ele>
      </trkpt>
      <trkpt lat="45.1571" lon="0.50433">
        <ele>121</ele>
      </trkpt>
      <trkpt lat="45.15725" lon="0.50373">
        <ele>106</ele>
      </trkpt>
      <trkpt lat="45.1574" lon="0.5033">
        <ele>109</ele>
      </trkpt>
      <trkpt lat="45.15746" lon="0.50307">
        <ele>119</ele>
      </trkpt>
      <trkpt lat="45.15756" lon="0.50246">
        <ele>123</ele>
      </trkpt>
      <trkpt lat="45.15758" lon="0.50232">
        <ele>124</ele>
      </trkpt>
      <trkpt lat="45.15765" lon="0.50206">
        <ele>126</ele>
      </trkpt>
      <trkpt lat="45.15793" lon="0.50111">
        <ele>135</ele>
      </trkpt>
      <trkpt lat="45.15798" lon="0.50058">
        <ele>139</ele>
      </trkpt>
      <trkpt lat="45.15807" lon="0.50016">
        <ele>145</ele>
      </trkpt>
      <trkpt lat="45.15807" lon="0.49973">
        <ele>149</ele>
      </trkpt>
      <trkpt lat="45.15818" lon="0.4989">
        <ele>157</ele>
      </trkpt>
      <trkpt lat="45.15832" lon="0.49846">
        <ele>161</ele>
      </trkpt>
      <trkpt lat="45.15863" lon="0.49789">
        <ele>169</ele>
      </trkpt>
      <trkpt lat="45.15871" lon="0.49784">
        <ele>170</ele>
      </trkpt>
      <trkpt lat="45.15887" lon="0.49787">
        <ele>170</ele>
      </trkpt>
      <trkpt lat="45.1595" lon="0.49782">
        <ele>167</ele>
      </trkpt>
      <trkpt lat="45.1598" lon="0.4978">
        <ele>165</ele>
      </trkpt>
      <trkpt lat="45.16006" lon="0.4979">
        <ele>146</ele>
      </trkpt>
      <trkpt lat="45.1601" lon="0.49801">
        <ele>155</ele>
      </trkpt>
      <trkpt lat="45.1601" lon="0.49808">
        <ele>155</ele>
      </trkpt>
      <trkpt lat="45.16021" lon="0.49868">
        <ele>148</ele>
      </trkpt>
      <trkpt lat="45.16029" lon="0.49882">
        <ele>144</ele>
      </trkpt>
      <trkpt lat="45.16049" lon="0.49892">
        <ele>140</ele>
      </trkpt>
      <trkpt lat="45.16118" lon="0.49901">
        <ele>134</ele>
      </trkpt>
      <trkpt lat="45.16133" lon="0.49916">
        <ele>134</ele>
      </trkpt>
      <trkpt lat="45.16155" lon="0.49942">
        <ele>135</ele>
      </trkpt>
      <trkpt lat="45.16163" lon="0.49946">
        <ele>136</ele>
      </trkpt>
      <trkpt lat="45.16171" lon="0.49946">
        <ele>139</ele>
      </trkpt>
      <trkpt lat="45.16184" lon="0.49928">
        <ele>141</ele>
      </trkpt>
      <trkpt lat="45.1619" lon="0.49918">
        <ele>142</ele>
      </trkpt>
      <trkpt lat="45.16194" lon="0.49913">
        <ele>143</ele>
      </trkpt>
      <trkpt lat="45.16218" lon="0.49895">
        <ele>147</ele>
      </trkpt>
      <trkpt lat="45.16225" lon="0.49886">
        <ele>149</ele>
      </trkpt>
      <trkpt lat="45.16232" lon="0.49852">
        <ele>155</ele>
      </trkpt>
      <trkpt lat="45.16251" lon="0.49816">
        <ele>159</ele>
      </trkpt>
      <trkpt lat="45.16257" lon="0.49798">
        <ele>160</ele>
      </trkpt>
      <trkpt lat="45.16266" lon="0.4977">
        <ele>162</ele>
      </trkpt>
      <trkpt lat="45.16282" lon="0.49666">
        <ele>170</ele>
      </trkpt>
      <trkpt lat="45.16296" lon="0.49586">
        <ele>178</ele>
      </trkpt>
      <trkpt lat="45.16296" lon="0.4957">
        <ele>180</ele>
      </trkpt>
      <trkpt lat="45.16264" lon="0.49549">
        <ele>180</ele>
      </trkpt>
      <trkpt lat="45.16258" lon="0.49538">
        <ele>180</ele>
      </trkpt>
      <trkpt lat="45.16254" lon="0.49517">
        <ele>179</ele>
      </trkpt>
      <trkpt lat="45.16252" lon="0.49477">
        <ele>182</ele>
      </trkpt>
      <trkpt lat="45.16256" lon="0.49447">
        <ele>187</ele>
      </trkpt>
      <trkpt lat="45.16268" lon="0.49417">
        <ele>192</ele>
      </trkpt>
      <trkpt lat="45.16279" lon="0.49406">
        <ele>193</ele>
      </trkpt>
      <trkpt lat="45.16287" lon="0.49382">
        <ele>195</ele>
      </trkpt>
      <trkpt lat="45.16284" lon="0.49372">
        <ele>195</ele>
      </trkpt>
      <trkpt lat="45.16248" lon="0.49342">
        <ele>195</ele>
      </trkpt>
      <trkpt lat="45.16201" lon="0.49314">
        <ele>194</ele>
      </trkpt>
      <trkpt lat="45.16159" lon="0.49267">
        <ele>193</ele>
      </trkpt>
      <trkpt lat="45.1614" lon="0.49254">
        <ele>192</ele>
      </trkpt>
      <trkpt lat="45.16113" lon="0.49253">
        <ele>191</ele>
      </trkpt>
      <trkpt lat="45.16049" lon="0.49273">
        <ele>190</ele>
      </trkpt>
      <trkpt lat="45.16015" lon="0.49279">
        <ele>190</ele>
      </trkpt>
      <trkpt lat="45.15965" lon="0.49262">
        <ele>192</ele>
      </trkpt>
      <trkpt lat="45.15925" lon="0.49255">
        <ele>190</ele>
      </trkpt>
      <trkpt lat="45.15892" lon="0.49244">
        <ele>188</ele>
      </trkpt>
      <trkpt lat="45.15885" lon="0.49229">
        <ele>187</ele>
      </trkpt>
      <trkpt lat="45.15886" lon="0.49205">
        <ele>186</ele>
      </trkpt>
      <trkpt lat="45.15911" lon="0.49122">
        <ele>186</ele>
      </trkpt>
      <trkpt lat="45.15946" lon="0.49059">
        <ele>182</ele>
      </trkpt>
      <trkpt lat="45.16" lon="0.4895">
        <ele>172</ele>
      </trkpt>
      <trkpt lat="45.16019" lon="0.48932">
        <ele>170</ele>
      </trkpt>
      <trkpt lat="45.16058" lon="0.48916">
        <ele>169</ele>
      </trkpt>
      <trkpt lat="45.16093" lon="0.48885">
        <ele>167</ele>
      </trkpt>
      <trkpt lat="45.16102" lon="0.48866">
        <ele>165</ele>
      </trkpt>
      <trkpt lat="45.16109" lon="0.48832">
        <ele>162</ele>
      </trkpt>
      <trkpt lat="45.16116" lon="0.48813">
        <ele>158</ele>
      </trkpt>
      <trkpt lat="45.16131" lon="0.48786">
        <ele>153</ele>
      </trkpt>
      <trkpt lat="45.16136" lon="0.48722">
        <ele>145</ele>
      </trkpt>
      <trkpt lat="45.16148" lon="0.48701">
        <ele>146</ele>
      </trkpt>
      <trkpt lat="45.16168" lon="0.48674">
        <ele>153</ele>
      </trkpt>
      <trkpt lat="45.16183" lon="0.48644">
        <ele>160</ele>
      </trkpt>
      <trkpt lat="45.16195" lon="0.48623">
        <ele>164</ele>
      </trkpt>
      <trkpt lat="45.16204" lon="0.48605">
        <ele>166</ele>
      </trkpt>
      <trkpt lat="45.16218" lon="0.48578">
        <ele>170</ele>
      </trkpt>
      <trkpt lat="45.16226" lon="0.48551">
        <ele>172</ele>
      </trkpt>
      <trkpt lat="45.16289" lon="0.48436">
        <ele>181</ele>
      </trkpt>
      <trkpt lat="45.16343" lon="0.48369">
        <ele>187</ele>
      </trkpt>
      <trkpt lat="45.16381" lon="0.48332">
        <ele>187</ele>
      </trkpt>
      <trkpt lat="45.16473" lon="0.48254">
        <ele>192</ele>
      </trkpt>
      <trkpt lat="45.16491" lon="0.48187">
        <ele>192</ele>
      </trkpt>
      <trkpt lat="45.16499" lon="0.48136">
        <ele>192</ele>
      </trkpt>
      <trkpt lat="45.16504" lon="0.48079">
        <ele>191</ele>
      </trkpt>
      <trkpt lat="45.16518" lon="0.47956">
        <ele>188</ele>
      </trkpt>
      <trkpt lat="45.16522" lon="0.47907">
        <ele>187</ele>
      </trkpt>
      <trkpt lat="45.16522" lon="0.47776">
        <ele>182</ele>
      </trkpt>
      <trkpt lat="45.16498" lon="0.47664">
        <ele>179</ele>
      </trkpt>
      <trkpt lat="45.16477" lon="0.47628">
        <ele>177</ele>
      </trkpt>
      <trkpt lat="45.16442" lon="0.47565">
        <ele>172</ele>
      </trkpt>
      <trkpt lat="45.16435" lon="0.4756">
        <ele>171</ele>
      </trkpt>
      <trkpt lat="45.16402" lon="0.47562">
        <ele>167</ele>
      </trkpt>
      <trkpt lat="45.16392" lon="0.47565">
        <ele>166</ele>
      </trkpt>
      <trkpt lat="45.1638" lon="0.47575">
        <ele>164</ele>
      </trkpt>
      <trkpt lat="45.16358" lon="0.47561">
        <ele>159</ele>
      </trkpt>
      <trkpt lat="45.16339" lon="0.47536">
        <ele>156</ele>
      </trkpt>
      <trkpt lat="45.16324" lon="0.47504">
        <ele>151</ele>
      </trkpt>
      <trkpt lat="45.16308" lon="0.47483">
        <ele>149</ele>
      </trkpt>
      <trkpt lat="45.163" lon="0.47478">
        <ele>147</ele>
      </trkpt>
      <trkpt lat="45.16277" lon="0.47473">
        <ele>140</ele>
      </trkpt>
      <trkpt lat="45.16263" lon="0.47464">
        <ele>137</ele>
      </trkpt>
      <trkpt lat="45.16238" lon="0.47472">
        <ele>133</ele>
      </trkpt>
      <trkpt lat="45.16226" lon="0.47455">
        <ele>133</ele>
      </trkpt>
      <trkpt lat="45.16229" lon="0.4742">
        <ele>133</ele>
      </trkpt>
      <trkpt lat="45.16225" lon="0.47388">
        <ele>133</ele>
      </trkpt>
      <trkpt lat="45.16234" lon="0.47301">
        <ele>134</ele>
      </trkpt>
      <trkpt lat="45.16232" lon="0.47244">
        <ele>132</ele>
      </trkpt>
      <trkpt lat="45.16215" lon="0.47118">
        <ele>128</ele>
      </trkpt>
      <trkpt lat="45.16192" lon="0.47012">
        <ele>122</ele>
      </trkpt>
      <trkpt lat="45.16185" lon="0.46985">
        <ele>121</ele>
      </trkpt>
      <trkpt lat="45.16186" lon="0.46973">
        <ele>121</ele>
      </trkpt>
      <trkpt lat="45.16201" lon="0.46935">
        <ele>120</ele>
      </trkpt>
      <trkpt lat="45.16204" lon="0.46898">
        <ele>118</ele>
      </trkpt>
      <trkpt lat="45.16203" lon="0.46844">
        <ele>117</ele>
      </trkpt>
      <trkpt lat="45.16206" lon="0.46814">
        <ele>117</ele>
      </trkpt>
      <trkpt lat="45.16199" lon="0.46779">
        <ele>116</ele>
      </trkpt>
      <trkpt lat="45.16187" lon="0.46728">
        <ele>116</ele>
      </trkpt>
      <trkpt lat="45.1617" lon="0.4669">
        <ele>115</ele>
      </trkpt>
      <trkpt lat="45.16128" lon="0.46616">
        <ele>111</ele>
      </trkpt>
      <trkpt lat="45.16098" lon="0.46578">
        <ele>108</ele>
      </trkpt>
      <trkpt lat="45.1609" lon="0.46577">
        <ele>108</ele>
      </trkpt>
      <trkpt lat="45.16091" lon="0.46586">
        <ele>108</ele>
      </trkpt>
      <trkpt lat="45.16096" lon="0.46605">
        <ele>108</ele>
      </trkpt>
      <trkpt lat="45.16098" lon="0.46631">
        <ele>113</ele>
      </trkpt>
      <trkpt lat="45.16109" lon="0.46683">
        <ele>119</ele>
      </trkpt>
      <trkpt lat="45.16108" lon="0.4673">
        <ele>127</ele>
      </trkpt>
      <trkpt lat="45.16086" lon="0.46835">
        <ele>133</ele>
      </trkpt>
      <trkpt lat="45.16079" lon="0.46848">
        <ele>133</ele>
      </trkpt>
      <trkpt lat="45.16066" lon="0.46855">
        <ele>135</ele>
      </trkpt>
      <trkpt lat="45.16062" lon="0.46863">
        <ele>136</ele>
      </trkpt>
      <trkpt lat="45.16063" lon="0.4693">
        <ele>140</ele>
      </trkpt>
      <trkpt lat="45.16059" lon="0.4696">
        <ele>143</ele>
      </trkpt>
      <trkpt lat="45.1605" lon="0.46983">
        <ele>144</ele>
      </trkpt>
      <trkpt lat="45.16028" lon="0.47018">
        <ele>145</ele>
      </trkpt>
      <trkpt lat="45.16014" lon="0.47026">
        <ele>148</ele>
      </trkpt>
      <trkpt lat="45.15983" lon="0.47004">
        <ele>151</ele>
      </trkpt>
      <trkpt lat="45.15961" lon="0.46999">
        <ele>155</ele>
      </trkpt>
      <trkpt lat="45.15948" lon="0.47004">
        <ele>155</ele>
      </trkpt>
      <trkpt lat="45.1594" lon="0.47016">
        <ele>156</ele>
      </trkpt>
      <trkpt lat="45.15922" lon="0.47032">
        <ele>158</ele>
      </trkpt>
      <trkpt lat="45.15907" lon="0.47038">
        <ele>161</ele>
      </trkpt>
      <trkpt lat="45.15884" lon="0.47058">
        <ele>163</ele>
      </trkpt>
      <trkpt lat="45.15878" lon="0.47076">
        <ele>163</ele>
      </trkpt>
      <trkpt lat="45.15883" lon="0.47091">
        <ele>163</ele>
      </trkpt>
      <trkpt lat="45.15884" lon="0.47103">
        <ele>163</ele>
      </trkpt>
      <trkpt lat="45.1588" lon="0.47124">
        <ele>164</ele>
      </trkpt>
      <trkpt lat="45.15864" lon="0.47132">
        <ele>163</ele>
      </trkpt>
      <trkpt lat="45.15853" lon="0.47099">
        <ele>161</ele>
      </trkpt>
      <trkpt lat="45.15824" lon="0.46996">
        <ele>156</ele>
      </trkpt>
      <trkpt lat="45.15804" lon="0.46876">
        <ele>152</ele>
      </trkpt>
      <trkpt lat="45.15788" lon="0.46818">
        <ele>149</ele>
      </trkpt>
      <trkpt lat="45.15779" lon="0.46782">
        <ele>147</ele>
      </trkpt>
      <trkpt lat="45.15756" lon="0.46703">
        <ele>137</ele>
      </trkpt>
      <trkpt lat="45.15749" lon="0.46632">
        <ele>130</ele>
      </trkpt>
      <trkpt lat="45.15741" lon="0.46596">
        <ele>125</ele>
      </trkpt>
      <trkpt lat="45.15741" lon="0.46574">
        <ele>120</ele>
      </trkpt>
      <trkpt lat="45.15747" lon="0.46555">
        <ele>112</ele>
      </trkpt>
      <trkpt lat="45.15729" lon="0.4654">
        <ele>113</ele>
      </trkpt>
      <trkpt lat="45.15691" lon="0.46531">
        <ele>114</ele>
      </trkpt>
      <trkpt lat="45.15676" lon="0.46528">
        <ele>116</ele>
      </trkpt>
      <trkpt lat="45.1565" lon="0.46517">
        <ele>119</ele>
      </trkpt>
      <trkpt lat="45.15623" lon="0.46513">
        <ele>121</ele>
      </trkpt>
      <trkpt lat="45.15592" lon="0.46526">
        <ele>125</ele>
      </trkpt>
      <trkpt lat="45.15578" lon="0.46535">
        <ele>127</ele>
      </trkpt>
      <trkpt lat="45.15553" lon="0.46532">
        <ele>128</ele>
      </trkpt>
      <trkpt lat="45.15543" lon="0.46537">
        <ele>129</ele>
      </trkpt>
      <trkpt lat="45.15524" lon="0.46559">
        <ele>132</ele>
      </trkpt>
      <trkpt lat="45.15515" lon="0.4658">
        <ele>134</ele>
      </trkpt>
      <trkpt lat="45.15507" lon="0.46609">
        <ele>135</ele>
      </trkpt>
      <trkpt lat="45.15486" lon="0.46664">
        <ele>139</ele>
      </trkpt>
      <trkpt lat="45.15482" lon="0.46702">
        <ele>142</ele>
      </trkpt>
      <trkpt lat="45.15473" lon="0.46743">
        <ele>144</ele>
      </trkpt>
      <trkpt lat="45.15455" lon="0.46782">
        <ele>146</ele>
      </trkpt>
      <trkpt lat="45.15435" lon="0.46818">
        <ele>152</ele>
      </trkpt>
      <trkpt lat="45.15418" lon="0.46867">
        <ele>153</ele>
      </trkpt>
      <trkpt lat="45.15376" lon="0.46936">
        <ele>156</ele>
      </trkpt>
      <trkpt lat="45.15362" lon="0.46985">
        <ele>157</ele>
      </trkpt>
      <trkpt lat="45.15353" lon="0.47004">
        <ele>159</ele>
      </trkpt>
      <trkpt lat="45.15338" lon="0.47059">
        <ele>161</ele>
      </trkpt>
      <trkpt lat="45.15313" lon="0.47179">
        <ele>159</ele>
      </trkpt>
      <trkpt lat="45.1529" lon="0.47253">
        <ele>162</ele>
      </trkpt>
      <trkpt lat="45.15269" lon="0.47312">
        <ele>166</ele>
      </trkpt>
      <trkpt lat="45.15236" lon="0.47369">
        <ele>177</ele>
      </trkpt>
      <trkpt lat="45.15221" lon="0.47419">
        <ele>182</ele>
      </trkpt>
      <trkpt lat="45.15231" lon="0.4743">
        <ele>184</ele>
      </trkpt>
      <trkpt lat="45.15284" lon="0.47457">
        <ele>185</ele>
      </trkpt>
      <trkpt lat="45.15291" lon="0.47464">
        <ele>185</ele>
      </trkpt>
      <trkpt lat="45.15301" lon="0.47489">
        <ele>187</ele>
      </trkpt>
      <trkpt lat="45.15309" lon="0.47494">
        <ele>188</ele>
      </trkpt>
      <trkpt lat="45.15362" lon="0.47509">
        <ele>187</ele>
      </trkpt>
      <trkpt lat="45.15367" lon="0.47513">
        <ele>187</ele>
      </trkpt>
      <trkpt lat="45.15374" lon="0.47535">
        <ele>185</ele>
      </trkpt>
      <trkpt lat="45.1538" lon="0.47574">
        <ele>186</ele>
      </trkpt>
      <trkpt lat="45.15382" lon="0.47655">
        <ele>189</ele>
      </trkpt>
      <trkpt lat="45.15393" lon="0.47692">
        <ele>190</ele>
      </trkpt>
      <trkpt lat="45.15398" lon="0.47718">
        <ele>190</ele>
      </trkpt>
      <trkpt lat="45.15398" lon="0.47767">
        <ele>188</ele>
      </trkpt>
      <trkpt lat="45.15396" lon="0.47788">
        <ele>188</ele>
      </trkpt>
      <trkpt lat="45.15391" lon="0.47804">
        <ele>179</ele>
      </trkpt>
      <trkpt lat="45.15402" lon="0.47806">
        <ele>178</ele>
      </trkpt>
      <trkpt lat="45.15415" lon="0.47812">
        <ele>178</ele>
      </trkpt>
      <trkpt lat="45.15426" lon="0.47816">
        <ele>177</ele>
      </trkpt>
      <trkpt lat="45.15444" lon="0.47824">
        <ele>177</ele>
      </trkpt>
      <trkpt lat="45.15448" lon="0.47824">
        <ele>177</ele>
      </trkpt>
      <trkpt lat="45.1546" lon="0.47828">
        <ele>177</ele>
      </trkpt>
      <trkpt lat="45.1547" lon="0.47834">
        <ele>177</ele>
      </trkpt>
      <trkpt lat="45.15483" lon="0.4784">
        <ele>176</ele>
      </trkpt>
      <trkpt lat="45.15508" lon="0.47851">
        <ele>188</ele>
      </trkpt>
      <trkpt lat="45.15591" lon="0.47913">
        <ele>187</ele>
      </trkpt>
      <trkpt lat="45.15595" lon="0.47922">
        <ele>187</ele>
      </trkpt>
      <trkpt lat="45.15588" lon="0.47931">
        <ele>187</ele>
      </trkpt>
      <trkpt lat="45.15561" lon="0.47953">
        <ele>186</ele>
      </trkpt>
      <trkpt lat="45.1553" lon="0.47997">
        <ele>185</ele>
      </trkpt>
      <trkpt lat="45.15512" lon="0.48038">
        <ele>181</ele>
      </trkpt>
      <trkpt lat="45.15505" lon="0.48043">
        <ele>180</ele>
      </trkpt>
      <trkpt lat="45.15497" lon="0.48042">
        <ele>179</ele>
      </trkpt>
      <trkpt lat="45.15478" lon="0.48028">
        <ele>178</ele>
      </trkpt>
      <trkpt lat="45.15401" lon="0.47986">
        <ele>175</ele>
      </trkpt>
      <trkpt lat="45.15367" lon="0.48006">
        <ele>173</ele>
      </trkpt>
      <trkpt lat="45.15345" lon="0.48008">
        <ele>172</ele>
      </trkpt>
      <trkpt lat="45.15315" lon="0.47999">
        <ele>176</ele>
      </trkpt>
      <trkpt lat="45.15283" lon="0.47999">
        <ele>179</ele>
      </trkpt>
      <trkpt lat="45.15255" lon="0.47988">
        <ele>184</ele>
      </trkpt>
      <trkpt lat="45.15211" lon="0.47964">
        <ele>184</ele>
      </trkpt>
      <trkpt lat="45.15194" lon="0.47941">
        <ele>183</ele>
      </trkpt>
      <trkpt lat="45.15175" lon="0.47899">
        <ele>182</ele>
      </trkpt>
      <trkpt lat="45.15164" lon="0.47884">
        <ele>182</ele>
      </trkpt>
      <trkpt lat="45.1513" lon="0.47858">
        <ele>181</ele>
      </trkpt>
      <trkpt lat="45.15074" lon="0.47823">
        <ele>178</ele>
      </trkpt>
      <trkpt lat="45.15034" lon="0.47811">
        <ele>175</ele>
      </trkpt>
      <trkpt lat="45.15018" lon="0.47821">
        <ele>174</ele>
      </trkpt>
      <trkpt lat="45.15007" lon="0.47834">
        <ele>174</ele>
      </trkpt>
      <trkpt lat="45.14962" lon="0.47924">
        <ele>171</ele>
      </trkpt>
      <trkpt lat="45.14949" lon="0.47964">
        <ele>170</ele>
      </trkpt>
      <trkpt lat="45.14932" lon="0.47995">
        <ele>169</ele>
      </trkpt>
      <trkpt lat="45.14904" lon="0.48009">
        <ele>170</ele>
      </trkpt>
      <trkpt lat="45.14868" lon="0.47999">
        <ele>169</ele>
      </trkpt>
      <trkpt lat="45.14856" lon="0.47989">
        <ele>168</ele>
      </trkpt>
      <trkpt lat="45.14841" lon="0.47969">
        <ele>167</ele>
      </trkpt>
      <trkpt lat="45.14827" lon="0.4794">
        <ele>164</ele>
      </trkpt>
      <trkpt lat="45.14815" lon="0.47896">
        <ele>163</ele>
      </trkpt>
      <trkpt lat="45.14781" lon="0.478">
        <ele>162</ele>
      </trkpt>
      <trkpt lat="45.14773" lon="0.47787">
        <ele>161</ele>
      </trkpt>
      <trkpt lat="45.14745" lon="0.47769">
        <ele>160</ele>
      </trkpt>
      <trkpt lat="45.14683" lon="0.47781">
        <ele>159</ele>
      </trkpt>
      <trkpt lat="45.14654" lon="0.47778">
        <ele>162</ele>
      </trkpt>
      <trkpt lat="45.14628" lon="0.47769">
        <ele>165</ele>
      </trkpt>
      <trkpt lat="45.14562" lon="0.47811">
        <ele>168</ele>
      </trkpt>
      <trkpt lat="45.14538" lon="0.47833">
        <ele>167</ele>
      </trkpt>
      <trkpt lat="45.14528" lon="0.4784">
        <ele>155</ele>
      </trkpt>
      <trkpt lat="45.14521" lon="0.47837">
        <ele>155</ele>
      </trkpt>
      <trkpt lat="45.14515" lon="0.47827">
        <ele>165</ele>
      </trkpt>
      <trkpt lat="45.14509" lon="0.47799">
        <ele>166</ele>
      </trkpt>
      <trkpt lat="45.14485" lon="0.47787">
        <ele>167</ele>
      </trkpt>
      <trkpt lat="45.14425" lon="0.47763">
        <ele>166</ele>
      </trkpt>
      <trkpt lat="45.14377" lon="0.47739">
        <ele>166</ele>
      </trkpt>
      <trkpt lat="45.14309" lon="0.47677">
        <ele>170</ele>
      </trkpt>
      <trkpt lat="45.14274" lon="0.47645">
        <ele>169</ele>
      </trkpt>
      <trkpt lat="45.14196" lon="0.47583">
        <ele>172</ele>
      </trkpt>
      <trkpt lat="45.14138" lon="0.47552">
        <ele>170</ele>
      </trkpt>
      <trkpt lat="45.14086" lon="0.47544">
        <ele>168</ele>
      </trkpt>
      <trkpt lat="45.14075" lon="0.47536">
        <ele>167</ele>
      </trkpt>
      <trkpt lat="45.14063" lon="0.47531">
        <ele>166</ele>
      </trkpt>
      <trkpt lat="45.14056" lon="0.47536">
        <ele>166</ele>
      </trkpt>
      <trkpt lat="45.14054" lon="0.4761">
        <ele>160</ele>
      </trkpt>
      <trkpt lat="45.14048" lon="0.47644">
        <ele>155</ele>
      </trkpt>
      <trkpt lat="45.14043" lon="0.47655">
        <ele>154</ele>
      </trkpt>
      <trkpt lat="45.14031" lon="0.47669">
        <ele>152</ele>
      </trkpt>
      <trkpt lat="45.14008" lon="0.47682">
        <ele>149</ele>
      </trkpt>
      <trkpt lat="45.13987" lon="0.47689">
        <ele>148</ele>
      </trkpt>
      <trkpt lat="45.13935" lon="0.47678">
        <ele>147</ele>
      </trkpt>
      <trkpt lat="45.13928" lon="0.47688">
        <ele>147</ele>
      </trkpt>
      <trkpt lat="45.1391" lon="0.47726">
        <ele>146</ele>
      </trkpt>
      <trkpt lat="45.13897" lon="0.47747">
        <ele>147</ele>
      </trkpt>
      <trkpt lat="45.13889" lon="0.47755">
        <ele>148</ele>
      </trkpt>
      <trkpt lat="45.13856" lon="0.47771">
        <ele>150</ele>
      </trkpt>
      <trkpt lat="45.13827" lon="0.47853">
        <ele>150</ele>
      </trkpt>
      <trkpt lat="45.13824" lon="0.47877">
        <ele>150</ele>
      </trkpt>
      <trkpt lat="45.13829" lon="0.47988">
        <ele>150</ele>
      </trkpt>
      <trkpt lat="45.13829" lon="0.4811">
        <ele>148</ele>
      </trkpt>
      <trkpt lat="45.13833" lon="0.48137">
        <ele>147</ele>
      </trkpt>
      <trkpt lat="45.13857" lon="0.48185">
        <ele>143</ele>
      </trkpt>
      <trkpt lat="45.13866" lon="0.48212">
        <ele>142</ele>
      </trkpt>
      <trkpt lat="45.13878" lon="0.48294">
        <ele>139</ele>
      </trkpt>
      <trkpt lat="45.13888" lon="0.48346">
        <ele>137</ele>
      </trkpt>
      <trkpt lat="45.139" lon="0.48381">
        <ele>135</ele>
      </trkpt>
      <trkpt lat="45.13924" lon="0.48446">
        <ele>131</ele>
      </trkpt>
      <trkpt lat="45.13939" lon="0.48455">
        <ele>127</ele>
      </trkpt>
      <trkpt lat="45.13953" lon="0.48478">
        <ele>126</ele>
      </trkpt>
      <trkpt lat="45.13963" lon="0.48513">
        <ele>123</ele>
      </trkpt>
      <trkpt lat="45.13971" lon="0.48548">
        <ele>120</ele>
      </trkpt>
      <trkpt lat="45.13987" lon="0.48597">
        <ele>117</ele>
      </trkpt>
      <trkpt lat="45.13998" lon="0.48647">
        <ele>112</ele>
      </trkpt>
      <trkpt lat="45.14026" lon="0.48707">
        <ele>107</ele>
      </trkpt>
      <trkpt lat="45.14041" lon="0.48765">
        <ele>107</ele>
      </trkpt>
      <trkpt lat="45.14049" lon="0.48772">
        <ele>109</ele>
      </trkpt>
      <trkpt lat="45.14063" lon="0.48796">
        <ele>110</ele>
      </trkpt>
      <trkpt lat="45.14073" lon="0.48798">
        <ele>111</ele>
      </trkpt>
      <trkpt lat="45.1413" lon="0.4877">
        <ele>120</ele>
      </trkpt>
      <trkpt lat="45.14147" lon="0.48766">
        <ele>123</ele>
      </trkpt>
      <trkpt lat="45.14197" lon="0.48745">
        <ele>129</ele>
      </trkpt>
      <trkpt lat="45.1425" lon="0.48731">
        <ele>139</ele>
      </trkpt>
      <trkpt lat="45.14277" lon="0.48721">
        <ele>140</ele>
      </trkpt>
      <trkpt lat="45.14297" lon="0.48719">
        <ele>143</ele>
      </trkpt>
      <trkpt lat="45.14352" lon="0.48711">
        <ele>153</ele>
      </trkpt>
      <trkpt lat="45.14385" lon="0.48709">
        <ele>155</ele>
      </trkpt>
      <trkpt lat="45.14444" lon="0.48714">
        <ele>164</ele>
      </trkpt>
      <trkpt lat="45.14456" lon="0.48718">
        <ele>165</ele>
      </trkpt>
      <trkpt lat="45.14489" lon="0.48746">
        <ele>171</ele>
      </trkpt>
      <trkpt lat="45.14497" lon="0.4876">
        <ele>172</ele>
      </trkpt>
      <trkpt lat="45.14502" lon="0.48771">
        <ele>173</ele>
      </trkpt>
      <trkpt lat="45.14504" lon="0.48797">
        <ele>175</ele>
      </trkpt>
      <trkpt lat="45.14499" lon="0.48816">
        <ele>178</ele>
      </trkpt>
      <trkpt lat="45.14491" lon="0.4883">
        <ele>179</ele>
      </trkpt>
      <trkpt lat="45.14478" lon="0.48837">
        <ele>181</ele>
      </trkpt>
      <trkpt lat="45.14453" lon="0.48833">
        <ele>185</ele>
      </trkpt>
      <trkpt lat="45.14443" lon="0.48841">
        <ele>185</ele>
      </trkpt>
      <trkpt lat="45.14438" lon="0.48852">
        <ele>186</ele>
      </trkpt>
      <trkpt lat="45.14442" lon="0.48866">
        <ele>187</ele>
      </trkpt>
      <trkpt lat="45.1445" lon="0.4889">
        <ele>189</ele>
      </trkpt>
      <trkpt lat="45.14455" lon="0.48922">
        <ele>192</ele>
      </trkpt>
      <trkpt lat="45.14456" lon="0.48942">
        <ele>192</ele>
      </trkpt>
      <trkpt lat="45.14447" lon="0.48989">
        <ele>194</ele>
      </trkpt>
      <trkpt lat="45.14447" lon="0.49017">
        <ele>195</ele>
      </trkpt>
      <trkpt lat="45.14462" lon="0.49052">
        <ele>193</ele>
      </trkpt>
      <trkpt lat="45.14493" lon="0.49088">
        <ele>192</ele>
      </trkpt>
      <trkpt lat="45.14492" lon="0.49091">
        <ele>191</ele>
      </trkpt>
      <trkpt lat="45.14433" lon="0.49113">
        <ele>185</ele>
      </trkpt>
      <trkpt lat="45.14379" lon="0.49152">
        <ele>182</ele>
      </trkpt>
      <trkpt lat="45.1436" lon="0.49183">
        <ele>181</ele>
      </trkpt>
      <trkpt lat="45.14352" lon="0.49206">
        <ele>179</ele>
      </trkpt>
      <trkpt lat="45.14353" lon="0.49211">
        <ele>178</ele>
      </trkpt>
      <trkpt lat="45.14384" lon="0.49188">
        <ele>175</ele>
      </trkpt>
      <trkpt lat="45.14412" lon="0.49183">
        <ele>173</ele>
      </trkpt>
      <trkpt lat="45.14435" lon="0.49187">
        <ele>171</ele>
      </trkpt>
      <trkpt lat="45.14457" lon="0.4919">
        <ele>169</ele>
      </trkpt>
      <trkpt lat="45.14462" lon="0.49198">
        <ele>167</ele>
      </trkpt>
      <trkpt lat="45.14467" lon="0.49224">
        <ele>163</ele>
      </trkpt>
      <trkpt lat="45.14476" lon="0.49321">
        <ele>158</ele>
      </trkpt>
      <trkpt lat="45.1449" lon="0.49389">
        <ele>155</ele>
      </trkpt>
      <trkpt lat="45.14491" lon="0.49436">
        <ele>154</ele>
      </trkpt>
      <trkpt lat="45.14498" lon="0.49481">
        <ele>153</ele>
      </trkpt>
      <trkpt lat="45.14516" lon="0.49517">
        <ele>151</ele>
      </trkpt>
      <trkpt lat="45.1452" lon="0.49534">
        <ele>150</ele>
      </trkpt>
      <trkpt lat="45.14524" lon="0.49609">
        <ele>149</ele>
      </trkpt>
      <trkpt lat="45.14525" lon="0.4966">
        <ele>146</ele>
      </trkpt>
      <trkpt lat="45.14528" lon="0.49674">
        <ele>145</ele>
      </trkpt>
      <trkpt lat="45.14557" lon="0.49669">
        <ele>141</ele>
      </trkpt>
      <trkpt lat="45.14574" lon="0.49654">
        <ele>138</ele>
      </trkpt>
      <trkpt lat="45.14577" lon="0.49658">
        <ele>133</ele>
      </trkpt>
      <trkpt lat="45.14579" lon="0.497">
        <ele>130</ele>
      </trkpt>
      <trkpt lat="45.14573" lon="0.49774">
        <ele>134</ele>
      </trkpt>
      <trkpt lat="45.14567" lon="0.49792">
        <ele>135</ele>
      </trkpt>
      <trkpt lat="45.14559" lon="0.49804">
        <ele>123</ele>
      </trkpt>
      <trkpt lat="45.1455" lon="0.49808">
        <ele>124</ele>
      </trkpt>
      <trkpt lat="45.14543" lon="0.49808">
        <ele>124</ele>
      </trkpt>
      <trkpt lat="45.14536" lon="0.4981">
        <ele>124</ele>
      </trkpt>
      <trkpt lat="45.14532" lon="0.49814">
        <ele>124</ele>
      </trkpt>
      <trkpt lat="45.14528" lon="0.49819">
        <ele>124</ele>
      </trkpt>
      <trkpt lat="45.14524" lon="0.49825">
        <ele>124</ele>
      </trkpt>
      <trkpt lat="45.14521" lon="0.49831">
        <ele>124</ele>
      </trkpt>
      <trkpt lat="45.14514" lon="0.49838">
        <ele>124</ele>
      </trkpt>
      <trkpt lat="45.14508" lon="0.49843">
        <ele>123</ele>
      </trkpt>
      <trkpt lat="45.14496" lon="0.49854">
        <ele>121</ele>
      </trkpt>
      <trkpt lat="45.14484" lon="0.49858">
        <ele>119</ele>
      </trkpt>
      <trkpt lat="45.14474" lon="0.49861">
        <ele>136</ele>
      </trkpt>
      <trkpt lat="45.14419" lon="0.49851">
        <ele>129</ele>
      </trkpt>
      <trkpt lat="45.14391" lon="0.49853">
        <ele>126</ele>
      </trkpt>
      <trkpt lat="45.14362" lon="0.49865">
        <ele>123</ele>
      </trkpt>
      <trkpt lat="45.1434" lon="0.49882">
        <ele>124</ele>
      </trkpt>
      <trkpt lat="45.14325" lon="0.499">
        <ele>124</ele>
      </trkpt>
      <trkpt lat="45.14337" lon="0.50031">
        <ele>124</ele>
      </trkpt>
      <trkpt lat="45.14331" lon="0.50128">
        <ele>122</ele>
      </trkpt>
      <trkpt lat="45.14318" lon="0.50179">
        <ele>120</ele>
      </trkpt>
      <trkpt lat="45.143" lon="0.50222">
        <ele>118</ele>
      </trkpt>
      <trkpt lat="45.14296" lon="0.50234">
        <ele>114</ele>
      </trkpt>
      <trkpt lat="45.14303" lon="0.50241">
        <ele>99</ele>
      </trkpt>
      <trkpt lat="45.1431" lon="0.50249">
        <ele>97</ele>
      </trkpt>
      <trkpt lat="45.14316" lon="0.50256">
        <ele>96</ele>
      </trkpt>
      <trkpt lat="45.1432" lon="0.50261">
        <ele>96</ele>
      </trkpt>
      <trkpt lat="45.14326" lon="0.5027">
        <ele>95</ele>
      </trkpt>
      <trkpt lat="45.14337" lon="0.50282">
        <ele>93</ele>
      </trkpt>
      <trkpt lat="45.14361" lon="0.50314">
        <ele>108</ele>
      </trkpt>
      <trkpt lat="45.14376" lon="0.5033">
        <ele>107</ele>
      </trkpt>
      <trkpt lat="45.14403" lon="0.50351">
        <ele>105</ele>
      </trkpt>
      <trkpt lat="45.14407" lon="0.50362">
        <ele>104</ele>
      </trkpt>
      <trkpt lat="45.144" lon="0.50381">
        <ele>102</ele>
      </trkpt>
      <trkpt lat="45.1439" lon="0.50398">
        <ele>101</ele>
      </trkpt>
      <trkpt lat="45.14366" lon="0.50423">
        <ele>102</ele>
      </trkpt>
      <trkpt lat="45.14317" lon="0.50453">
        <ele>100</ele>
      </trkpt>
      <trkpt lat="45.1426" lon="0.50496">
        <ele>99</ele>
      </trkpt>
      <trkpt lat="45.14242" lon="0.50512">
        <ele>99</ele>
      </trkpt>
      <trkpt lat="45.14214" lon="0.5055">
        <ele>97</ele>
      </trkpt>
      <trkpt lat="45.14187" lon="0.50565">
        <ele>97</ele>
      </trkpt>
      <trkpt lat="45.14162" lon="0.50603">
        <ele>97</ele>
      </trkpt>
      <trkpt lat="45.14141" lon="0.50648">
        <ele>96</ele>
      </trkpt>
      <trkpt lat="45.14129" lon="0.50664">
        <ele>96</ele>
      </trkpt>
      <trkpt lat="45.14111" lon="0.50679">
        <ele>96</ele>
      </trkpt>
      <trkpt lat="45.14093" lon="0.50701">
        <ele>94</ele>
      </trkpt>
      <trkpt lat="45.14098" lon="0.50726">
        <ele>94</ele>
      </trkpt>
      <trkpt lat="45.14104" lon="0.50743">
        <ele>94</ele>
      </trkpt>
      <trkpt lat="45.14118" lon="0.5076">
        <ele>94</ele>
      </trkpt>
      <trkpt lat="45.14143" lon="0.50781">
        <ele>94</ele>
      </trkpt>
      <trkpt lat="45.14165" lon="0.50788">
        <ele>94</ele>
      </trkpt>
      <trkpt lat="45.14171" lon="0.50811">
        <ele>96</ele>
      </trkpt>
      <trkpt lat="45.14167" lon="0.50835">
        <ele>97</ele>
      </trkpt>
      <trkpt lat="45.14128" lon="0.50916">
        <ele>96</ele>
      </trkpt>
      <trkpt lat="45.14105" lon="0.50976">
        <ele>96</ele>
      </trkpt>
      <trkpt lat="45.14089" lon="0.51004">
        <ele>96</ele>
      </trkpt>
      <trkpt lat="45.14068" lon="0.51054">
        <ele>98</ele>
      </trkpt>
      <trkpt lat="45.14059" lon="0.51087">
        <ele>97</ele>
      </trkpt>
      <trkpt lat="45.14056" lon="0.51142">
        <ele>97</ele>
      </trkpt>
      <trkpt lat="45.14036" lon="0.51181">
        <ele>97</ele>
      </trkpt>
      <trkpt lat="45.14036" lon="0.51199">
        <ele>96</ele>
      </trkpt>
      <trkpt lat="45.14105" lon="0.51358">
        <ele>95</ele>
      </trkpt>
      <trkpt lat="45.14116" lon="0.51378">
        <ele>94</ele>
      </trkpt>
      <trkpt lat="45.14132" lon="0.51355">
        <ele>94</ele>
      </trkpt>
      <trkpt lat="45.14138" lon="0.51352">
        <ele>94</ele>
      </trkpt>
      <trkpt lat="45.14158" lon="0.51371">
        <ele>94</ele>
      </trkpt>
      <trkpt lat="45.14168" lon="0.51386">
        <ele>94</ele>
      </trkpt>
      <trkpt lat="45.14147" lon="0.5143">
        <ele>94</ele>
      </trkpt>
      <trkpt lat="45.14142" lon="0.51449">
        <ele>93</ele>
      </trkpt>
      <trkpt lat="45.14148" lon="0.51468">
        <ele>93</ele>
      </trkpt>
      <trkpt lat="45.14167" lon="0.51511">
        <ele>93</ele>
      </trkpt>
      <trkpt lat="45.14186" lon="0.51538">
        <ele>92</ele>
      </trkpt>
      <trkpt lat="45.14189" lon="0.51543">
        <ele>92</ele>
      </trkpt>
      <trkpt lat="45.14212" lon="0.51546">
        <ele>93</ele>
      </trkpt>
      <trkpt lat="45.14254" lon="0.51583">
        <ele>93</ele>
      </trkpt>
      <trkpt lat="45.14267" lon="0.51613">
        <ele>94</ele>
      </trkpt>
      <trkpt lat="45.14285" lon="0.51674">
        <ele>94</ele>
      </trkpt>
      <trkpt lat="45.14293" lon="0.51701">
        <ele>93</ele>
      </trkpt>
      <trkpt lat="45.14302" lon="0.51767">
        <ele>92</ele>
      </trkpt>
      <trkpt lat="45.14322" lon="0.51831">
        <ele>93</ele>
      </trkpt>
      <trkpt lat="45.14335" lon="0.51913">
        <ele>93</ele>
      </trkpt>
      <trkpt lat="45.1434" lon="0.51933">
        <ele>93</ele>
      </trkpt>
      <trkpt lat="45.14361" lon="0.51973">
        <ele>92</ele>
      </trkpt>
      <trkpt lat="45.14381" lon="0.51995">
        <ele>91</ele>
      </trkpt>
      <trkpt lat="45.1439" lon="0.51995">
        <ele>91</ele>
      </trkpt>
      <trkpt lat="45.14418" lon="0.51964">
        <ele>94</ele>
      </trkpt>
      <trkpt lat="45.14448" lon="0.51937">
        <ele>96</ele>
      </trkpt>
    </trkseg>
  </trk>
  <trk>
    <name><![CDATA[AST 30 NOIR]]></name>
    <trkseg>
      <trkpt lat="45.14452" lon="0.51937">
        <ele>72</ele>
      </trkpt>
      <trkpt lat="45.14495" lon="0.5186">
        <ele>74</ele>
      </trkpt>
      <trkpt lat="45.14554" lon="0.51828">
        <ele>75</ele>
      </trkpt>
      <trkpt lat="45.14577" lon="0.51857">
        <ele>75</ele>
      </trkpt>
      <trkpt lat="45.14553" lon="0.51969">
        <ele>73</ele>
      </trkpt>
      <trkpt lat="45.14447" lon="0.5211">
        <ele>70</ele>
      </trkpt>
      <trkpt lat="45.1439" lon="0.52126">
        <ele>70</ele>
      </trkpt>
      <trkpt lat="45.14282" lon="0.5228">
        <ele>77.662521</ele>
      </trkpt>
      <trkpt lat="45.14306" lon="0.52321">
        <ele>78</ele>
      </trkpt>
      <trkpt lat="45.14257" lon="0.52471">
        <ele>65</ele>
      </trkpt>
      <trkpt lat="45.14285" lon="0.52535">
        <ele>75.01458</ele>
      </trkpt>
      <trkpt lat="45.14306" lon="0.52594">
        <ele>74.698128</ele>
      </trkpt>
      <trkpt lat="45.14325" lon="0.5266">
        <ele>73.955139</ele>
      </trkpt>
      <trkpt lat="45.14291" lon="0.5277">
        <ele>72.951889</ele>
      </trkpt>
      <trkpt lat="45.14269" lon="0.52821">
        <ele>62</ele>
      </trkpt>
      <trkpt lat="45.1419" lon="0.52959">
        <ele>60</ele>
      </trkpt>
      <trkpt lat="45.14156" lon="0.53019">
        <ele>67.294373</ele>
      </trkpt>
      <trkpt lat="45.14349" lon="0.52993">
        <ele>68.280258</ele>
      </trkpt>
      <trkpt lat="45.14324" lon="0.53099">
        <ele>63.24501</ele>
      </trkpt>
      <trkpt lat="45.14323" lon="0.53201">
        <ele>63</ele>
      </trkpt>
      <trkpt lat="45.14362" lon="0.53263">
        <ele>63</ele>
      </trkpt>
      <trkpt lat="45.14374" lon="0.53295">
        <ele>63</ele>
      </trkpt>
      <trkpt lat="45.14332" lon="0.53318">
        <ele>63</ele>
      </trkpt>
      <trkpt lat="45.14355" lon="0.53362">
        <ele>63.401875</ele>
      </trkpt>
      <trkpt lat="45.14364" lon="0.534">
        <ele>64.001877</ele>
      </trkpt>
      <trkpt lat="45.1437" lon="0.53441">
        <ele>64.651878</ele>
      </trkpt>
      <trkpt lat="45.14283" lon="0.53495">
        <ele>55</ele>
      </trkpt>
      <trkpt lat="45.14184" lon="0.53505">
        <ele>55</ele>
      </trkpt>
      <trkpt lat="45.13992" lon="0.53483">
        <ele>55</ele>
      </trkpt>
      <trkpt lat="45.13886" lon="0.53547">
        <ele>55</ele>
      </trkpt>
      <trkpt lat="45.13787" lon="0.53719">
        <ele>57</ele>
      </trkpt>
      <trkpt lat="45.13732" lon="0.53774">
        <ele>58</ele>
      </trkpt>
      <trkpt lat="45.13634" lon="0.53767">
        <ele>58</ele>
      </trkpt>
      <trkpt lat="45.13571" lon="0.53767">
        <ele>59</ele>
      </trkpt>
      <trkpt lat="45.13509" lon="0.53789">
        <ele>60</ele>
      </trkpt>
      <trkpt lat="45.13461" lon="0.5383">
        <ele>61</ele>
      </trkpt>
      <trkpt lat="45.13385" lon="0.53985">
        <ele>61</ele>
      </trkpt>
      <trkpt lat="45.13346" lon="0.54125">
        <ele>66</ele>
      </trkpt>
      <trkpt lat="45.13223" lon="0.54329">
        <ele>68</ele>
      </trkpt>
      <trkpt lat="45.13195" lon="0.54404">
        <ele>78</ele>
      </trkpt>
      <trkpt lat="45.13149" lon="0.54458">
        <ele>74</ele>
      </trkpt>
      <trkpt lat="45.13113" lon="0.54427">
        <ele>74</ele>
      </trkpt>
      <trkpt lat="45.13073" lon="0.54382">
        <ele>65</ele>
      </trkpt>
      <trkpt lat="45.13017" lon="0.54391">
        <ele>65</ele>
      </trkpt>
      <trkpt lat="45.12951" lon="0.54396">
        <ele>66</ele>
      </trkpt>
      <trkpt lat="45.12837" lon="0.54374">
        <ele>68</ele>
      </trkpt>
      <trkpt lat="45.12774" lon="0.54343">
        <ele>69</ele>
      </trkpt>
      <trkpt lat="45.12718" lon="0.54341">
        <ele>79</ele>
      </trkpt>
      <trkpt lat="45.1268" lon="0.54288">
        <ele>84</ele>
      </trkpt>
      <trkpt lat="45.1264" lon="0.54223">
        <ele>89</ele>
      </trkpt>
      <trkpt lat="45.126" lon="0.54261">
        <ele>94</ele>
      </trkpt>
      <trkpt lat="45.12556" lon="0.54214">
        <ele>94</ele>
      </trkpt>
      <trkpt lat="45.12494" lon="0.5419">
        <ele>104</ele>
      </trkpt>
      <trkpt lat="45.12435" lon="0.54171">
        <ele>114</ele>
      </trkpt>
      <trkpt lat="45.12263" lon="0.54181">
        <ele>141</ele>
      </trkpt>
      <trkpt lat="45.12196" lon="0.54174">
        <ele>145</ele>
      </trkpt>
      <trkpt lat="45.12143" lon="0.54136">
        <ele>148</ele>
      </trkpt>
      <trkpt lat="45.121" lon="0.54087">
        <ele>151</ele>
      </trkpt>
      <trkpt lat="45.12048" lon="0.54065">
        <ele>153</ele>
      </trkpt>
      <trkpt lat="45.11883" lon="0.53986">
        <ele>158</ele>
      </trkpt>
      <trkpt lat="45.11769" lon="0.53974">
        <ele>158</ele>
      </trkpt>
      <trkpt lat="45.11575" lon="0.53924">
        <ele>156</ele>
      </trkpt>
      <trkpt lat="45.11473" lon="0.53915">
        <ele>157</ele>
      </trkpt>
      <trkpt lat="45.11356" lon="0.53952">
        <ele>160</ele>
      </trkpt>
      <trkpt lat="45.11218" lon="0.54057">
        <ele>168</ele>
      </trkpt>
      <trkpt lat="45.11145" lon="0.54092">
        <ele>171</ele>
      </trkpt>
      <trkpt lat="45.11091" lon="0.54105">
        <ele>173</ele>
      </trkpt>
      <trkpt lat="45.1103" lon="0.54113">
        <ele>175</ele>
      </trkpt>
      <trkpt lat="45.10973" lon="0.54107">
        <ele>173</ele>
      </trkpt>
      <trkpt lat="45.10795" lon="0.54072">
        <ele>170</ele>
      </trkpt>
      <trkpt lat="45.10599" lon="0.54134">
        <ele>175</ele>
      </trkpt>
      <trkpt lat="45.10521" lon="0.5413">
        <ele>176</ele>
      </trkpt>
      <trkpt lat="45.10369" lon="0.54079">
        <ele>179</ele>
      </trkpt>
      <trkpt lat="45.10289" lon="0.54081">
        <ele>184</ele>
      </trkpt>
      <trkpt lat="45.10214" lon="0.54074">
        <ele>183</ele>
      </trkpt>
      <trkpt lat="45.10151" lon="0.54064">
        <ele>181</ele>
      </trkpt>
      <trkpt lat="45.10077" lon="0.54011">
        <ele>173</ele>
      </trkpt>
      <trkpt lat="45.10034" lon="0.54045">
        <ele>165</ele>
      </trkpt>
      <trkpt lat="45.09956" lon="0.54051">
        <ele>165</ele>
      </trkpt>
      <trkpt lat="45.0975" lon="0.53994">
        <ele>161</ele>
      </trkpt>
      <trkpt lat="45.09594" lon="0.53989">
        <ele>167</ele>
      </trkpt>
      <trkpt lat="45.09447" lon="0.53987">
        <ele>160</ele>
      </trkpt>
      <trkpt lat="45.09312" lon="0.54078">
        <ele>148</ele>
      </trkpt>
      <trkpt lat="45.09148" lon="0.54142">
        <ele>120</ele>
      </trkpt>
      <trkpt lat="45.09007" lon="0.54159">
        <ele>90</ele>
      </trkpt>
      <trkpt lat="45.0883" lon="0.54191">
        <ele>72</ele>
      </trkpt>
      <trkpt lat="45.08712" lon="0.54174">
        <ele>69</ele>
      </trkpt>
      <trkpt lat="45.0849" lon="0.54139">
        <ele>65</ele>
      </trkpt>
      <trkpt lat="45.08366" lon="0.54136">
        <ele>65</ele>
      </trkpt>
      <trkpt lat="45.08324" lon="0.53979">
        <ele>68</ele>
      </trkpt>
      <trkpt lat="45.08281" lon="0.54003">
        <ele>72</ele>
      </trkpt>
      <trkpt lat="45.08234" lon="0.54059">
        <ele>90</ele>
      </trkpt>
      <trkpt lat="45.08233" lon="0.54183">
        <ele>98</ele>
      </trkpt>
      <trkpt lat="45.08191" lon="0.54324">
        <ele>109</ele>
      </trkpt>
      <trkpt lat="45.08164" lon="0.54381">
        <ele>116</ele>
      </trkpt>
      <trkpt lat="45.0811" lon="0.54414">
        <ele>125</ele>
      </trkpt>
      <trkpt lat="45.08074" lon="0.54492">
        <ele>131</ele>
      </trkpt>
      <trkpt lat="45.0804" lon="0.54601">
        <ele>138</ele>
      </trkpt>
      <trkpt lat="45.08058" lon="0.54665">
        <ele>141</ele>
      </trkpt>
      <trkpt lat="45.08064" lon="0.54751">
        <ele>138</ele>
      </trkpt>
      <trkpt lat="45.08017" lon="0.54893">
        <ele>134</ele>
      </trkpt>
      <trkpt lat="45.07974" lon="0.5497">
        <ele>142</ele>
      </trkpt>
      <trkpt lat="45.07946" lon="0.55082">
        <ele>146</ele>
      </trkpt>
      <trkpt lat="45.07806" lon="0.55204">
        <ele>156</ele>
      </trkpt>
      <trkpt lat="45.07765" lon="0.55248">
        <ele>163</ele>
      </trkpt>
      <trkpt lat="45.07663" lon="0.55294">
        <ele>156</ele>
      </trkpt>
      <trkpt lat="45.07587" lon="0.55356">
        <ele>144</ele>
      </trkpt>
      <trkpt lat="45.07584" lon="0.55455">
        <ele>148</ele>
      </trkpt>
      <trkpt lat="45.0756" lon="0.55486">
        <ele>154</ele>
      </trkpt>
      <trkpt lat="45.0752" lon="0.55451">
        <ele>161</ele>
      </trkpt>
      <trkpt lat="45.07452" lon="0.55398">
        <ele>167</ele>
      </trkpt>
      <trkpt lat="45.07389" lon="0.55344">
        <ele>180</ele>
      </trkpt>
      <trkpt lat="45.07334" lon="0.55259">
        <ele>191</ele>
      </trkpt>
      <trkpt lat="45.0724" lon="0.55454">
        <ele>190</ele>
      </trkpt>
      <trkpt lat="45.07157" lon="0.55455">
        <ele>186</ele>
      </trkpt>
      <trkpt lat="45.07071" lon="0.55521">
        <ele>182</ele>
      </trkpt>
      <trkpt lat="45.07008" lon="0.55588">
        <ele>178</ele>
      </trkpt>
      <trkpt lat="45.06951" lon="0.55667">
        <ele>177</ele>
      </trkpt>
      <trkpt lat="45.07021" lon="0.55722">
        <ele>177</ele>
      </trkpt>
      <trkpt lat="45.07032" lon="0.5581">
        <ele>172</ele>
      </trkpt>
      <trkpt lat="45.0707" lon="0.55944">
        <ele>166</ele>
      </trkpt>
      <trkpt lat="45.07077" lon="0.56016">
        <ele>164</ele>
      </trkpt>
      <trkpt lat="45.07052" lon="0.56129">
        <ele>157</ele>
      </trkpt>
      <trkpt lat="45.07101" lon="0.56231">
        <ele>146</ele>
      </trkpt>
      <trkpt lat="45.07107" lon="0.56311">
        <ele>138</ele>
      </trkpt>
      <trkpt lat="45.07179" lon="0.5628">
        <ele>129</ele>
      </trkpt>
      <trkpt lat="45.07304" lon="0.56233">
        <ele>117</ele>
      </trkpt>
      <trkpt lat="45.07346" lon="0.56204">
        <ele>115</ele>
      </trkpt>
      <trkpt lat="45.07394" lon="0.56068">
        <ele>107</ele>
      </trkpt>
      <trkpt lat="45.07467" lon="0.5606">
        <ele>102</ele>
      </trkpt>
      <trkpt lat="45.07517" lon="0.56071">
        <ele>99</ele>
      </trkpt>
      <trkpt lat="45.07587" lon="0.561">
        <ele>95</ele>
      </trkpt>
      <trkpt lat="45.07673" lon="0.56163">
        <ele>92</ele>
      </trkpt>
      <trkpt lat="45.07751" lon="0.56112">
        <ele>89</ele>
      </trkpt>
      <trkpt lat="45.07807" lon="0.56103">
        <ele>87</ele>
      </trkpt>
      <trkpt lat="45.07899" lon="0.56093">
        <ele>82</ele>
      </trkpt>
      <trkpt lat="45.08012" lon="0.56112">
        <ele>77</ele>
      </trkpt>
      <trkpt lat="45.08013" lon="0.55944">
        <ele>83</ele>
      </trkpt>
      <trkpt lat="45.08055" lon="0.55698">
        <ele>83</ele>
      </trkpt>
      <trkpt lat="45.08071" lon="0.55639">
        <ele>79</ele>
      </trkpt>
      <trkpt lat="45.08303" lon="0.55711">
        <ele>69</ele>
      </trkpt>
      <trkpt lat="45.08429" lon="0.55792">
        <ele>69</ele>
      </trkpt>
      <trkpt lat="45.08495" lon="0.5584">
        <ele>69</ele>
      </trkpt>
      <trkpt lat="45.08565" lon="0.5584">
        <ele>70</ele>
      </trkpt>
      <trkpt lat="45.08614" lon="0.55858">
        <ele>74</ele>
      </trkpt>
      <trkpt lat="45.08708" lon="0.55912">
        <ele>78</ele>
      </trkpt>
      <trkpt lat="45.08892" lon="0.56057">
        <ele>86</ele>
      </trkpt>
      <trkpt lat="45.08968" lon="0.56101">
        <ele>92</ele>
      </trkpt>
      <trkpt lat="45.09048" lon="0.56185">
        <ele>99</ele>
      </trkpt>
      <trkpt lat="45.09101" lon="0.5623">
        <ele>104</ele>
      </trkpt>
      <trkpt lat="45.09235" lon="0.56306">
        <ele>124</ele>
      </trkpt>
      <trkpt lat="45.09326" lon="0.5636">
        <ele>140</ele>
      </trkpt>
      <trkpt lat="45.0939" lon="0.56388">
        <ele>151</ele>
      </trkpt>
      <trkpt lat="45.09443" lon="0.56413">
        <ele>158</ele>
      </trkpt>
      <trkpt lat="45.09583" lon="0.56294">
        <ele>174</ele>
      </trkpt>
      <trkpt lat="45.09658" lon="0.56242">
        <ele>181</ele>
      </trkpt>
      <trkpt lat="45.09738" lon="0.5616">
        <ele>183</ele>
      </trkpt>
      <trkpt lat="45.09837" lon="0.56079">
        <ele>185</ele>
      </trkpt>
      <trkpt lat="45.09926" lon="0.55986">
        <ele>201</ele>
      </trkpt>
      <trkpt lat="45.10008" lon="0.56144">
        <ele>195</ele>
      </trkpt>
      <trkpt lat="45.10067" lon="0.56249">
        <ele>197</ele>
      </trkpt>
      <trkpt lat="45.10166" lon="0.56429">
        <ele>192</ele>
      </trkpt>
      <trkpt lat="45.10324" lon="0.56732">
        <ele>180</ele>
      </trkpt>
      <trkpt lat="45.1036" lon="0.56724">
        <ele>178</ele>
      </trkpt>
      <trkpt lat="45.10363" lon="0.56653">
        <ele>175</ele>
      </trkpt>
      <trkpt lat="45.10362" lon="0.56574">
        <ele>179</ele>
      </trkpt>
      <trkpt lat="45.10388" lon="0.56396">
        <ele>180</ele>
      </trkpt>
      <trkpt lat="45.10387" lon="0.56285">
        <ele>176</ele>
      </trkpt>
      <trkpt lat="45.10484" lon="0.56171">
        <ele>176</ele>
      </trkpt>
      <trkpt lat="45.10491" lon="0.56108">
        <ele>182</ele>
      </trkpt>
      <trkpt lat="45.10493" lon="0.56037">
        <ele>187</ele>
      </trkpt>
      <trkpt lat="45.10486" lon="0.55953">
        <ele>189</ele>
      </trkpt>
      <trkpt lat="45.10408" lon="0.5591">
        <ele>189</ele>
      </trkpt>
      <trkpt lat="45.10366" lon="0.55866">
        <ele>188</ele>
      </trkpt>
      <trkpt lat="45.10325" lon="0.55804">
        <ele>186</ele>
      </trkpt>
      <trkpt lat="45.10318" lon="0.55747">
        <ele>187</ele>
      </trkpt>
      <trkpt lat="45.10364" lon="0.55718">
        <ele>186</ele>
      </trkpt>
      <trkpt lat="45.10414" lon="0.55724">
        <ele>186</ele>
      </trkpt>
      <trkpt lat="45.10468" lon="0.55709">
        <ele>185</ele>
      </trkpt>
      <trkpt lat="45.10449" lon="0.55589">
        <ele>184</ele>
      </trkpt>
      <trkpt lat="45.10456" lon="0.55501">
        <ele>182</ele>
      </trkpt>
      <trkpt lat="45.10521" lon="0.55469">
        <ele>175</ele>
      </trkpt>
      <trkpt lat="45.1057" lon="0.55477">
        <ele>174</ele>
      </trkpt>
      <trkpt lat="45.10628" lon="0.55464">
        <ele>169</ele>
      </trkpt>
      <trkpt lat="45.10709" lon="0.55467">
        <ele>163</ele>
      </trkpt>
      <trkpt lat="45.10747" lon="0.55446">
        <ele>160</ele>
      </trkpt>
      <trkpt lat="45.10724" lon="0.55403">
        <ele>147</ele>
      </trkpt>
      <trkpt lat="45.10772" lon="0.55409">
        <ele>146</ele>
      </trkpt>
      <trkpt lat="45.10835" lon="0.55426">
        <ele>147</ele>
      </trkpt>
      <trkpt lat="45.10873" lon="0.55486">
        <ele>154</ele>
      </trkpt>
      <trkpt lat="45.10889" lon="0.55535">
        <ele>159</ele>
      </trkpt>
      <trkpt lat="45.10808" lon="0.5557">
        <ele>167</ele>
      </trkpt>
      <trkpt lat="45.10777" lon="0.55603">
        <ele>171</ele>
      </trkpt>
      <trkpt lat="45.1075" lon="0.55658">
        <ele>172</ele>
      </trkpt>
      <trkpt lat="45.10746" lon="0.5573">
        <ele>170</ele>
      </trkpt>
      <trkpt lat="45.10869" lon="0.55655">
        <ele>151</ele>
      </trkpt>
      <trkpt lat="45.10913" lon="0.55648">
        <ele>144</ele>
      </trkpt>
      <trkpt lat="45.10947" lon="0.55666">
        <ele>141</ele>
      </trkpt>
      <trkpt lat="45.10951" lon="0.55716">
        <ele>148</ele>
      </trkpt>
      <trkpt lat="45.11011" lon="0.55771">
        <ele>160</ele>
      </trkpt>
      <trkpt lat="45.11051" lon="0.55796">
        <ele>166</ele>
      </trkpt>
      <trkpt lat="45.11145" lon="0.55766">
        <ele>163</ele>
      </trkpt>
      <trkpt lat="45.11182" lon="0.55751">
        <ele>161</ele>
      </trkpt>
      <trkpt lat="45.11218" lon="0.55757">
        <ele>159</ele>
      </trkpt>
      <trkpt lat="45.11242" lon="0.55716">
        <ele>157</ele>
      </trkpt>
      <trkpt lat="45.1126" lon="0.55675">
        <ele>154</ele>
      </trkpt>
      <trkpt lat="45.11349" lon="0.55603">
        <ele>139</ele>
      </trkpt>
      <trkpt lat="45.11417" lon="0.5551">
        <ele>128</ele>
      </trkpt>
      <trkpt lat="45.11466" lon="0.55485">
        <ele>120</ele>
      </trkpt>
      <trkpt lat="45.11582" lon="0.5552">
        <ele>106</ele>
      </trkpt>
      <trkpt lat="45.11624" lon="0.55521">
        <ele>101</ele>
      </trkpt>
      <trkpt lat="45.11673" lon="0.55517">
        <ele>96</ele>
      </trkpt>
      <trkpt lat="45.11741" lon="0.55526">
        <ele>92</ele>
      </trkpt>
      <trkpt lat="45.11773" lon="0.5551">
        <ele>94</ele>
      </trkpt>
      <trkpt lat="45.11827" lon="0.55459">
        <ele>97</ele>
      </trkpt>
      <trkpt lat="45.11882" lon="0.55417">
        <ele>102</ele>
      </trkpt>
      <trkpt lat="45.11919" lon="0.55389">
        <ele>106</ele>
      </trkpt>
      <trkpt lat="45.12029" lon="0.55272">
        <ele>105</ele>
      </trkpt>
      <trkpt lat="45.121" lon="0.55223">
        <ele>107</ele>
      </trkpt>
      <trkpt lat="45.1222" lon="0.55179">
        <ele>120</ele>
      </trkpt>
      <trkpt lat="45.123" lon="0.55123">
        <ele>128</ele>
      </trkpt>
      <trkpt lat="45.12374" lon="0.55065">
        <ele>141</ele>
      </trkpt>
      <trkpt lat="45.12404" lon="0.55053">
        <ele>146</ele>
      </trkpt>
      <trkpt lat="45.12426" lon="0.55086">
        <ele>149</ele>
      </trkpt>
      <trkpt lat="45.1247" lon="0.55123">
        <ele>144</ele>
      </trkpt>
      <trkpt lat="45.12522" lon="0.55096">
        <ele>137</ele>
      </trkpt>
      <trkpt lat="45.12631" lon="0.55092">
        <ele>121</ele>
      </trkpt>
      <trkpt lat="45.12667" lon="0.55158">
        <ele>114</ele>
      </trkpt>
      <trkpt lat="45.127" lon="0.55154">
        <ele>110</ele>
      </trkpt>
      <trkpt lat="45.12762" lon="0.55144">
        <ele>104</ele>
      </trkpt>
      <trkpt lat="45.12768" lon="0.55192">
        <ele>102</ele>
      </trkpt>
      <trkpt lat="45.12926" lon="0.55173">
        <ele>93</ele>
      </trkpt>
      <trkpt lat="45.13108" lon="0.5517">
        <ele>79</ele>
      </trkpt>
      <trkpt lat="45.13174" lon="0.55166">
        <ele>76</ele>
      </trkpt>
      <trkpt lat="45.13205" lon="0.55056">
        <ele>78</ele>
      </trkpt>
      <trkpt lat="45.13233" lon="0.55137">
        <ele>82</ele>
      </trkpt>
      <trkpt lat="45.13307" lon="0.55127">
        <ele>85</ele>
      </trkpt>
      <trkpt lat="45.13297" lon="0.54977">
        <ele>96</ele>
      </trkpt>
      <trkpt lat="45.13312" lon="0.54888">
        <ele>104</ele>
      </trkpt>
      <trkpt lat="45.13347" lon="0.54823">
        <ele>107</ele>
      </trkpt>
      <trkpt lat="45.13414" lon="0.54756">
        <ele>112</ele>
      </trkpt>
      <trkpt lat="45.13446" lon="0.5474">
        <ele>114</ele>
      </trkpt>
      <trkpt lat="45.13462" lon="0.54835">
        <ele>119</ele>
      </trkpt>
      <trkpt lat="45.13459" lon="0.54899">
        <ele>127</ele>
      </trkpt>
      <trkpt lat="45.13457" lon="0.54969">
        <ele>137</ele>
      </trkpt>
      <trkpt lat="45.13576" lon="0.55328">
        <ele>129</ele>
      </trkpt>
      <trkpt lat="45.13719" lon="0.55664">
        <ele>135</ele>
      </trkpt>
      <trkpt lat="45.13748" lon="0.55738">
        <ele>135</ele>
      </trkpt>
      <trkpt lat="45.13744" lon="0.55772">
        <ele>147</ele>
      </trkpt>
      <trkpt lat="45.13727" lon="0.55814">
        <ele>150</ele>
      </trkpt>
      <trkpt lat="45.13754" lon="0.559">
        <ele>152</ele>
      </trkpt>
      <trkpt lat="45.13782" lon="0.55961">
        <ele>155</ele>
      </trkpt>
      <trkpt lat="45.13807" lon="0.56016">
        <ele>152</ele>
      </trkpt>
      <trkpt lat="45.13886" lon="0.55983">
        <ele>145</ele>
      </trkpt>
      <trkpt lat="45.13898" lon="0.55889">
        <ele>131</ele>
      </trkpt>
      <trkpt lat="45.13916" lon="0.55778">
        <ele>116</ele>
      </trkpt>
      <trkpt lat="45.13944" lon="0.55704">
        <ele>104</ele>
      </trkpt>
      <trkpt lat="45.13959" lon="0.5564">
        <ele>97</ele>
      </trkpt>
      <trkpt lat="45.13995" lon="0.55573">
        <ele>96</ele>
      </trkpt>
      <trkpt lat="45.14015" lon="0.55603">
        <ele>95</ele>
      </trkpt>
      <trkpt lat="45.14071" lon="0.55706">
        <ele>86</ele>
      </trkpt>
      <trkpt lat="45.14144" lon="0.55902">
        <ele>88</ele>
      </trkpt>
      <trkpt lat="45.14174" lon="0.55938">
        <ele>87</ele>
      </trkpt>
      <trkpt lat="45.14219" lon="0.55851">
        <ele>83</ele>
      </trkpt>
      <trkpt lat="45.14313" lon="0.5576">
        <ele>76</ele>
      </trkpt>
      <trkpt lat="45.14449" lon="0.55625">
        <ele>76</ele>
      </trkpt>
      <trkpt lat="45.14511" lon="0.5558">
        <ele>73</ele>
      </trkpt>
      <trkpt lat="45.14614" lon="0.55529">
        <ele>67</ele>
      </trkpt>
      <trkpt lat="45.14551" lon="0.55463">
        <ele>67</ele>
      </trkpt>
      <trkpt lat="45.14559" lon="0.55423">
        <ele>67</ele>
      </trkpt>
      <trkpt lat="45.1456" lon="0.55239">
        <ele>65</ele>
      </trkpt>
      <trkpt lat="45.14579" lon="0.55156">
        <ele>65</ele>
      </trkpt>
      <trkpt lat="45.14589" lon="0.55064">
        <ele>64</ele>
      </trkpt>
      <trkpt lat="45.14614" lon="0.55006">
        <ele>64</ele>
      </trkpt>
      <trkpt lat="45.14639" lon="0.5492">
        <ele>72</ele>
      </trkpt>
      <trkpt lat="45.14651" lon="0.54877">
        <ele>72</ele>
      </trkpt>
      <trkpt lat="45.1467" lon="0.54862">
        <ele>63</ele>
      </trkpt>
      <trkpt lat="45.14664" lon="0.54819">
        <ele>64</ele>
      </trkpt>
      <trkpt lat="45.14711" lon="0.54612">
        <ele>63</ele>
      </trkpt>
      <trkpt lat="45.14805" lon="0.54384">
        <ele>62</ele>
      </trkpt>
      <trkpt lat="45.14717" lon="0.54327">
        <ele>62</ele>
      </trkpt>
      <trkpt lat="45.14607" lon="0.54299">
        <ele>62</ele>
      </trkpt>
      <trkpt lat="45.14593" lon="0.54275">
        <ele>62</ele>
      </trkpt>
      <trkpt lat="45.14556" lon="0.5415">
        <ele>62</ele>
      </trkpt>
      <trkpt lat="45.14555" lon="0.54107">
        <ele>62</ele>
      </trkpt>
      <trkpt lat="45.14576" lon="0.54041">
        <ele>62</ele>
      </trkpt>
      <trkpt lat="45.14597" lon="0.54018">
        <ele>62</ele>
      </trkpt>
      <trkpt lat="45.14631" lon="0.54001">
        <ele>62</ele>
      </trkpt>
      <trkpt lat="45.14662" lon="0.54002">
        <ele>62</ele>
      </trkpt>
      <trkpt lat="45.14897" lon="0.54122">
        <ele>63</ele>
      </trkpt>
      <trkpt lat="45.15023" lon="0.54202">
        <ele>62</ele>
      </trkpt>
      <trkpt lat="45.15142" lon="0.54251">
        <ele>61</ele>
      </trkpt>
      <trkpt lat="45.152" lon="0.54194">
        <ele>60</ele>
      </trkpt>
      <trkpt lat="45.15332" lon="0.54017">
        <ele>60</ele>
      </trkpt>
      <trkpt lat="45.15329" lon="0.53959">
        <ele>59</ele>
      </trkpt>
      <trkpt lat="45.15332" lon="0.53926">
        <ele>59</ele>
      </trkpt>
      <trkpt lat="45.15364" lon="0.53913">
        <ele>62</ele>
      </trkpt>
      <trkpt lat="45.15355" lon="0.53856">
        <ele>60</ele>
      </trkpt>
      <trkpt lat="45.15331" lon="0.53793">
        <ele>60</ele>
      </trkpt>
      <trkpt lat="45.15307" lon="0.53759">
        <ele>60</ele>
      </trkpt>
      <trkpt lat="45.15251" lon="0.53714">
        <ele>60</ele>
      </trkpt>
      <trkpt lat="45.14398" lon="0.53466">
        <ele>60</ele>
      </trkpt>
      <trkpt lat="45.14366" lon="0.53459">
        <ele>59</ele>
      </trkpt>
      <trkpt lat="45.14337" lon="0.53481">
        <ele>59</ele>
      </trkpt>
      <trkpt lat="45.14325" lon="0.53479">
        <ele>59</ele>
      </trkpt>
      <trkpt lat="45.14325" lon="0.53463">
        <ele>59</ele>
      </trkpt>
      <trkpt lat="45.14374" lon="0.53414">
        <ele>59</ele>
      </trkpt>
      <trkpt lat="45.14336" lon="0.5332">
        <ele>60</ele>
      </trkpt>
      <trkpt lat="45.14368" lon="0.53293">
        <ele>59</ele>
      </trkpt>
      <trkpt lat="45.14372" lon="0.53276">
        <ele>58</ele>
      </trkpt>
      <trkpt lat="45.14347" lon="0.53241">
        <ele>56</ele>
      </trkpt>
      <trkpt lat="45.1432" lon="0.53135">
        <ele>57</ele>
      </trkpt>
      <trkpt lat="45.14352" lon="0.53026">
        <ele>58</ele>
      </trkpt>
      <trkpt lat="45.14355" lon="0.53014">
        <ele>59</ele>
      </trkpt>
      <trkpt lat="45.14348" lon="0.53005">
        <ele>60</ele>
      </trkpt>
      <trkpt lat="45.14178" lon="0.5301">
        <ele>60</ele>
      </trkpt>
      <trkpt lat="45.14173" lon="0.52998">
        <ele>60</ele>
      </trkpt>
      <trkpt lat="45.14186" lon="0.52969">
        <ele>60</ele>
      </trkpt>
      <trkpt lat="45.14271" lon="0.52837">
        <ele>63</ele>
      </trkpt>
      <trkpt lat="45.14318" lon="0.52696">
        <ele>66</ele>
      </trkpt>
      <trkpt lat="45.1433" lon="0.5266">
        <ele>67</ele>
      </trkpt>
      <trkpt lat="45.14329" lon="0.52641">
        <ele>67</ele>
      </trkpt>
      <trkpt lat="45.1427" lon="0.52495">
        <ele>67</ele>
      </trkpt>
      <trkpt lat="45.14262" lon="0.52458">
        <ele>67</ele>
      </trkpt>
      <trkpt lat="45.14312" lon="0.52326">
        <ele>69</ele>
      </trkpt>
      <trkpt lat="45.14284" lon="0.52288">
        <ele>77.565994</ele>
      </trkpt>
      <trkpt lat="45.14319" lon="0.52251">
        <ele>71</ele>
      </trkpt>
      <trkpt lat="45.1434" lon="0.5225">
        <ele>71</ele>
      </trkpt>
      <trkpt lat="45.14353" lon="0.52255">
        <ele>71</ele>
      </trkpt>
      <trkpt lat="45.14387" lon="0.52191">
        <ele>72</ele>
      </trkpt>
      <trkpt lat="45.14434" lon="0.52141">
        <ele>73</ele>
      </trkpt>
      <trkpt lat="45.14481" lon="0.52074">
        <ele>74</ele>
      </trkpt>
      <trkpt lat="45.14547" lon="0.52011">
        <ele>75</ele>
      </trkpt>
      <trkpt lat="45.14555" lon="0.51977">
        <ele>76</ele>
      </trkpt>
      <trkpt lat="45.14546" lon="0.51945">
        <ele>77</ele>
      </trkpt>
      <trkpt lat="45.14497" lon="0.51903">
        <ele>77</ele>
      </trkpt>
      <trkpt lat="45.1446" lon="0.51935">
        <ele>77</ele>
      </trkpt>
    </trkseg>
  </trk>
  <trk>
    <name><![CDATA[AST 31 NOIR]]></name>
    <trkseg>
      <trkpt lat="45.14471" lon="0.51972">
        <ele>55.799988</ele>
      </trkpt>
      <trkpt lat="45.14454" lon="0.51928">
        <ele>56.400024</ele>
      </trkpt>
      <trkpt lat="45.14459" lon="0.51905">
        <ele>56.599976</ele>
      </trkpt>
      <trkpt lat="45.1449" lon="0.51862">
        <ele>57.599976</ele>
      </trkpt>
      <trkpt lat="45.14557" lon="0.51828">
        <ele>58.799988</ele>
      </trkpt>
      <trkpt lat="45.14573" lon="0.51812">
        <ele>59.200012</ele>
      </trkpt>
      <trkpt lat="45.1462" lon="0.51758">
        <ele>61</ele>
      </trkpt>
      <trkpt lat="45.14632" lon="0.51719">
        <ele>61.799988</ele>
      </trkpt>
      <trkpt lat="45.14642" lon="0.51728">
        <ele>62.400024</ele>
      </trkpt>
      <trkpt lat="45.1465" lon="0.51749">
        <ele>62.400024</ele>
      </trkpt>
      <trkpt lat="45.14692" lon="0.51954">
        <ele>60.599976</ele>
      </trkpt>
      <trkpt lat="45.14707" lon="0.52123">
        <ele>60</ele>
      </trkpt>
      <trkpt lat="45.14746" lon="0.52253">
        <ele>58</ele>
      </trkpt>
      <trkpt lat="45.14753" lon="0.52258">
        <ele>57.799988</ele>
      </trkpt>
      <trkpt lat="45.14762" lon="0.52246">
        <ele>57.799988</ele>
      </trkpt>
      <trkpt lat="45.14819" lon="0.52122">
        <ele>60.400024</ele>
      </trkpt>
      <trkpt lat="45.14831" lon="0.521">
        <ele>61</ele>
      </trkpt>
      <trkpt lat="45.1486" lon="0.5204">
        <ele>62.400024</ele>
      </trkpt>
      <trkpt lat="45.14921" lon="0.51901">
        <ele>66.400024</ele>
      </trkpt>
      <trkpt lat="45.14932" lon="0.51839">
        <ele>68</ele>
      </trkpt>
      <trkpt lat="45.14938" lon="0.51804">
        <ele>68.799988</ele>
      </trkpt>
      <trkpt lat="45.14943" lon="0.51771">
        <ele>69.599976</ele>
      </trkpt>
      <trkpt lat="45.14968" lon="0.51702">
        <ele>70.599976</ele>
      </trkpt>
      <trkpt lat="45.14986" lon="0.51631">
        <ele>71.400024</ele>
      </trkpt>
      <trkpt lat="45.1501" lon="0.51539">
        <ele>72</ele>
      </trkpt>
      <trkpt lat="45.15011" lon="0.5151">
        <ele>72.799988</ele>
      </trkpt>
      <trkpt lat="45.15003" lon="0.51452">
        <ele>75.200012</ele>
      </trkpt>
      <trkpt lat="45.15015" lon="0.51382">
        <ele>79.799988</ele>
      </trkpt>
      <trkpt lat="45.15028" lon="0.51272">
        <ele>87.599976</ele>
      </trkpt>
      <trkpt lat="45.15035" lon="0.51219">
        <ele>92.400024</ele>
      </trkpt>
      <trkpt lat="45.15036" lon="0.51214">
        <ele>92.799988</ele>
      </trkpt>
      <trkpt lat="45.15038" lon="0.51206">
        <ele>93.599976</ele>
      </trkpt>
      <trkpt lat="45.15061" lon="0.51057">
        <ele>105.599976</ele>
      </trkpt>
      <trkpt lat="45.1506" lon="0.51031">
        <ele>107.599976</ele>
      </trkpt>
      <trkpt lat="45.15029" lon="0.50848">
        <ele>115.400024</ele>
      </trkpt>
      <trkpt lat="45.15025" lon="0.50722">
        <ele>117.200012</ele>
      </trkpt>
      <trkpt lat="45.15005" lon="0.50645">
        <ele>120.799988</ele>
      </trkpt>
      <trkpt lat="45.15003" lon="0.50622">
        <ele>121.799988</ele>
      </trkpt>
      <trkpt lat="45.1501" lon="0.50602">
        <ele>122.200012</ele>
      </trkpt>
      <trkpt lat="45.15014" lon="0.50624">
        <ele>123.200012</ele>
      </trkpt>
      <trkpt lat="45.15019" lon="0.50626">
        <ele>123.599976</ele>
      </trkpt>
      <trkpt lat="45.15101" lon="0.50618">
        <ele>135.400024</ele>
      </trkpt>
      <trkpt lat="45.15291" lon="0.50614">
        <ele>143.599976</ele>
      </trkpt>
      <trkpt lat="45.15381" lon="0.50651">
        <ele>143.799988</ele>
      </trkpt>
      <trkpt lat="45.1549" lon="0.50723">
        <ele>144</ele>
      </trkpt>
      <trkpt lat="45.15551" lon="0.50783">
        <ele>147</ele>
      </trkpt>
      <trkpt lat="45.15591" lon="0.50838">
        <ele>150</ele>
      </trkpt>
      <trkpt lat="45.15621" lon="0.50862">
        <ele>152.599976</ele>
      </trkpt>
      <trkpt lat="45.15674" lon="0.50929">
        <ele>156.599976</ele>
      </trkpt>
      <trkpt lat="45.15728" lon="0.50976">
        <ele>157.200012</ele>
      </trkpt>
      <trkpt lat="45.15805" lon="0.51039">
        <ele>154.400024</ele>
      </trkpt>
      <trkpt lat="45.1596" lon="0.51147">
        <ele>156.200012</ele>
      </trkpt>
      <trkpt lat="45.1601" lon="0.51212">
        <ele>158.200012</ele>
      </trkpt>
      <trkpt lat="45.16051" lon="0.51149">
        <ele>156.200012</ele>
      </trkpt>
      <trkpt lat="45.16145" lon="0.51182">
        <ele>145.200012</ele>
      </trkpt>
      <trkpt lat="45.16203" lon="0.51189">
        <ele>139</ele>
      </trkpt>
      <trkpt lat="45.16238" lon="0.51193">
        <ele>133.599976</ele>
      </trkpt>
      <trkpt lat="45.16222" lon="0.51153">
        <ele>127.200012</ele>
      </trkpt>
      <trkpt lat="45.16249" lon="0.5116">
        <ele>125</ele>
      </trkpt>
      <trkpt lat="45.16276" lon="0.51166">
        <ele>122.599976</ele>
      </trkpt>
      <trkpt lat="45.16313" lon="0.51151">
        <ele>118.200012</ele>
      </trkpt>
      <trkpt lat="45.1641" lon="0.51164">
        <ele>106.400024</ele>
      </trkpt>
      <trkpt lat="45.16421" lon="0.51157">
        <ele>105</ele>
      </trkpt>
      <trkpt lat="45.16429" lon="0.5113">
        <ele>105.400024</ele>
      </trkpt>
      <trkpt lat="45.16457" lon="0.51049">
        <ele>114.599976</ele>
      </trkpt>
      <trkpt lat="45.16476" lon="0.5098">
        <ele>124.799988</ele>
      </trkpt>
      <trkpt lat="45.16475" lon="0.50884">
        <ele>140.599976</ele>
      </trkpt>
      <trkpt lat="45.16477" lon="0.50879">
        <ele>141.799988</ele>
      </trkpt>
      <trkpt lat="45.1649" lon="0.50882">
        <ele>144.599976</ele>
      </trkpt>
      <trkpt lat="45.16484" lon="0.50779">
        <ele>153.599976</ele>
      </trkpt>
      <trkpt lat="45.16475" lon="0.50734">
        <ele>157.599976</ele>
      </trkpt>
      <trkpt lat="45.1647" lon="0.50675">
        <ele>161.799988</ele>
      </trkpt>
      <trkpt lat="45.16457" lon="0.50625">
        <ele>164.200012</ele>
      </trkpt>
      <trkpt lat="45.1645" lon="0.50564">
        <ele>169</ele>
      </trkpt>
      <trkpt lat="45.16449" lon="0.50519">
        <ele>171.799988</ele>
      </trkpt>
      <trkpt lat="45.16455" lon="0.5051">
        <ele>172</ele>
      </trkpt>
      <trkpt lat="45.16525" lon="0.50575">
        <ele>177.599976</ele>
      </trkpt>
      <trkpt lat="45.16611" lon="0.50633">
        <ele>179.799988</ele>
      </trkpt>
      <trkpt lat="45.16637" lon="0.5065">
        <ele>179.599976</ele>
      </trkpt>
      <trkpt lat="45.16663" lon="0.50658">
        <ele>178.799988</ele>
      </trkpt>
      <trkpt lat="45.16825" lon="0.50624">
        <ele>172.599976</ele>
      </trkpt>
      <trkpt lat="45.16912" lon="0.50594">
        <ele>173</ele>
      </trkpt>
      <trkpt lat="45.17005" lon="0.50601">
        <ele>177.200012</ele>
      </trkpt>
      <trkpt lat="45.17071" lon="0.5061">
        <ele>181.799988</ele>
      </trkpt>
      <trkpt lat="45.17147" lon="0.50639">
        <ele>184.799988</ele>
      </trkpt>
      <trkpt lat="45.17263" lon="0.50663">
        <ele>191.799988</ele>
      </trkpt>
      <trkpt lat="45.17334" lon="0.50646">
        <ele>194</ele>
      </trkpt>
      <trkpt lat="45.17433" lon="0.50606">
        <ele>193.799988</ele>
      </trkpt>
      <trkpt lat="45.17441" lon="0.50597">
        <ele>193.799988</ele>
      </trkpt>
      <trkpt lat="45.17469" lon="0.50151">
        <ele>195</ele>
      </trkpt>
      <trkpt lat="45.17459" lon="0.49805">
        <ele>190.200012</ele>
      </trkpt>
      <trkpt lat="45.1747" lon="0.49796">
        <ele>190</ele>
      </trkpt>
      <trkpt lat="45.17493" lon="0.49804">
        <ele>189.200012</ele>
      </trkpt>
      <trkpt lat="45.17539" lon="0.49836">
        <ele>186.599976</ele>
      </trkpt>
      <trkpt lat="45.17572" lon="0.49835">
        <ele>185.400024</ele>
      </trkpt>
      <trkpt lat="45.17698" lon="0.49781">
        <ele>187</ele>
      </trkpt>
      <trkpt lat="45.1783" lon="0.49747">
        <ele>185</ele>
      </trkpt>
      <trkpt lat="45.17851" lon="0.49725">
        <ele>185.200012</ele>
      </trkpt>
      <trkpt lat="45.17901" lon="0.4965">
        <ele>187</ele>
      </trkpt>
      <trkpt lat="45.17987" lon="0.49551">
        <ele>184.599976</ele>
      </trkpt>
      <trkpt lat="45.18018" lon="0.49502">
        <ele>182.599976</ele>
      </trkpt>
      <trkpt lat="45.18069" lon="0.49412">
        <ele>177.599976</ele>
      </trkpt>
      <trkpt lat="45.18113" lon="0.49295">
        <ele>169.599976</ele>
      </trkpt>
      <trkpt lat="45.18122" lon="0.49278">
        <ele>168.400024</ele>
      </trkpt>
      <trkpt lat="45.18135" lon="0.49268">
        <ele>167.400024</ele>
      </trkpt>
      <trkpt lat="45.18162" lon="0.49279">
        <ele>163.799988</ele>
      </trkpt>
      <trkpt lat="45.18196" lon="0.49354">
        <ele>158</ele>
      </trkpt>
      <trkpt lat="45.18235" lon="0.49399">
        <ele>154.599976</ele>
      </trkpt>
      <trkpt lat="45.18259" lon="0.49403">
        <ele>153</ele>
      </trkpt>
      <trkpt lat="45.18281" lon="0.49388">
        <ele>151.200012</ele>
      </trkpt>
      <trkpt lat="45.18323" lon="0.49346">
        <ele>148</ele>
      </trkpt>
      <trkpt lat="45.18396" lon="0.49327">
        <ele>143</ele>
      </trkpt>
      <trkpt lat="45.18465" lon="0.49279">
        <ele>130.599976</ele>
      </trkpt>
      <trkpt lat="45.18484" lon="0.49277">
        <ele>126.200012</ele>
      </trkpt>
      <trkpt lat="45.18569" lon="0.49304">
        <ele>115.799988</ele>
      </trkpt>
      <trkpt lat="45.1857" lon="0.49344">
        <ele>116.599976</ele>
      </trkpt>
      <trkpt lat="45.18597" lon="0.49468">
        <ele>120.599976</ele>
      </trkpt>
      <trkpt lat="45.18595" lon="0.49498">
        <ele>121.799988</ele>
      </trkpt>
      <trkpt lat="45.18575" lon="0.49553">
        <ele>125</ele>
      </trkpt>
      <trkpt lat="45.18575" lon="0.49609">
        <ele>130.799988</ele>
      </trkpt>
      <trkpt lat="45.1858" lon="0.49667">
        <ele>139.200012</ele>
      </trkpt>
      <trkpt lat="45.18585" lon="0.49729">
        <ele>148.400024</ele>
      </trkpt>
      <trkpt lat="45.18595" lon="0.49751">
        <ele>152.200012</ele>
      </trkpt>
      <trkpt lat="45.18634" lon="0.49807">
        <ele>164.400024</ele>
      </trkpt>
      <trkpt lat="45.18651" lon="0.49869">
        <ele>173.799988</ele>
      </trkpt>
      <trkpt lat="45.18686" lon="0.49937">
        <ele>182</ele>
      </trkpt>
      <trkpt lat="45.18743" lon="0.50047">
        <ele>189.200012</ele>
      </trkpt>
      <trkpt lat="45.18763" lon="0.50134">
        <ele>187.799988</ele>
      </trkpt>
      <trkpt lat="45.18774" lon="0.50228">
        <ele>186.200012</ele>
      </trkpt>
      <trkpt lat="45.18787" lon="0.50289">
        <ele>185</ele>
      </trkpt>
      <trkpt lat="45.1879" lon="0.50294">
        <ele>184.799988</ele>
      </trkpt>
      <trkpt lat="45.18847" lon="0.50295">
        <ele>180.599976</ele>
      </trkpt>
      <trkpt lat="45.18864" lon="0.50308">
        <ele>179</ele>
      </trkpt>
      <trkpt lat="45.18885" lon="0.50346">
        <ele>176.400024</ele>
      </trkpt>
      <trkpt lat="45.18901" lon="0.5046">
        <ele>170.599976</ele>
      </trkpt>
      <trkpt lat="45.18911" lon="0.50514">
        <ele>168.400024</ele>
      </trkpt>
      <trkpt lat="45.1896" lon="0.50591">
        <ele>163.799988</ele>
      </trkpt>
      <trkpt lat="45.19041" lon="0.50691">
        <ele>157.400024</ele>
      </trkpt>
      <trkpt lat="45.19103" lon="0.5072">
        <ele>155.400024</ele>
      </trkpt>
      <trkpt lat="45.19211" lon="0.50788">
        <ele>158.599976</ele>
      </trkpt>
      <trkpt lat="45.19278" lon="0.50817">
        <ele>160</ele>
      </trkpt>
      <trkpt lat="45.19357" lon="0.50818">
        <ele>161.799988</ele>
      </trkpt>
      <trkpt lat="45.19461" lon="0.50783">
        <ele>160.799988</ele>
      </trkpt>
      <trkpt lat="45.19486" lon="0.50777">
        <ele>160.200012</ele>
      </trkpt>
      <trkpt lat="45.19523" lon="0.50787">
        <ele>158.799988</ele>
      </trkpt>
      <trkpt lat="45.19552" lon="0.50798">
        <ele>158.200012</ele>
      </trkpt>
      <trkpt lat="45.19583" lon="0.5083">
        <ele>157</ele>
      </trkpt>
      <trkpt lat="45.19618" lon="0.50829">
        <ele>155.400024</ele>
      </trkpt>
      <trkpt lat="45.19635" lon="0.50824">
        <ele>154.200012</ele>
      </trkpt>
      <trkpt lat="45.19667" lon="0.50796">
        <ele>152.400024</ele>
      </trkpt>
      <trkpt lat="45.19704" lon="0.50776">
        <ele>150.799988</ele>
      </trkpt>
      <trkpt lat="45.19747" lon="0.50772">
        <ele>146.799988</ele>
      </trkpt>
      <trkpt lat="45.19778" lon="0.50756">
        <ele>144.599976</ele>
      </trkpt>
      <trkpt lat="45.19798" lon="0.50754">
        <ele>143.200012</ele>
      </trkpt>
      <trkpt lat="45.19838" lon="0.50787">
        <ele>135.599976</ele>
      </trkpt>
      <trkpt lat="45.19856" lon="0.50863">
        <ele>129.599976</ele>
      </trkpt>
      <trkpt lat="45.19889" lon="0.50886">
        <ele>131.599976</ele>
      </trkpt>
      <trkpt lat="45.19993" lon="0.50919">
        <ele>162.200012</ele>
      </trkpt>
      <trkpt lat="45.19994" lon="0.50919">
        <ele>162.599976</ele>
      </trkpt>
      <trkpt lat="45.20038" lon="0.50934">
        <ele>171.799988</ele>
      </trkpt>
      <trkpt lat="45.20147" lon="0.51012">
        <ele>184</ele>
      </trkpt>
      <trkpt lat="45.2022" lon="0.51016">
        <ele>188.799988</ele>
      </trkpt>
      <trkpt lat="45.20235" lon="0.51035">
        <ele>190</ele>
      </trkpt>
      <trkpt lat="45.20248" lon="0.5105">
        <ele>191</ele>
      </trkpt>
      <trkpt lat="45.2025" lon="0.51067">
        <ele>191</ele>
      </trkpt>
      <trkpt lat="45.20237" lon="0.51182">
        <ele>189.400024</ele>
      </trkpt>
      <trkpt lat="45.20209" lon="0.51311">
        <ele>189.400024</ele>
      </trkpt>
      <trkpt lat="45.20218" lon="0.51407">
        <ele>188.400024</ele>
      </trkpt>
      <trkpt lat="45.20242" lon="0.51532">
        <ele>187.400024</ele>
      </trkpt>
      <trkpt lat="45.20244" lon="0.51569">
        <ele>188.400024</ele>
      </trkpt>
      <trkpt lat="45.20215" lon="0.51738">
        <ele>183.400024</ele>
      </trkpt>
      <trkpt lat="45.20206" lon="0.51778">
        <ele>183.400024</ele>
      </trkpt>
      <trkpt lat="45.20177" lon="0.51833">
        <ele>186.799988</ele>
      </trkpt>
      <trkpt lat="45.20151" lon="0.51862">
        <ele>188.599976</ele>
      </trkpt>
      <trkpt lat="45.20102" lon="0.51892">
        <ele>190.200012</ele>
      </trkpt>
      <trkpt lat="45.20085" lon="0.51918">
        <ele>191</ele>
      </trkpt>
      <trkpt lat="45.2005" lon="0.51986">
        <ele>192.599976</ele>
      </trkpt>
      <trkpt lat="45.20014" lon="0.52093">
        <ele>194</ele>
      </trkpt>
      <trkpt lat="45.19999" lon="0.52121">
        <ele>193.799988</ele>
      </trkpt>
      <trkpt lat="45.19975" lon="0.52141">
        <ele>192.799988</ele>
      </trkpt>
      <trkpt lat="45.19992" lon="0.52208">
        <ele>194.599976</ele>
      </trkpt>
      <trkpt lat="45.20004" lon="0.52327">
        <ele>196.799988</ele>
      </trkpt>
      <trkpt lat="45.20007" lon="0.52386">
        <ele>197.599976</ele>
      </trkpt>
      <trkpt lat="45.20001" lon="0.52508">
        <ele>199.599976</ele>
      </trkpt>
      <trkpt lat="45.19992" lon="0.52551">
        <ele>200</ele>
      </trkpt>
      <trkpt lat="45.19979" lon="0.52576">
        <ele>200</ele>
      </trkpt>
      <trkpt lat="45.19963" lon="0.52596">
        <ele>200.799988</ele>
      </trkpt>
      <trkpt lat="45.19957" lon="0.52613">
        <ele>201.400024</ele>
      </trkpt>
      <trkpt lat="45.1996" lon="0.52682">
        <ele>201</ele>
      </trkpt>
      <trkpt lat="45.19967" lon="0.52712">
        <ele>200.599976</ele>
      </trkpt>
      <trkpt lat="45.19981" lon="0.52746">
        <ele>199</ele>
      </trkpt>
      <trkpt lat="45.1995" lon="0.52763">
        <ele>195.799988</ele>
      </trkpt>
      <trkpt lat="45.19937" lon="0.52789">
        <ele>195.200012</ele>
      </trkpt>
      <trkpt lat="45.19917" lon="0.52844">
        <ele>193.200012</ele>
      </trkpt>
      <trkpt lat="45.19884" lon="0.52991">
        <ele>192.400024</ele>
      </trkpt>
      <trkpt lat="45.19866" lon="0.53114">
        <ele>192.400024</ele>
      </trkpt>
      <trkpt lat="45.19854" lon="0.53161">
        <ele>192</ele>
      </trkpt>
      <trkpt lat="45.19847" lon="0.5324">
        <ele>191</ele>
      </trkpt>
      <trkpt lat="45.19838" lon="0.53289">
        <ele>190.400024</ele>
      </trkpt>
      <trkpt lat="45.19795" lon="0.53413">
        <ele>191.799988</ele>
      </trkpt>
      <trkpt lat="45.19781" lon="0.53478">
        <ele>190</ele>
      </trkpt>
      <trkpt lat="45.19793" lon="0.5358">
        <ele>185.599976</ele>
      </trkpt>
      <trkpt lat="45.19779" lon="0.5372">
        <ele>187.799988</ele>
      </trkpt>
      <trkpt lat="45.19783" lon="0.53793">
        <ele>187.200012</ele>
      </trkpt>
      <trkpt lat="45.19796" lon="0.53844">
        <ele>187.400024</ele>
      </trkpt>
      <trkpt lat="45.19825" lon="0.53899">
        <ele>187.200012</ele>
      </trkpt>
      <trkpt lat="45.19809" lon="0.53922">
        <ele>188.599976</ele>
      </trkpt>
      <trkpt lat="45.19813" lon="0.53948">
        <ele>188.599976</ele>
      </trkpt>
      <trkpt lat="45.19859" lon="0.54021">
        <ele>187.599976</ele>
      </trkpt>
      <trkpt lat="45.19886" lon="0.54056">
        <ele>187.200012</ele>
      </trkpt>
      <trkpt lat="45.19975" lon="0.54092">
        <ele>182.599976</ele>
      </trkpt>
      <trkpt lat="45.20078" lon="0.5415">
        <ele>166.400024</ele>
      </trkpt>
      <trkpt lat="45.20091" lon="0.54166">
        <ele>162.799988</ele>
      </trkpt>
      <trkpt lat="45.20123" lon="0.5423">
        <ele>156.599976</ele>
      </trkpt>
      <trkpt lat="45.20176" lon="0.54281">
        <ele>153</ele>
      </trkpt>
      <trkpt lat="45.20213" lon="0.54309">
        <ele>150.799988</ele>
      </trkpt>
      <trkpt lat="45.20243" lon="0.54342">
        <ele>149</ele>
      </trkpt>
      <trkpt lat="45.20267" lon="0.54354">
        <ele>147.799988</ele>
      </trkpt>
      <trkpt lat="45.2031" lon="0.54399">
        <ele>144.799988</ele>
      </trkpt>
      <trkpt lat="45.2038" lon="0.54503">
        <ele>137.200012</ele>
      </trkpt>
      <trkpt lat="45.20389" lon="0.54524">
        <ele>135.799988</ele>
      </trkpt>
      <trkpt lat="45.20399" lon="0.54573">
        <ele>131.599976</ele>
      </trkpt>
      <trkpt lat="45.20399" lon="0.54713">
        <ele>124</ele>
      </trkpt>
      <trkpt lat="45.20368" lon="0.54815">
        <ele>112.400024</ele>
      </trkpt>
      <trkpt lat="45.20363" lon="0.54851">
        <ele>109.799988</ele>
      </trkpt>
      <trkpt lat="45.20365" lon="0.54882">
        <ele>107.799988</ele>
      </trkpt>
      <trkpt lat="45.20381" lon="0.54951">
        <ele>102.200012</ele>
      </trkpt>
      <trkpt lat="45.20368" lon="0.5501">
        <ele>99.200012</ele>
      </trkpt>
      <trkpt lat="45.20359" lon="0.5511">
        <ele>94</ele>
      </trkpt>
      <trkpt lat="45.20371" lon="0.55209">
        <ele>93.400024</ele>
      </trkpt>
      <trkpt lat="45.20364" lon="0.55244">
        <ele>95.799988</ele>
      </trkpt>
      <trkpt lat="45.20365" lon="0.55483">
        <ele>112.400024</ele>
      </trkpt>
      <trkpt lat="45.2037" lon="0.55522">
        <ele>115.799988</ele>
      </trkpt>
      <trkpt lat="45.20395" lon="0.55578">
        <ele>121.200012</ele>
      </trkpt>
      <trkpt lat="45.20403" lon="0.55625">
        <ele>124.400024</ele>
      </trkpt>
      <trkpt lat="45.20398" lon="0.55664">
        <ele>127.400024</ele>
      </trkpt>
      <trkpt lat="45.20383" lon="0.557">
        <ele>130</ele>
      </trkpt>
      <trkpt lat="45.20381" lon="0.55762">
        <ele>132</ele>
      </trkpt>
      <trkpt lat="45.20368" lon="0.55816">
        <ele>135</ele>
      </trkpt>
      <trkpt lat="45.20371" lon="0.55828">
        <ele>136</ele>
      </trkpt>
      <trkpt lat="45.20394" lon="0.55944">
        <ele>134.400024</ele>
      </trkpt>
      <trkpt lat="45.20417" lon="0.55998">
        <ele>132.200012</ele>
      </trkpt>
      <trkpt lat="45.20433" lon="0.56028">
        <ele>132</ele>
      </trkpt>
      <trkpt lat="45.20435" lon="0.56047">
        <ele>132.400024</ele>
      </trkpt>
      <trkpt lat="45.20424" lon="0.56198">
        <ele>134.799988</ele>
      </trkpt>
      <trkpt lat="45.2043" lon="0.56209">
        <ele>134.599976</ele>
      </trkpt>
      <trkpt lat="45.20469" lon="0.56235">
        <ele>136</ele>
      </trkpt>
      <trkpt lat="45.20622" lon="0.56346">
        <ele>146.400024</ele>
      </trkpt>
      <trkpt lat="45.20689" lon="0.56391">
        <ele>153.799988</ele>
      </trkpt>
      <trkpt lat="45.20805" lon="0.56444">
        <ele>166.400024</ele>
      </trkpt>
      <trkpt lat="45.20878" lon="0.56488">
        <ele>174.599976</ele>
      </trkpt>
      <trkpt lat="45.20806" lon="0.56794">
        <ele>167.599976</ele>
      </trkpt>
      <trkpt lat="45.20787" lon="0.56861">
        <ele>166.400024</ele>
      </trkpt>
      <trkpt lat="45.20763" lon="0.56908">
        <ele>167.200012</ele>
      </trkpt>
      <trkpt lat="45.20756" lon="0.56939">
        <ele>166.799988</ele>
      </trkpt>
      <trkpt lat="45.20752" lon="0.57016">
        <ele>163.400024</ele>
      </trkpt>
      <trkpt lat="45.20746" lon="0.57104">
        <ele>162.400024</ele>
      </trkpt>
      <trkpt lat="45.20751" lon="0.57298">
        <ele>159.400024</ele>
      </trkpt>
      <trkpt lat="45.20748" lon="0.57351">
        <ele>158.400024</ele>
      </trkpt>
      <trkpt lat="45.20685" lon="0.5764">
        <ele>162</ele>
      </trkpt>
      <trkpt lat="45.20678" lon="0.57671">
        <ele>163.200012</ele>
      </trkpt>
      <trkpt lat="45.20668" lon="0.57691">
        <ele>164.400024</ele>
      </trkpt>
      <trkpt lat="45.20555" lon="0.57855">
        <ele>166.599976</ele>
      </trkpt>
      <trkpt lat="45.20502" lon="0.57944">
        <ele>163</ele>
      </trkpt>
      <trkpt lat="45.20496" lon="0.57951">
        <ele>162</ele>
      </trkpt>
      <trkpt lat="45.20498" lon="0.57968">
        <ele>161.599976</ele>
      </trkpt>
      <trkpt lat="45.20469" lon="0.58102">
        <ele>155.799988</ele>
      </trkpt>
      <trkpt lat="45.20447" lon="0.58166">
        <ele>154.200012</ele>
      </trkpt>
      <trkpt lat="45.20319" lon="0.58139">
        <ele>160.799988</ele>
      </trkpt>
      <trkpt lat="45.20282" lon="0.58147">
        <ele>165.200012</ele>
      </trkpt>
      <trkpt lat="45.20258" lon="0.58135">
        <ele>167.400024</ele>
      </trkpt>
      <trkpt lat="45.20189" lon="0.58039">
        <ele>165.200012</ele>
      </trkpt>
      <trkpt lat="45.2015" lon="0.58009">
        <ele>162.799988</ele>
      </trkpt>
      <trkpt lat="45.20073" lon="0.57973">
        <ele>156.799988</ele>
      </trkpt>
      <trkpt lat="45.19959" lon="0.57894">
        <ele>145.200012</ele>
      </trkpt>
      <trkpt lat="45.1993" lon="0.57866">
        <ele>142.599976</ele>
      </trkpt>
      <trkpt lat="45.19865" lon="0.57773">
        <ele>137.599976</ele>
      </trkpt>
      <trkpt lat="45.19848" lon="0.5775">
        <ele>136.400024</ele>
      </trkpt>
      <trkpt lat="45.1982" lon="0.5768">
        <ele>134</ele>
      </trkpt>
      <trkpt lat="45.19816" lon="0.57635">
        <ele>128.599976</ele>
      </trkpt>
      <trkpt lat="45.19805" lon="0.57596">
        <ele>127.799988</ele>
      </trkpt>
      <trkpt lat="45.19781" lon="0.57515">
        <ele>125.200012</ele>
      </trkpt>
      <trkpt lat="45.19745" lon="0.57426">
        <ele>122</ele>
      </trkpt>
      <trkpt lat="45.19717" lon="0.57366">
        <ele>121.400024</ele>
      </trkpt>
      <trkpt lat="45.19686" lon="0.57321">
        <ele>120</ele>
      </trkpt>
      <trkpt lat="45.19599" lon="0.57249">
        <ele>114.599976</ele>
      </trkpt>
      <trkpt lat="45.19566" lon="0.572">
        <ele>111.200012</ele>
      </trkpt>
      <trkpt lat="45.19499" lon="0.57038">
        <ele>95</ele>
      </trkpt>
      <trkpt lat="45.19428" lon="0.5691">
        <ele>81</ele>
      </trkpt>
      <trkpt lat="45.1942" lon="0.56918">
        <ele>79.200012</ele>
      </trkpt>
      <trkpt lat="45.1941" lon="0.56945">
        <ele>77.799988</ele>
      </trkpt>
      <trkpt lat="45.19403" lon="0.56995">
        <ele>76</ele>
      </trkpt>
      <trkpt lat="45.19411" lon="0.57175">
        <ele>73.400024</ele>
      </trkpt>
      <trkpt lat="45.19389" lon="0.57316">
        <ele>73.200012</ele>
      </trkpt>
      <trkpt lat="45.19391" lon="0.57413">
        <ele>73.200012</ele>
      </trkpt>
      <trkpt lat="45.19389" lon="0.57423">
        <ele>73</ele>
      </trkpt>
      <trkpt lat="45.19369" lon="0.57433">
        <ele>71.200012</ele>
      </trkpt>
      <trkpt lat="45.19368" lon="0.57428">
        <ele>71.799988</ele>
      </trkpt>
      <trkpt lat="45.19355" lon="0.57391">
        <ele>72</ele>
      </trkpt>
      <trkpt lat="45.19305" lon="0.57354">
        <ele>73.400024</ele>
      </trkpt>
      <trkpt lat="45.19301" lon="0.5734">
        <ele>74</ele>
      </trkpt>
      <trkpt lat="45.19337" lon="0.56863">
        <ele>75.599976</ele>
      </trkpt>
      <trkpt lat="45.19345" lon="0.56828">
        <ele>75.400024</ele>
      </trkpt>
      <trkpt lat="45.19356" lon="0.56809">
        <ele>75.400024</ele>
      </trkpt>
      <trkpt lat="45.19426" lon="0.5676">
        <ele>76.799988</ele>
      </trkpt>
      <trkpt lat="45.19475" lon="0.56692">
        <ele>81.200012</ele>
      </trkpt>
      <trkpt lat="45.19482" lon="0.5667">
        <ele>83.200012</ele>
      </trkpt>
      <trkpt lat="45.1948" lon="0.56617">
        <ele>84.599976</ele>
      </trkpt>
      <trkpt lat="45.19478" lon="0.56558">
        <ele>85.400024</ele>
      </trkpt>
      <trkpt lat="45.19455" lon="0.56495">
        <ele>88.599976</ele>
      </trkpt>
      <trkpt lat="45.19409" lon="0.56423">
        <ele>94.799988</ele>
      </trkpt>
      <trkpt lat="45.19404" lon="0.56407">
        <ele>96.400024</ele>
      </trkpt>
      <trkpt lat="45.19413" lon="0.56367">
        <ele>99.599976</ele>
      </trkpt>
      <trkpt lat="45.19459" lon="0.56243">
        <ele>100.400024</ele>
      </trkpt>
      <trkpt lat="45.19464" lon="0.56076">
        <ele>98.400024</ele>
      </trkpt>
      <trkpt lat="45.19451" lon="0.55971">
        <ele>97.799988</ele>
      </trkpt>
      <trkpt lat="45.19374" lon="0.55991">
        <ele>103.799988</ele>
      </trkpt>
      <trkpt lat="45.19316" lon="0.55987">
        <ele>109.599976</ele>
      </trkpt>
      <trkpt lat="45.1921" lon="0.5593">
        <ele>126</ele>
      </trkpt>
      <trkpt lat="45.19159" lon="0.55923">
        <ele>133.799988</ele>
      </trkpt>
      <trkpt lat="45.19149" lon="0.5592">
        <ele>135.400024</ele>
      </trkpt>
      <trkpt lat="45.19119" lon="0.55915">
        <ele>139.799988</ele>
      </trkpt>
      <trkpt lat="45.19053" lon="0.55926">
        <ele>144.799988</ele>
      </trkpt>
      <trkpt lat="45.19038" lon="0.5592">
        <ele>144.400024</ele>
      </trkpt>
      <trkpt lat="45.19008" lon="0.55845">
        <ele>145.400024</ele>
      </trkpt>
      <trkpt lat="45.18955" lon="0.5573">
        <ele>148.599976</ele>
      </trkpt>
      <trkpt lat="45.18941" lon="0.55669">
        <ele>150</ele>
      </trkpt>
      <trkpt lat="45.18939" lon="0.55628">
        <ele>150.799988</ele>
      </trkpt>
      <trkpt lat="45.18958" lon="0.55484">
        <ele>156</ele>
      </trkpt>
      <trkpt lat="45.18953" lon="0.55391">
        <ele>155.799988</ele>
      </trkpt>
      <trkpt lat="45.18958" lon="0.55336">
        <ele>153.200012</ele>
      </trkpt>
      <trkpt lat="45.18937" lon="0.5526">
        <ele>149.400024</ele>
      </trkpt>
      <trkpt lat="45.18936" lon="0.55244">
        <ele>147.799988</ele>
      </trkpt>
      <trkpt lat="45.18948" lon="0.55238">
        <ele>148.400024</ele>
      </trkpt>
      <trkpt lat="45.18975" lon="0.55197">
        <ele>149.200012</ele>
      </trkpt>
      <trkpt lat="45.19007" lon="0.55098">
        <ele>156.400024</ele>
      </trkpt>
      <trkpt lat="45.19012" lon="0.55083">
        <ele>158.599976</ele>
      </trkpt>
      <trkpt lat="45.19028" lon="0.55036">
        <ele>167</ele>
      </trkpt>
      <trkpt lat="45.19051" lon="0.54953">
        <ele>175.400024</ele>
      </trkpt>
      <trkpt lat="45.19058" lon="0.54931">
        <ele>176.400024</ele>
      </trkpt>
      <trkpt lat="45.19069" lon="0.54884">
        <ele>179.200012</ele>
      </trkpt>
      <trkpt lat="45.1907" lon="0.54823">
        <ele>179.599976</ele>
      </trkpt>
      <trkpt lat="45.19094" lon="0.54726">
        <ele>181</ele>
      </trkpt>
      <trkpt lat="45.19098" lon="0.5467">
        <ele>181</ele>
      </trkpt>
      <trkpt lat="45.19099" lon="0.54647">
        <ele>181</ele>
      </trkpt>
      <trkpt lat="45.19124" lon="0.5459">
        <ele>178</ele>
      </trkpt>
      <trkpt lat="45.19178" lon="0.54515">
        <ele>171.599976</ele>
      </trkpt>
      <trkpt lat="45.19195" lon="0.54475">
        <ele>167.599976</ele>
      </trkpt>
      <trkpt lat="45.19225" lon="0.5436">
        <ele>162</ele>
      </trkpt>
      <trkpt lat="45.19243" lon="0.54321">
        <ele>160.799988</ele>
      </trkpt>
      <trkpt lat="45.19308" lon="0.54209">
        <ele>157.599976</ele>
      </trkpt>
      <trkpt lat="45.19331" lon="0.5418">
        <ele>157.200012</ele>
      </trkpt>
      <trkpt lat="45.19419" lon="0.54117">
        <ele>158.599976</ele>
      </trkpt>
      <trkpt lat="45.19419" lon="0.54111">
        <ele>159</ele>
      </trkpt>
      <trkpt lat="45.19409" lon="0.54105">
        <ele>158.799988</ele>
      </trkpt>
      <trkpt lat="45.1938" lon="0.54095">
        <ele>155.799988</ele>
      </trkpt>
      <trkpt lat="45.19308" lon="0.54048">
        <ele>144.799988</ele>
      </trkpt>
      <trkpt lat="45.19233" lon="0.54036">
        <ele>135.599976</ele>
      </trkpt>
      <trkpt lat="45.19184" lon="0.54038">
        <ele>131</ele>
      </trkpt>
      <trkpt lat="45.19146" lon="0.54025">
        <ele>127.799988</ele>
      </trkpt>
      <trkpt lat="45.19105" lon="0.54021">
        <ele>122.799988</ele>
      </trkpt>
      <trkpt lat="45.19068" lon="0.54029">
        <ele>114</ele>
      </trkpt>
      <trkpt lat="45.19053" lon="0.54015">
        <ele>111.599976</ele>
      </trkpt>
      <trkpt lat="45.19014" lon="0.53953">
        <ele>103.599976</ele>
      </trkpt>
      <trkpt lat="45.19015" lon="0.53925">
        <ele>100.799988</ele>
      </trkpt>
      <trkpt lat="45.19024" lon="0.53904">
        <ele>100.200012</ele>
      </trkpt>
      <trkpt lat="45.1896" lon="0.5388">
        <ele>100</ele>
      </trkpt>
      <trkpt lat="45.18911" lon="0.53873">
        <ele>97.400024</ele>
      </trkpt>
      <trkpt lat="45.18828" lon="0.53828">
        <ele>94.200012</ele>
      </trkpt>
      <trkpt lat="45.18808" lon="0.5381">
        <ele>93</ele>
      </trkpt>
      <trkpt lat="45.18781" lon="0.53775">
        <ele>90.799988</ele>
      </trkpt>
      <trkpt lat="45.18765" lon="0.53742">
        <ele>89.400024</ele>
      </trkpt>
      <trkpt lat="45.18725" lon="0.53704">
        <ele>86.200012</ele>
      </trkpt>
      <trkpt lat="45.18697" lon="0.53687">
        <ele>85.599976</ele>
      </trkpt>
      <trkpt lat="45.18603" lon="0.5366">
        <ele>85</ele>
      </trkpt>
      <trkpt lat="45.18537" lon="0.5365">
        <ele>83.400024</ele>
      </trkpt>
      <trkpt lat="45.18394" lon="0.53679">
        <ele>80</ele>
      </trkpt>
      <trkpt lat="45.18255" lon="0.53808">
        <ele>82.400024</ele>
      </trkpt>
      <trkpt lat="45.18212" lon="0.53861">
        <ele>82.200012</ele>
      </trkpt>
      <trkpt lat="45.1819" lon="0.53824">
        <ele>80.799988</ele>
      </trkpt>
      <trkpt lat="45.18161" lon="0.53766">
        <ele>75.400024</ele>
      </trkpt>
      <trkpt lat="45.18156" lon="0.53718">
        <ele>73.599976</ele>
      </trkpt>
      <trkpt lat="45.18145" lon="0.5369">
        <ele>75</ele>
      </trkpt>
      <trkpt lat="45.18119" lon="0.5365">
        <ele>79.400024</ele>
      </trkpt>
      <trkpt lat="45.1811" lon="0.53637">
        <ele>80.599976</ele>
      </trkpt>
      <trkpt lat="45.1811" lon="0.53628">
        <ele>81.200012</ele>
      </trkpt>
      <trkpt lat="45.18152" lon="0.53584">
        <ele>85.200012</ele>
      </trkpt>
      <trkpt lat="45.18134" lon="0.53535">
        <ele>87.400024</ele>
      </trkpt>
      <trkpt lat="45.18077" lon="0.53391">
        <ele>98</ele>
      </trkpt>
      <trkpt lat="45.18046" lon="0.53283">
        <ele>103.799988</ele>
      </trkpt>
      <trkpt lat="45.18025" lon="0.53232">
        <ele>107.200012</ele>
      </trkpt>
      <trkpt lat="45.17995" lon="0.53177">
        <ele>110.200012</ele>
      </trkpt>
      <trkpt lat="45.17936" lon="0.53124">
        <ele>117.400024</ele>
      </trkpt>
      <trkpt lat="45.17924" lon="0.53091">
        <ele>118</ele>
      </trkpt>
      <trkpt lat="45.17912" lon="0.53078">
        <ele>117.599976</ele>
      </trkpt>
      <trkpt lat="45.17893" lon="0.53037">
        <ele>116</ele>
      </trkpt>
      <trkpt lat="45.17897" lon="0.53008">
        <ele>115.200012</ele>
      </trkpt>
      <trkpt lat="45.17892" lon="0.52967">
        <ele>112.599976</ele>
      </trkpt>
      <trkpt lat="45.17864" lon="0.52893">
        <ele>108.799988</ele>
      </trkpt>
      <trkpt lat="45.17834" lon="0.52841">
        <ele>106</ele>
      </trkpt>
      <trkpt lat="45.17839" lon="0.52809">
        <ele>104.599976</ele>
      </trkpt>
      <trkpt lat="45.17846" lon="0.52789">
        <ele>103.599976</ele>
      </trkpt>
      <trkpt lat="45.17873" lon="0.52761">
        <ele>105.599976</ele>
      </trkpt>
      <trkpt lat="45.17887" lon="0.52733">
        <ele>108.400024</ele>
      </trkpt>
      <trkpt lat="45.17913" lon="0.52644">
        <ele>116.599976</ele>
      </trkpt>
      <trkpt lat="45.17913" lon="0.52607">
        <ele>119.799988</ele>
      </trkpt>
      <trkpt lat="45.17899" lon="0.52561">
        <ele>125.200012</ele>
      </trkpt>
      <trkpt lat="45.17874" lon="0.52516">
        <ele>131.200012</ele>
      </trkpt>
      <trkpt lat="45.1786" lon="0.52477">
        <ele>134.400024</ele>
      </trkpt>
      <trkpt lat="45.17824" lon="0.52335">
        <ele>146.400024</ele>
      </trkpt>
      <trkpt lat="45.178" lon="0.52274">
        <ele>152</ele>
      </trkpt>
      <trkpt lat="45.17787" lon="0.52225">
        <ele>156.400024</ele>
      </trkpt>
      <trkpt lat="45.17755" lon="0.5216">
        <ele>161.799988</ele>
      </trkpt>
      <trkpt lat="45.17708" lon="0.52104">
        <ele>170.200012</ele>
      </trkpt>
      <trkpt lat="45.1767" lon="0.52048">
        <ele>174.400024</ele>
      </trkpt>
      <trkpt lat="45.17636" lon="0.5201">
        <ele>176.400024</ele>
      </trkpt>
      <trkpt lat="45.17598" lon="0.52004">
        <ele>176</ele>
      </trkpt>
      <trkpt lat="45.17561" lon="0.52018">
        <ele>175</ele>
      </trkpt>
      <trkpt lat="45.175" lon="0.52079">
        <ele>175.799988</ele>
      </trkpt>
      <trkpt lat="45.17491" lon="0.52081">
        <ele>176.400024</ele>
      </trkpt>
      <trkpt lat="45.17458" lon="0.52058">
        <ele>178.599976</ele>
      </trkpt>
      <trkpt lat="45.1744" lon="0.52008">
        <ele>179.200012</ele>
      </trkpt>
      <trkpt lat="45.17433" lon="0.52013">
        <ele>179.599976</ele>
      </trkpt>
      <trkpt lat="45.1742" lon="0.52069">
        <ele>177.200012</ele>
      </trkpt>
      <trkpt lat="45.17411" lon="0.52139">
        <ele>173.200012</ele>
      </trkpt>
      <trkpt lat="45.17408" lon="0.52147">
        <ele>171.599976</ele>
      </trkpt>
      <trkpt lat="45.17399" lon="0.52134">
        <ele>170.799988</ele>
      </trkpt>
      <trkpt lat="45.17385" lon="0.52092">
        <ele>169.400024</ele>
      </trkpt>
      <trkpt lat="45.17357" lon="0.52069">
        <ele>168.799988</ele>
      </trkpt>
      <trkpt lat="45.17303" lon="0.52075">
        <ele>171.799988</ele>
      </trkpt>
      <trkpt lat="45.17264" lon="0.52073">
        <ele>174.799988</ele>
      </trkpt>
      <trkpt lat="45.17258" lon="0.52068">
        <ele>175.599976</ele>
      </trkpt>
      <trkpt lat="45.17247" lon="0.52058">
        <ele>176</ele>
      </trkpt>
      <trkpt lat="45.172" lon="0.52042">
        <ele>178.400024</ele>
      </trkpt>
      <trkpt lat="45.17165" lon="0.52011">
        <ele>179.200012</ele>
      </trkpt>
      <trkpt lat="45.17138" lon="0.51978">
        <ele>179.599976</ele>
      </trkpt>
      <trkpt lat="45.17079" lon="0.51969">
        <ele>180.200012</ele>
      </trkpt>
      <trkpt lat="45.17042" lon="0.51974">
        <ele>180.799988</ele>
      </trkpt>
      <trkpt lat="45.16878" lon="0.52029">
        <ele>184.599976</ele>
      </trkpt>
      <trkpt lat="45.16789" lon="0.52023">
        <ele>185.200012</ele>
      </trkpt>
      <trkpt lat="45.16759" lon="0.5201">
        <ele>184.599976</ele>
      </trkpt>
      <trkpt lat="45.16692" lon="0.51946">
        <ele>183.200012</ele>
      </trkpt>
      <trkpt lat="45.16508" lon="0.51733">
        <ele>178.200012</ele>
      </trkpt>
      <trkpt lat="45.16452" lon="0.51683">
        <ele>173.599976</ele>
      </trkpt>
      <trkpt lat="45.16433" lon="0.51694">
        <ele>171.599976</ele>
      </trkpt>
      <trkpt lat="45.16411" lon="0.51641">
        <ele>170.400024</ele>
      </trkpt>
      <trkpt lat="45.16398" lon="0.51614">
        <ele>194.582809</ele>
      </trkpt>
      <trkpt lat="45.16382" lon="0.51582">
        <ele>194.337387</ele>
      </trkpt>
      <trkpt lat="45.1637" lon="0.5157">
        <ele>193.45874</ele>
      </trkpt>
      <trkpt lat="45.16362" lon="0.51562">
        <ele>193.256409</ele>
      </trkpt>
      <trkpt lat="45.16353" lon="0.51553">
        <ele>193.337189</ele>
      </trkpt>
      <trkpt lat="45.16345" lon="0.51544">
        <ele>193.251862</ele>
      </trkpt>
      <trkpt lat="45.16328" lon="0.51527">
        <ele>193.215363</ele>
      </trkpt>
      <trkpt lat="45.16309" lon="0.51516">
        <ele>193.16423</ele>
      </trkpt>
      <trkpt lat="45.16303" lon="0.51531">
        <ele>192.483414</ele>
      </trkpt>
      <trkpt lat="45.1628" lon="0.51538">
        <ele>191.451706</ele>
      </trkpt>
      <trkpt lat="45.16252" lon="0.51534">
        <ele>190.680374</ele>
      </trkpt>
      <trkpt lat="45.16224" lon="0.5154">
        <ele>189.507736</ele>
      </trkpt>
      <trkpt lat="45.16188" lon="0.5154">
        <ele>164.200012</ele>
      </trkpt>
      <trkpt lat="45.16169" lon="0.5155">
        <ele>163.200012</ele>
      </trkpt>
      <trkpt lat="45.16153" lon="0.51584">
        <ele>161.599976</ele>
      </trkpt>
      <trkpt lat="45.16152" lon="0.51618">
        <ele>160</ele>
      </trkpt>
      <trkpt lat="45.16144" lon="0.51637">
        <ele>159</ele>
      </trkpt>
      <trkpt lat="45.16084" lon="0.51725">
        <ele>152.599976</ele>
      </trkpt>
      <trkpt lat="45.16043" lon="0.51766">
        <ele>150.200012</ele>
      </trkpt>
      <trkpt lat="45.15958" lon="0.51819">
        <ele>141</ele>
      </trkpt>
      <trkpt lat="45.15937" lon="0.51849">
        <ele>135.400024</ele>
      </trkpt>
      <trkpt lat="45.15904" lon="0.51913">
        <ele>126.400024</ele>
      </trkpt>
      <trkpt lat="45.15761" lon="0.52126">
        <ele>98.400024</ele>
      </trkpt>
      <trkpt lat="45.15704" lon="0.522">
        <ele>82.400024</ele>
      </trkpt>
      <trkpt lat="45.15688" lon="0.52216">
        <ele>75.200012</ele>
      </trkpt>
      <trkpt lat="45.15661" lon="0.52207">
        <ele>69.599976</ele>
      </trkpt>
      <trkpt lat="45.15648" lon="0.5221">
        <ele>69</ele>
      </trkpt>
      <trkpt lat="45.15553" lon="0.5228">
        <ele>70.599976</ele>
      </trkpt>
      <trkpt lat="45.15459" lon="0.52321">
        <ele>70.599976</ele>
      </trkpt>
      <trkpt lat="45.1535" lon="0.52395">
        <ele>68</ele>
      </trkpt>
      <trkpt lat="45.15318" lon="0.52434">
        <ele>66.799988</ele>
      </trkpt>
      <trkpt lat="45.15239" lon="0.52579">
        <ele>61.400024</ele>
      </trkpt>
      <trkpt lat="45.15188" lon="0.5265">
        <ele>58.400024</ele>
      </trkpt>
      <trkpt lat="45.15083" lon="0.52817">
        <ele>51.799988</ele>
      </trkpt>
      <trkpt lat="45.15038" lon="0.52861">
        <ele>52</ele>
      </trkpt>
      <trkpt lat="45.14985" lon="0.52797">
        <ele>55.599976</ele>
      </trkpt>
      <trkpt lat="45.14942" lon="0.52758">
        <ele>56.599976</ele>
      </trkpt>
      <trkpt lat="45.14867" lon="0.52709">
        <ele>54.799988</ele>
      </trkpt>
      <trkpt lat="45.14743" lon="0.52628">
        <ele>52.200012</ele>
      </trkpt>
      <trkpt lat="45.1473" lon="0.52611">
        <ele>52</ele>
      </trkpt>
      <trkpt lat="45.14752" lon="0.52327">
        <ele>57</ele>
      </trkpt>
      <trkpt lat="45.1475" lon="0.5225">
        <ele>57.599976</ele>
      </trkpt>
      <trkpt lat="45.14716" lon="0.52135">
        <ele>60</ele>
      </trkpt>
      <trkpt lat="45.14705" lon="0.5208">
        <ele>60.599976</ele>
      </trkpt>
      <trkpt lat="45.14699" lon="0.51979">
        <ele>60.799988</ele>
      </trkpt>
      <trkpt lat="45.1466" lon="0.51777">
        <ele>62.400024</ele>
      </trkpt>
      <trkpt lat="45.14651" lon="0.51775">
        <ele>62.599976</ele>
      </trkpt>
      <trkpt lat="45.14606" lon="0.51812">
        <ele>61.400024</ele>
      </trkpt>
      <trkpt lat="45.14594" lon="0.51808">
        <ele>61</ele>
      </trkpt>
      <trkpt lat="45.14579" lon="0.51804">
        <ele>60.799988</ele>
      </trkpt>
      <trkpt lat="45.1455" lon="0.51828">
        <ele>60.599976</ele>
      </trkpt>
      <trkpt lat="45.14506" lon="0.51849">
        <ele>59.599976</ele>
      </trkpt>
      <trkpt lat="45.14466" lon="0.51906">
        <ele>58</ele>
      </trkpt>
      <trkpt lat="45.14458" lon="0.51929">
        <ele>57.799988</ele>
      </trkpt>
    </trkseg>
  </trk>
  <trk>
    <name><![CDATA[AST 32 NOIR]]></name>
    <trkseg>
      <trkpt lat="45.14437" lon="0.51905">
        <ele>29.599976</ele>
      </trkpt>
      <trkpt lat="45.14443" lon="0.51907">
        <ele>29.799988</ele>
      </trkpt>
      <trkpt lat="45.14478" lon="0.51856">
        <ele>30.599976</ele>
      </trkpt>
      <trkpt lat="45.14576" lon="0.51804">
        <ele>32.599976</ele>
      </trkpt>
      <trkpt lat="45.14594" lon="0.51811">
        <ele>33.200012</ele>
      </trkpt>
      <trkpt lat="45.14619" lon="0.51783">
        <ele>33.599976</ele>
      </trkpt>
      <trkpt lat="45.14643" lon="0.5178">
        <ele>34.599976</ele>
      </trkpt>
      <trkpt lat="45.14662" lon="0.51846">
        <ele>34.400024</ele>
      </trkpt>
      <trkpt lat="45.14692" lon="0.51975">
        <ele>33.200012</ele>
      </trkpt>
      <trkpt lat="45.14705" lon="0.52105">
        <ele>32.599976</ele>
      </trkpt>
      <trkpt lat="45.1475" lon="0.52258">
        <ele>30.799988</ele>
      </trkpt>
      <trkpt lat="45.14865" lon="0.52031">
        <ele>34.799988</ele>
      </trkpt>
      <trkpt lat="45.14911" lon="0.51923">
        <ele>38</ele>
      </trkpt>
      <trkpt lat="45.14927" lon="0.51878">
        <ele>39</ele>
      </trkpt>
      <trkpt lat="45.14952" lon="0.51742">
        <ele>42.200012</ele>
      </trkpt>
      <trkpt lat="45.14973" lon="0.51678">
        <ele>43.400024</ele>
      </trkpt>
      <trkpt lat="45.14979" lon="0.51634">
        <ele>44</ele>
      </trkpt>
      <trkpt lat="45.14997" lon="0.51579">
        <ele>44</ele>
      </trkpt>
      <trkpt lat="45.15006" lon="0.51535">
        <ele>44.599976</ele>
      </trkpt>
      <trkpt lat="45.15004" lon="0.51439">
        <ele>48.799988</ele>
      </trkpt>
      <trkpt lat="45.15024" lon="0.51295">
        <ele>58.400024</ele>
      </trkpt>
      <trkpt lat="45.15026" lon="0.5128">
        <ele>59.599976</ele>
      </trkpt>
      <trkpt lat="45.15027" lon="0.51263">
        <ele>61.599976</ele>
      </trkpt>
      <trkpt lat="45.1503" lon="0.5125">
        <ele>62.599976</ele>
      </trkpt>
      <trkpt lat="45.15032" lon="0.51228">
        <ele>64.200012</ele>
      </trkpt>
      <trkpt lat="45.15063" lon="0.51041">
        <ele>78.599976</ele>
      </trkpt>
      <trkpt lat="45.15027" lon="0.5086">
        <ele>86.799988</ele>
      </trkpt>
      <trkpt lat="45.15026" lon="0.50738">
        <ele>87.599976</ele>
      </trkpt>
      <trkpt lat="45.15002" lon="0.50644">
        <ele>92</ele>
      </trkpt>
      <trkpt lat="45.15008" lon="0.50626">
        <ele>93</ele>
      </trkpt>
      <trkpt lat="45.15024" lon="0.50626">
        <ele>95.400024</ele>
      </trkpt>
      <trkpt lat="45.15119" lon="0.50616">
        <ele>107.799988</ele>
      </trkpt>
      <trkpt lat="45.15265" lon="0.50606">
        <ele>113.200012</ele>
      </trkpt>
      <trkpt lat="45.15291" lon="0.50608">
        <ele>113</ele>
      </trkpt>
      <trkpt lat="45.15346" lon="0.50632">
        <ele>113.200012</ele>
      </trkpt>
      <trkpt lat="45.15493" lon="0.50723">
        <ele>113.799988</ele>
      </trkpt>
      <trkpt lat="45.15689" lon="0.50951">
        <ele>126.400024</ele>
      </trkpt>
      <trkpt lat="45.15786" lon="0.5103">
        <ele>124.200012</ele>
      </trkpt>
      <trkpt lat="45.15953" lon="0.51143">
        <ele>124.799988</ele>
      </trkpt>
      <trkpt lat="45.16013" lon="0.51208">
        <ele>126.799988</ele>
      </trkpt>
      <trkpt lat="45.16032" lon="0.51176">
        <ele>127.400024</ele>
      </trkpt>
      <trkpt lat="45.1605" lon="0.51144">
        <ele>125</ele>
      </trkpt>
      <trkpt lat="45.16167" lon="0.51187">
        <ele>113.599976</ele>
      </trkpt>
      <trkpt lat="45.16233" lon="0.51192">
        <ele>104.200012</ele>
      </trkpt>
      <trkpt lat="45.16231" lon="0.51174">
        <ele>100.599976</ele>
      </trkpt>
      <trkpt lat="45.16208" lon="0.51136">
        <ele>96.400024</ele>
      </trkpt>
      <trkpt lat="45.16216" lon="0.51138">
        <ele>95.400024</ele>
      </trkpt>
      <trkpt lat="45.16243" lon="0.51149">
        <ele>93</ele>
      </trkpt>
      <trkpt lat="45.16295" lon="0.51136">
        <ele>88.400024</ele>
      </trkpt>
      <trkpt lat="45.16399" lon="0.51152">
        <ele>76.400024</ele>
      </trkpt>
      <trkpt lat="45.16419" lon="0.5114">
        <ele>74.799988</ele>
      </trkpt>
      <trkpt lat="45.16436" lon="0.51101">
        <ele>76.400024</ele>
      </trkpt>
      <trkpt lat="45.16475" lon="0.50967">
        <ele>96.400024</ele>
      </trkpt>
      <trkpt lat="45.16472" lon="0.50885">
        <ele>109.799988</ele>
      </trkpt>
      <trkpt lat="45.16485" lon="0.50843">
        <ele>118.400024</ele>
      </trkpt>
      <trkpt lat="45.16472" lon="0.50724">
        <ele>127.599976</ele>
      </trkpt>
      <trkpt lat="45.16455" lon="0.50646">
        <ele>131.599976</ele>
      </trkpt>
      <trkpt lat="45.16449" lon="0.50563">
        <ele>137.400024</ele>
      </trkpt>
      <trkpt lat="45.16452" lon="0.50513">
        <ele>140.400024</ele>
      </trkpt>
      <trkpt lat="45.16461" lon="0.5051">
        <ele>140.599976</ele>
      </trkpt>
      <trkpt lat="45.16532" lon="0.50582">
        <ele>146.400024</ele>
      </trkpt>
      <trkpt lat="45.16613" lon="0.50636">
        <ele>148.799988</ele>
      </trkpt>
      <trkpt lat="45.16651" lon="0.50656">
        <ele>148.200012</ele>
      </trkpt>
      <trkpt lat="45.16699" lon="0.50649">
        <ele>146.599976</ele>
      </trkpt>
      <trkpt lat="45.16922" lon="0.50592">
        <ele>142.400024</ele>
      </trkpt>
      <trkpt lat="45.1702" lon="0.50602">
        <ele>146.200012</ele>
      </trkpt>
      <trkpt lat="45.17159" lon="0.50641">
        <ele>154.599976</ele>
      </trkpt>
      <trkpt lat="45.17272" lon="0.50664">
        <ele>162</ele>
      </trkpt>
      <trkpt lat="45.17439" lon="0.50599">
        <ele>163.799988</ele>
      </trkpt>
      <trkpt lat="45.17471" lon="0.50125">
        <ele>165</ele>
      </trkpt>
      <trkpt lat="45.17462" lon="0.498">
        <ele>160</ele>
      </trkpt>
      <trkpt lat="45.17484" lon="0.49795">
        <ele>159.599976</ele>
      </trkpt>
      <trkpt lat="45.1755" lon="0.49831">
        <ele>156</ele>
      </trkpt>
      <trkpt lat="45.17579" lon="0.49826">
        <ele>155</ele>
      </trkpt>
      <trkpt lat="45.17691" lon="0.49781">
        <ele>156.599976</ele>
      </trkpt>
      <trkpt lat="45.17831" lon="0.49743">
        <ele>154.400024</ele>
      </trkpt>
      <trkpt lat="45.17859" lon="0.49718">
        <ele>155</ele>
      </trkpt>
      <trkpt lat="45.17879" lon="0.49684">
        <ele>156.200012</ele>
      </trkpt>
      <trkpt lat="45.18004" lon="0.49528">
        <ele>153.599976</ele>
      </trkpt>
      <trkpt lat="45.18069" lon="0.49406">
        <ele>147</ele>
      </trkpt>
      <trkpt lat="45.18076" lon="0.49367">
        <ele>190.627029</ele>
      </trkpt>
      <trkpt lat="45.18151" lon="0.49366">
        <ele>184.38414</ele>
      </trkpt>
      <trkpt lat="45.18186" lon="0.49363">
        <ele>180.119308</ele>
      </trkpt>
      <trkpt lat="45.18198" lon="0.49352">
        <ele>178.56604</ele>
      </trkpt>
      <trkpt lat="45.18214" lon="0.49337">
        <ele>125</ele>
      </trkpt>
      <trkpt lat="45.18243" lon="0.49352">
        <ele>123.400024</ele>
      </trkpt>
      <trkpt lat="45.18276" lon="0.49343">
        <ele>120.799988</ele>
      </trkpt>
      <trkpt lat="45.18305" lon="0.4932">
        <ele>118.799988</ele>
      </trkpt>
      <trkpt lat="45.18384" lon="0.49312">
        <ele>113.400024</ele>
      </trkpt>
      <trkpt lat="45.1845" lon="0.49258">
        <ele>99.799988</ele>
      </trkpt>
      <trkpt lat="45.18479" lon="0.49261">
        <ele>94.599976</ele>
      </trkpt>
      <trkpt lat="45.18562" lon="0.49305">
        <ele>88.599976</ele>
      </trkpt>
      <trkpt lat="45.18567" lon="0.49284">
        <ele>88.200012</ele>
      </trkpt>
      <trkpt lat="45.18571" lon="0.49261">
        <ele>88</ele>
      </trkpt>
      <trkpt lat="45.18602" lon="0.49255">
        <ele>94.799988</ele>
      </trkpt>
      <trkpt lat="45.18607" lon="0.49227">
        <ele>96</ele>
      </trkpt>
      <trkpt lat="45.18645" lon="0.49193">
        <ele>104.200012</ele>
      </trkpt>
      <trkpt lat="45.18672" lon="0.49149">
        <ele>112</ele>
      </trkpt>
      <trkpt lat="45.18708" lon="0.49035">
        <ele>115</ele>
      </trkpt>
      <trkpt lat="45.18743" lon="0.48943">
        <ele>122.799988</ele>
      </trkpt>
      <trkpt lat="45.18817" lon="0.48835">
        <ele>132.400024</ele>
      </trkpt>
      <trkpt lat="45.18864" lon="0.48785">
        <ele>130.400024</ele>
      </trkpt>
      <trkpt lat="45.18931" lon="0.48771">
        <ele>121.599976</ele>
      </trkpt>
      <trkpt lat="45.19035" lon="0.48716">
        <ele>112.400024</ele>
      </trkpt>
      <trkpt lat="45.19122" lon="0.48706">
        <ele>105.400024</ele>
      </trkpt>
      <trkpt lat="45.19157" lon="0.48689">
        <ele>102.400024</ele>
      </trkpt>
      <trkpt lat="45.19188" lon="0.4865">
        <ele>98.200012</ele>
      </trkpt>
      <trkpt lat="45.19219" lon="0.48563">
        <ele>88.799988</ele>
      </trkpt>
      <trkpt lat="45.19274" lon="0.48525">
        <ele>79.599976</ele>
      </trkpt>
      <trkpt lat="45.1934" lon="0.48478">
        <ele>75.400024</ele>
      </trkpt>
      <trkpt lat="45.19424" lon="0.48451">
        <ele>72.799988</ele>
      </trkpt>
      <trkpt lat="45.19481" lon="0.4841">
        <ele>72.599976</ele>
      </trkpt>
      <trkpt lat="45.19533" lon="0.48358">
        <ele>73.400024</ele>
      </trkpt>
      <trkpt lat="45.19576" lon="0.48338">
        <ele>75.799988</ele>
      </trkpt>
      <trkpt lat="45.19683" lon="0.48263">
        <ele>90.599976</ele>
      </trkpt>
      <trkpt lat="45.19743" lon="0.48238">
        <ele>100.799988</ele>
      </trkpt>
      <trkpt lat="45.19781" lon="0.48234">
        <ele>106.400024</ele>
      </trkpt>
      <trkpt lat="45.19829" lon="0.48208">
        <ele>111.799988</ele>
      </trkpt>
      <trkpt lat="45.1992" lon="0.48143">
        <ele>119.599976</ele>
      </trkpt>
      <trkpt lat="45.20015" lon="0.48126">
        <ele>131.599976</ele>
      </trkpt>
      <trkpt lat="45.20048" lon="0.48109">
        <ele>135</ele>
      </trkpt>
      <trkpt lat="45.20085" lon="0.48074">
        <ele>137.200012</ele>
      </trkpt>
      <trkpt lat="45.20139" lon="0.47978">
        <ele>140.400024</ele>
      </trkpt>
      <trkpt lat="45.20209" lon="0.47896">
        <ele>144.799988</ele>
      </trkpt>
      <trkpt lat="45.20338" lon="0.47803">
        <ele>150.599976</ele>
      </trkpt>
      <trkpt lat="45.20371" lon="0.47831">
        <ele>151.200012</ele>
      </trkpt>
      <trkpt lat="45.20392" lon="0.47805">
        <ele>151.400024</ele>
      </trkpt>
      <trkpt lat="45.20406" lon="0.47804">
        <ele>151.400024</ele>
      </trkpt>
      <trkpt lat="45.20452" lon="0.47858">
        <ele>148.400024</ele>
      </trkpt>
      <trkpt lat="45.20481" lon="0.47871">
        <ele>145.200012</ele>
      </trkpt>
      <trkpt lat="45.20492" lon="0.47863">
        <ele>144</ele>
      </trkpt>
      <trkpt lat="45.20639" lon="0.47438">
        <ele>151.200012</ele>
      </trkpt>
      <trkpt lat="45.20648" lon="0.47396">
        <ele>152.599976</ele>
      </trkpt>
      <trkpt lat="45.2065" lon="0.47235">
        <ele>147.400024</ele>
      </trkpt>
      <trkpt lat="45.20599" lon="0.47187">
        <ele>141.599976</ele>
      </trkpt>
      <trkpt lat="45.20579" lon="0.4719">
        <ele>136.400024</ele>
      </trkpt>
      <trkpt lat="45.20532" lon="0.47158">
        <ele>126</ele>
      </trkpt>
      <trkpt lat="45.20495" lon="0.47074">
        <ele>115</ele>
      </trkpt>
      <trkpt lat="45.20456" lon="0.46974">
        <ele>104.400024</ele>
      </trkpt>
      <trkpt lat="45.20454" lon="0.46944">
        <ele>102.200012</ele>
      </trkpt>
      <trkpt lat="45.2047" lon="0.46918">
        <ele>99.599976</ele>
      </trkpt>
      <trkpt lat="45.20455" lon="0.46845">
        <ele>102</ele>
      </trkpt>
      <trkpt lat="45.20443" lon="0.46785">
        <ele>105.799988</ele>
      </trkpt>
      <trkpt lat="45.20391" lon="0.46621">
        <ele>111.200012</ele>
      </trkpt>
      <trkpt lat="45.20418" lon="0.46582">
        <ele>111.200012</ele>
      </trkpt>
      <trkpt lat="45.20416" lon="0.46538">
        <ele>114.200012</ele>
      </trkpt>
      <trkpt lat="45.20459" lon="0.46469">
        <ele>124</ele>
      </trkpt>
      <trkpt lat="45.20496" lon="0.4637">
        <ele>128.400024</ele>
      </trkpt>
      <trkpt lat="45.20508" lon="0.46318">
        <ele>130.799988</ele>
      </trkpt>
      <trkpt lat="45.20515" lon="0.46273">
        <ele>133.200012</ele>
      </trkpt>
      <trkpt lat="45.2051" lon="0.46163">
        <ele>142.599976</ele>
      </trkpt>
      <trkpt lat="45.20527" lon="0.46054">
        <ele>149.599976</ele>
      </trkpt>
      <trkpt lat="45.20483" lon="0.45978">
        <ele>151.799988</ele>
      </trkpt>
      <trkpt lat="45.20438" lon="0.45848">
        <ele>153.200012</ele>
      </trkpt>
      <trkpt lat="45.20394" lon="0.45858">
        <ele>153.400024</ele>
      </trkpt>
      <trkpt lat="45.2034" lon="0.45853">
        <ele>151.599976</ele>
      </trkpt>
      <trkpt lat="45.20265" lon="0.45754">
        <ele>151.400024</ele>
      </trkpt>
      <trkpt lat="45.20246" lon="0.45742">
        <ele>151</ele>
      </trkpt>
      <trkpt lat="45.20138" lon="0.45645">
        <ele>144.599976</ele>
      </trkpt>
      <trkpt lat="45.2008" lon="0.45576">
        <ele>139.200012</ele>
      </trkpt>
      <trkpt lat="45.20063" lon="0.45577">
        <ele>135.599976</ele>
      </trkpt>
      <trkpt lat="45.2" lon="0.45633">
        <ele>139.200012</ele>
      </trkpt>
      <trkpt lat="45.19959" lon="0.45631">
        <ele>142.400024</ele>
      </trkpt>
      <trkpt lat="45.19946" lon="0.45616">
        <ele>142.400024</ele>
      </trkpt>
      <trkpt lat="45.19872" lon="0.45549">
        <ele>145.400024</ele>
      </trkpt>
      <trkpt lat="45.19712" lon="0.45339">
        <ele>150.599976</ele>
      </trkpt>
      <trkpt lat="45.19694" lon="0.45324">
        <ele>151.200012</ele>
      </trkpt>
      <trkpt lat="45.19674" lon="0.45344">
        <ele>152</ele>
      </trkpt>
      <trkpt lat="45.19554" lon="0.45603">
        <ele>156.200012</ele>
      </trkpt>
      <trkpt lat="45.1952" lon="0.45703">
        <ele>155.200012</ele>
      </trkpt>
      <trkpt lat="45.19482" lon="0.46142">
        <ele>151.200012</ele>
      </trkpt>
      <trkpt lat="45.19436" lon="0.4638">
        <ele>147.400024</ele>
      </trkpt>
      <trkpt lat="45.19414" lon="0.46695">
        <ele>142.799988</ele>
      </trkpt>
      <trkpt lat="45.19407" lon="0.46702">
        <ele>142.799988</ele>
      </trkpt>
      <trkpt lat="45.19397" lon="0.46692">
        <ele>142.799988</ele>
      </trkpt>
      <trkpt lat="45.19378" lon="0.4664">
        <ele>139.400024</ele>
      </trkpt>
      <trkpt lat="45.19344" lon="0.4667">
        <ele>132.799988</ele>
      </trkpt>
      <trkpt lat="45.1933" lon="0.46662">
        <ele>130.400024</ele>
      </trkpt>
      <trkpt lat="45.19322" lon="0.46635">
        <ele>128.200012</ele>
      </trkpt>
      <trkpt lat="45.19298" lon="0.46623">
        <ele>124.400024</ele>
      </trkpt>
      <trkpt lat="45.1928" lon="0.46621">
        <ele>117.200012</ele>
      </trkpt>
      <trkpt lat="45.19271" lon="0.46662">
        <ele>113.799988</ele>
      </trkpt>
      <trkpt lat="45.19265" lon="0.46613">
        <ele>112.200012</ele>
      </trkpt>
      <trkpt lat="45.19249" lon="0.46574">
        <ele>110.599976</ele>
      </trkpt>
      <trkpt lat="45.19249" lon="0.46463">
        <ele>106.400024</ele>
      </trkpt>
      <trkpt lat="45.19218" lon="0.46413">
        <ele>102.799988</ele>
      </trkpt>
      <trkpt lat="45.19193" lon="0.46359">
        <ele>99.799988</ele>
      </trkpt>
      <trkpt lat="45.19184" lon="0.46368">
        <ele>101.400024</ele>
      </trkpt>
      <trkpt lat="45.19155" lon="0.46418">
        <ele>99.799988</ele>
      </trkpt>
      <trkpt lat="45.19124" lon="0.46607">
        <ele>96.599976</ele>
      </trkpt>
      <trkpt lat="45.19139" lon="0.46708">
        <ele>94.400024</ele>
      </trkpt>
      <trkpt lat="45.19132" lon="0.46789">
        <ele>92.400024</ele>
      </trkpt>
      <trkpt lat="45.19139" lon="0.46845">
        <ele>91.799988</ele>
      </trkpt>
      <trkpt lat="45.19123" lon="0.46904">
        <ele>90.599976</ele>
      </trkpt>
      <trkpt lat="45.19024" lon="0.47114">
        <ele>83.599976</ele>
      </trkpt>
      <trkpt lat="45.18964" lon="0.47205">
        <ele>82.599976</ele>
      </trkpt>
      <trkpt lat="45.18881" lon="0.47277">
        <ele>80.599976</ele>
      </trkpt>
      <trkpt lat="45.18844" lon="0.474">
        <ele>82.599976</ele>
      </trkpt>
      <trkpt lat="45.18829" lon="0.47423">
        <ele>85.200012</ele>
      </trkpt>
      <trkpt lat="45.18791" lon="0.47578">
        <ele>87.200012</ele>
      </trkpt>
      <trkpt lat="45.18777" lon="0.47711">
        <ele>85.799988</ele>
      </trkpt>
      <trkpt lat="45.18747" lon="0.47873">
        <ele>72.799988</ele>
      </trkpt>
      <trkpt lat="45.18751" lon="0.47905">
        <ele>71.799988</ele>
      </trkpt>
      <trkpt lat="45.18672" lon="0.47883">
        <ele>70.799988</ele>
      </trkpt>
      <trkpt lat="45.18585" lon="0.47859">
        <ele>67.200012</ele>
      </trkpt>
      <trkpt lat="45.18543" lon="0.47797">
        <ele>67.400024</ele>
      </trkpt>
      <trkpt lat="45.1844" lon="0.47675">
        <ele>66.400024</ele>
      </trkpt>
      <trkpt lat="45.18338" lon="0.47581">
        <ele>64.599976</ele>
      </trkpt>
      <trkpt lat="45.18299" lon="0.4754">
        <ele>65.799988</ele>
      </trkpt>
      <trkpt lat="45.18319" lon="0.47465">
        <ele>67.400024</ele>
      </trkpt>
      <trkpt lat="45.18313" lon="0.47421">
        <ele>72.400024</ele>
      </trkpt>
      <trkpt lat="45.18295" lon="0.47389">
        <ele>76.200012</ele>
      </trkpt>
      <trkpt lat="45.1826" lon="0.47349">
        <ele>82.400024</ele>
      </trkpt>
      <trkpt lat="45.18162" lon="0.47298">
        <ele>85.599976</ele>
      </trkpt>
      <trkpt lat="45.1805" lon="0.47263">
        <ele>81.799988</ele>
      </trkpt>
      <trkpt lat="45.17984" lon="0.47227">
        <ele>82.400024</ele>
      </trkpt>
      <trkpt lat="45.17914" lon="0.47153">
        <ele>87.799988</ele>
      </trkpt>
      <trkpt lat="45.17897" lon="0.47123">
        <ele>89</ele>
      </trkpt>
      <trkpt lat="45.17891" lon="0.47079">
        <ele>88.599976</ele>
      </trkpt>
      <trkpt lat="45.17896" lon="0.47053">
        <ele>91.599976</ele>
      </trkpt>
      <trkpt lat="45.17953" lon="0.47056">
        <ele>99.599976</ele>
      </trkpt>
      <trkpt lat="45.17985" lon="0.47085">
        <ele>105</ele>
      </trkpt>
      <trkpt lat="45.18079" lon="0.47078">
        <ele>116.599976</ele>
      </trkpt>
      <trkpt lat="45.18157" lon="0.47019">
        <ele>124</ele>
      </trkpt>
      <trkpt lat="45.18192" lon="0.46983">
        <ele>126.200012</ele>
      </trkpt>
      <trkpt lat="45.18275" lon="0.46857">
        <ele>136.200012</ele>
      </trkpt>
      <trkpt lat="45.18308" lon="0.4683">
        <ele>140.400024</ele>
      </trkpt>
      <trkpt lat="45.18365" lon="0.46835">
        <ele>144.200012</ele>
      </trkpt>
      <trkpt lat="45.18443" lon="0.46885">
        <ele>139.200012</ele>
      </trkpt>
      <trkpt lat="45.18452" lon="0.46883">
        <ele>138.400024</ele>
      </trkpt>
      <trkpt lat="45.18455" lon="0.46832">
        <ele>137.799988</ele>
      </trkpt>
      <trkpt lat="45.18452" lon="0.46713">
        <ele>135.599976</ele>
      </trkpt>
      <trkpt lat="45.18478" lon="0.46474">
        <ele>144.400024</ele>
      </trkpt>
      <trkpt lat="45.18482" lon="0.46452">
        <ele>145.200012</ele>
      </trkpt>
      <trkpt lat="45.185" lon="0.46302">
        <ele>153.200012</ele>
      </trkpt>
      <trkpt lat="45.18634" lon="0.45899">
        <ele>159.799988</ele>
      </trkpt>
      <trkpt lat="45.18665" lon="0.45819">
        <ele>157.799988</ele>
      </trkpt>
      <trkpt lat="45.18686" lon="0.45656">
        <ele>160.799988</ele>
      </trkpt>
      <trkpt lat="45.1871" lon="0.45536">
        <ele>158.599976</ele>
      </trkpt>
      <trkpt lat="45.18715" lon="0.45521">
        <ele>208.309891</ele>
      </trkpt>
      <trkpt lat="45.18722" lon="0.45495">
        <ele>156.599976</ele>
      </trkpt>
      <trkpt lat="45.18725" lon="0.45343">
        <ele>154.799988</ele>
      </trkpt>
      <trkpt lat="45.18643" lon="0.45139">
        <ele>158.400024</ele>
      </trkpt>
      <trkpt lat="45.18633" lon="0.45026">
        <ele>155.599976</ele>
      </trkpt>
      <trkpt lat="45.18627" lon="0.44973">
        <ele>152.400024</ele>
      </trkpt>
      <trkpt lat="45.18633" lon="0.4482">
        <ele>139.799988</ele>
      </trkpt>
      <trkpt lat="45.18627" lon="0.4479">
        <ele>135.200012</ele>
      </trkpt>
      <trkpt lat="45.18584" lon="0.44688">
        <ele>127</ele>
      </trkpt>
      <trkpt lat="45.18544" lon="0.44634">
        <ele>122</ele>
      </trkpt>
      <trkpt lat="45.18535" lon="0.44608">
        <ele>120.599976</ele>
      </trkpt>
      <trkpt lat="45.18544" lon="0.44509">
        <ele>125.599976</ele>
      </trkpt>
      <trkpt lat="45.18534" lon="0.44485">
        <ele>129.400024</ele>
      </trkpt>
      <trkpt lat="45.18434" lon="0.44289">
        <ele>139.799988</ele>
      </trkpt>
      <trkpt lat="45.18415" lon="0.4423">
        <ele>142.599976</ele>
      </trkpt>
      <trkpt lat="45.18374" lon="0.44191">
        <ele>145.799988</ele>
      </trkpt>
      <trkpt lat="45.18365" lon="0.44162">
        <ele>148</ele>
      </trkpt>
      <trkpt lat="45.18365" lon="0.44051">
        <ele>151.200012</ele>
      </trkpt>
      <trkpt lat="45.18332" lon="0.43997">
        <ele>151.599976</ele>
      </trkpt>
      <trkpt lat="45.18313" lon="0.43919">
        <ele>152.200012</ele>
      </trkpt>
      <trkpt lat="45.1829" lon="0.43871">
        <ele>151.799988</ele>
      </trkpt>
      <trkpt lat="45.18204" lon="0.43832">
        <ele>153.200012</ele>
      </trkpt>
      <trkpt lat="45.18171" lon="0.43792">
        <ele>155.400024</ele>
      </trkpt>
      <trkpt lat="45.18149" lon="0.43741">
        <ele>159.200012</ele>
      </trkpt>
      <trkpt lat="45.18084" lon="0.43693">
        <ele>161.200012</ele>
      </trkpt>
      <trkpt lat="45.17947" lon="0.4355">
        <ele>158.799988</ele>
      </trkpt>
      <trkpt lat="45.1793" lon="0.43668">
        <ele>154.200012</ele>
      </trkpt>
      <trkpt lat="45.17893" lon="0.4382">
        <ele>145</ele>
      </trkpt>
      <trkpt lat="45.17816" lon="0.43955">
        <ele>135</ele>
      </trkpt>
      <trkpt lat="45.17786" lon="0.44006">
        <ele>129.400024</ele>
      </trkpt>
      <trkpt lat="45.17725" lon="0.44031">
        <ele>121.599976</ele>
      </trkpt>
      <trkpt lat="45.17676" lon="0.44081">
        <ele>116.599976</ele>
      </trkpt>
      <trkpt lat="45.17616" lon="0.44103">
        <ele>112.599976</ele>
      </trkpt>
      <trkpt lat="45.17538" lon="0.44184">
        <ele>118</ele>
      </trkpt>
      <trkpt lat="45.17513" lon="0.44208">
        <ele>120.799988</ele>
      </trkpt>
      <trkpt lat="45.17452" lon="0.44375">
        <ele>119</ele>
      </trkpt>
      <trkpt lat="45.17384" lon="0.4442">
        <ele>116.799988</ele>
      </trkpt>
      <trkpt lat="45.17344" lon="0.44434">
        <ele>115.799988</ele>
      </trkpt>
      <trkpt lat="45.17331" lon="0.44428">
        <ele>115.799988</ele>
      </trkpt>
      <trkpt lat="45.1736" lon="0.44338">
        <ele>124</ele>
      </trkpt>
      <trkpt lat="45.1737" lon="0.44235">
        <ele>134.599976</ele>
      </trkpt>
      <trkpt lat="45.17403" lon="0.43942">
        <ele>144.200012</ele>
      </trkpt>
      <trkpt lat="45.17405" lon="0.43867">
        <ele>145.200012</ele>
      </trkpt>
      <trkpt lat="45.17413" lon="0.43818">
        <ele>144.400024</ele>
      </trkpt>
      <trkpt lat="45.17446" lon="0.43728">
        <ele>147.400024</ele>
      </trkpt>
      <trkpt lat="45.17471" lon="0.43686">
        <ele>148.799988</ele>
      </trkpt>
      <trkpt lat="45.17478" lon="0.43654">
        <ele>149</ele>
      </trkpt>
      <trkpt lat="45.17474" lon="0.4352">
        <ele>144.599976</ele>
      </trkpt>
      <trkpt lat="45.17468" lon="0.43463">
        <ele>141.799988</ele>
      </trkpt>
      <trkpt lat="45.17409" lon="0.43398">
        <ele>135</ele>
      </trkpt>
      <trkpt lat="45.17391" lon="0.43323">
        <ele>128.799988</ele>
      </trkpt>
      <trkpt lat="45.17392" lon="0.43262">
        <ele>123</ele>
      </trkpt>
      <trkpt lat="45.17404" lon="0.43197">
        <ele>117.799988</ele>
      </trkpt>
      <trkpt lat="45.17392" lon="0.43131">
        <ele>116.400024</ele>
      </trkpt>
      <trkpt lat="45.17408" lon="0.43018">
        <ele>121.400024</ele>
      </trkpt>
      <trkpt lat="45.17429" lon="0.42888">
        <ele>122</ele>
      </trkpt>
      <trkpt lat="45.17479" lon="0.42784">
        <ele>112.799988</ele>
      </trkpt>
      <trkpt lat="45.17479" lon="0.42757">
        <ele>113.200012</ele>
      </trkpt>
      <trkpt lat="45.17464" lon="0.42733">
        <ele>113</ele>
      </trkpt>
      <trkpt lat="45.17389" lon="0.42686">
        <ele>110.799988</ele>
      </trkpt>
      <trkpt lat="45.17373" lon="0.42658">
        <ele>109.599976</ele>
      </trkpt>
      <trkpt lat="45.17351" lon="0.42602">
        <ele>111</ele>
      </trkpt>
      <trkpt lat="45.17349" lon="0.42573">
        <ele>111</ele>
      </trkpt>
      <trkpt lat="45.17322" lon="0.4254">
        <ele>110.200012</ele>
      </trkpt>
      <trkpt lat="45.17303" lon="0.42537">
        <ele>108.200012</ele>
      </trkpt>
      <trkpt lat="45.17248" lon="0.42575">
        <ele>101.799988</ele>
      </trkpt>
      <trkpt lat="45.17201" lon="0.4264">
        <ele>93.200012</ele>
      </trkpt>
      <trkpt lat="45.17151" lon="0.42661">
        <ele>94</ele>
      </trkpt>
      <trkpt lat="45.17071" lon="0.42853">
        <ele>99.400024</ele>
      </trkpt>
      <trkpt lat="45.17052" lon="0.42859">
        <ele>101.599976</ele>
      </trkpt>
      <trkpt lat="45.16979" lon="0.42849">
        <ele>115</ele>
      </trkpt>
      <trkpt lat="45.16798" lon="0.42813">
        <ele>126.400024</ele>
      </trkpt>
      <trkpt lat="45.1679" lon="0.42782">
        <ele>127</ele>
      </trkpt>
      <trkpt lat="45.16754" lon="0.42496">
        <ele>116.599976</ele>
      </trkpt>
      <trkpt lat="45.16786" lon="0.42417">
        <ele>119.200012</ele>
      </trkpt>
      <trkpt lat="45.16784" lon="0.42258">
        <ele>119.200012</ele>
      </trkpt>
      <trkpt lat="45.16845" lon="0.42116">
        <ele>121.200012</ele>
      </trkpt>
      <trkpt lat="45.16855" lon="0.42073">
        <ele>120</ele>
      </trkpt>
      <trkpt lat="45.16879" lon="0.42042">
        <ele>117.400024</ele>
      </trkpt>
      <trkpt lat="45.16854" lon="0.42038">
        <ele>115.599976</ele>
      </trkpt>
      <trkpt lat="45.16771" lon="0.42076">
        <ele>117</ele>
      </trkpt>
      <trkpt lat="45.16731" lon="0.42055">
        <ele>116.200012</ele>
      </trkpt>
      <trkpt lat="45.16724" lon="0.42038">
        <ele>116.200012</ele>
      </trkpt>
      <trkpt lat="45.16718" lon="0.41975">
        <ele>118</ele>
      </trkpt>
      <trkpt lat="45.16672" lon="0.41885">
        <ele>121</ele>
      </trkpt>
      <trkpt lat="45.16657" lon="0.41856">
        <ele>121.599976</ele>
      </trkpt>
      <trkpt lat="45.1666" lon="0.41843">
        <ele>121.599976</ele>
      </trkpt>
      <trkpt lat="45.16761" lon="0.41748">
        <ele>119.400024</ele>
      </trkpt>
      <trkpt lat="45.16794" lon="0.41675">
        <ele>117.799988</ele>
      </trkpt>
      <trkpt lat="45.16806" lon="0.41592">
        <ele>117.200012</ele>
      </trkpt>
      <trkpt lat="45.16805" lon="0.41556">
        <ele>117.799988</ele>
      </trkpt>
      <trkpt lat="45.16826" lon="0.41459">
        <ele>119.400024</ele>
      </trkpt>
      <trkpt lat="45.16854" lon="0.41345">
        <ele>119.200012</ele>
      </trkpt>
      <trkpt lat="45.1684" lon="0.41255">
        <ele>118</ele>
      </trkpt>
      <trkpt lat="45.16843" lon="0.41185">
        <ele>116.799988</ele>
      </trkpt>
      <trkpt lat="45.16831" lon="0.41143">
        <ele>114.799988</ele>
      </trkpt>
      <trkpt lat="45.16753" lon="0.41031">
        <ele>109</ele>
      </trkpt>
      <trkpt lat="45.16685" lon="0.40962">
        <ele>107.599976</ele>
      </trkpt>
      <trkpt lat="45.1662" lon="0.40848">
        <ele>101.200012</ele>
      </trkpt>
      <trkpt lat="45.16604" lon="0.40848">
        <ele>99.200012</ele>
      </trkpt>
      <trkpt lat="45.16557" lon="0.409">
        <ele>96.400024</ele>
      </trkpt>
      <trkpt lat="45.1651" lon="0.40921">
        <ele>93.799988</ele>
      </trkpt>
      <trkpt lat="45.16482" lon="0.40921">
        <ele>90.799988</ele>
      </trkpt>
      <trkpt lat="45.1645" lon="0.40895">
        <ele>85.799988</ele>
      </trkpt>
      <trkpt lat="45.16443" lon="0.40916">
        <ele>85.599976</ele>
      </trkpt>
      <trkpt lat="45.16406" lon="0.41086">
        <ele>93.599976</ele>
      </trkpt>
      <trkpt lat="45.16384" lon="0.41203">
        <ele>96.799988</ele>
      </trkpt>
      <trkpt lat="45.16376" lon="0.41211">
        <ele>97.599976</ele>
      </trkpt>
      <trkpt lat="45.16361" lon="0.41205">
        <ele>99</ele>
      </trkpt>
      <trkpt lat="45.16265" lon="0.41134">
        <ele>105.200012</ele>
      </trkpt>
      <trkpt lat="45.16251" lon="0.41104">
        <ele>105</ele>
      </trkpt>
      <trkpt lat="45.16255" lon="0.40728">
        <ele>97.400024</ele>
      </trkpt>
      <trkpt lat="45.1625" lon="0.40673">
        <ele>95.799988</ele>
      </trkpt>
      <trkpt lat="45.16237" lon="0.40624">
        <ele>95</ele>
      </trkpt>
      <trkpt lat="45.16162" lon="0.4042">
        <ele>83.799988</ele>
      </trkpt>
      <trkpt lat="45.1612" lon="0.40195">
        <ele>78.400024</ele>
      </trkpt>
      <trkpt lat="45.1611" lon="0.40164">
        <ele>76</ele>
      </trkpt>
      <trkpt lat="45.1608" lon="0.40123">
        <ele>112.981194</ele>
      </trkpt>
      <trkpt lat="45.15986" lon="0.40319">
        <ele>78.400024</ele>
      </trkpt>
      <trkpt lat="45.15976" lon="0.40333">
        <ele>79.799988</ele>
      </trkpt>
      <trkpt lat="45.15968" lon="0.40372">
        <ele>82.200012</ele>
      </trkpt>
      <trkpt lat="45.15972" lon="0.40423">
        <ele>85.400024</ele>
      </trkpt>
      <trkpt lat="45.16007" lon="0.40531">
        <ele>87.799988</ele>
      </trkpt>
      <trkpt lat="45.16005" lon="0.40559">
        <ele>89.799988</ele>
      </trkpt>
      <trkpt lat="45.15977" lon="0.40585">
        <ele>89.200012</ele>
      </trkpt>
      <trkpt lat="45.15934" lon="0.40655">
        <ele>85.200012</ele>
      </trkpt>
      <trkpt lat="45.15902" lon="0.40726">
        <ele>82.400024</ele>
      </trkpt>
      <trkpt lat="45.15882" lon="0.40796">
        <ele>78.799988</ele>
      </trkpt>
      <trkpt lat="45.15829" lon="0.40994">
        <ele>77.599976</ele>
      </trkpt>
      <trkpt lat="45.15755" lon="0.41175">
        <ele>81</ele>
      </trkpt>
      <trkpt lat="45.15743" lon="0.4122">
        <ele>81.400024</ele>
      </trkpt>
      <trkpt lat="45.15741" lon="0.4127">
        <ele>82</ele>
      </trkpt>
      <trkpt lat="45.15726" lon="0.41305">
        <ele>84.200012</ele>
      </trkpt>
      <trkpt lat="45.15695" lon="0.41313">
        <ele>86.799988</ele>
      </trkpt>
      <trkpt lat="45.15623" lon="0.41303">
        <ele>91.599976</ele>
      </trkpt>
      <trkpt lat="45.15579" lon="0.41317">
        <ele>92.200012</ele>
      </trkpt>
      <trkpt lat="45.15542" lon="0.41385">
        <ele>91</ele>
      </trkpt>
      <trkpt lat="45.15519" lon="0.41409">
        <ele>90</ele>
      </trkpt>
      <trkpt lat="45.15436" lon="0.41454">
        <ele>86</ele>
      </trkpt>
      <trkpt lat="45.15391" lon="0.41496">
        <ele>81.400024</ele>
      </trkpt>
      <trkpt lat="45.15332" lon="0.4153">
        <ele>79</ele>
      </trkpt>
      <trkpt lat="45.1529" lon="0.41551">
        <ele>79.200012</ele>
      </trkpt>
      <trkpt lat="45.15278" lon="0.41567">
        <ele>79.200012</ele>
      </trkpt>
      <trkpt lat="45.15278" lon="0.41648">
        <ele>82.200012</ele>
      </trkpt>
      <trkpt lat="45.1525" lon="0.41688">
        <ele>88</ele>
      </trkpt>
      <trkpt lat="45.15193" lon="0.41744">
        <ele>95.400024</ele>
      </trkpt>
      <trkpt lat="45.15072" lon="0.41829">
        <ele>96.200012</ele>
      </trkpt>
      <trkpt lat="45.15021" lon="0.41883">
        <ele>93.799988</ele>
      </trkpt>
      <trkpt lat="45.15017" lon="0.41908">
        <ele>93</ele>
      </trkpt>
      <trkpt lat="45.15102" lon="0.42398">
        <ele>100.400024</ele>
      </trkpt>
      <trkpt lat="45.15197" lon="0.42571">
        <ele>96.599976</ele>
      </trkpt>
      <trkpt lat="45.1522" lon="0.42661">
        <ele>98</ele>
      </trkpt>
      <trkpt lat="45.15237" lon="0.42711">
        <ele>99.400024</ele>
      </trkpt>
      <trkpt lat="45.15318" lon="0.42929">
        <ele>111</ele>
      </trkpt>
      <trkpt lat="45.15323" lon="0.42969">
        <ele>112.799988</ele>
      </trkpt>
      <trkpt lat="45.15317" lon="0.42983">
        <ele>113.400024</ele>
      </trkpt>
      <trkpt lat="45.15255" lon="0.42988">
        <ele>115.200012</ele>
      </trkpt>
      <trkpt lat="45.15171" lon="0.43054">
        <ele>115.799988</ele>
      </trkpt>
      <trkpt lat="45.15135" lon="0.43053">
        <ele>115.799988</ele>
      </trkpt>
      <trkpt lat="45.15019" lon="0.43">
        <ele>115.599976</ele>
      </trkpt>
      <trkpt lat="45.14955" lon="0.42959">
        <ele>116.200012</ele>
      </trkpt>
      <trkpt lat="45.14787" lon="0.42813">
        <ele>113</ele>
      </trkpt>
      <trkpt lat="45.14724" lon="0.42774">
        <ele>111.200012</ele>
      </trkpt>
      <trkpt lat="45.14706" lon="0.42742">
        <ele>111</ele>
      </trkpt>
      <trkpt lat="45.14632" lon="0.4273">
        <ele>111.200012</ele>
      </trkpt>
      <trkpt lat="45.14539" lon="0.42704">
        <ele>111.599976</ele>
      </trkpt>
      <trkpt lat="45.14364" lon="0.42736">
        <ele>115.200012</ele>
      </trkpt>
      <trkpt lat="45.14278" lon="0.42746">
        <ele>118</ele>
      </trkpt>
      <trkpt lat="45.14197" lon="0.42789">
        <ele>116.200012</ele>
      </trkpt>
      <trkpt lat="45.14125" lon="0.4284">
        <ele>118.599976</ele>
      </trkpt>
      <trkpt lat="45.14094" lon="0.42947">
        <ele>120.200012</ele>
      </trkpt>
      <trkpt lat="45.14051" lon="0.42956">
        <ele>121.799988</ele>
      </trkpt>
      <trkpt lat="45.13862" lon="0.43004">
        <ele>121.400024</ele>
      </trkpt>
      <trkpt lat="45.13603" lon="0.43102">
        <ele>110.799988</ele>
      </trkpt>
      <trkpt lat="45.13578" lon="0.43105">
        <ele>110.599976</ele>
      </trkpt>
      <trkpt lat="45.13519" lon="0.43093">
        <ele>111.799988</ele>
      </trkpt>
      <trkpt lat="45.13509" lon="0.43096">
        <ele>111.799988</ele>
      </trkpt>
      <trkpt lat="45.13494" lon="0.43236">
        <ele>112.400024</ele>
      </trkpt>
      <trkpt lat="45.13458" lon="0.4326">
        <ele>112.400024</ele>
      </trkpt>
      <trkpt lat="45.13414" lon="0.43281">
        <ele>114</ele>
      </trkpt>
      <trkpt lat="45.13337" lon="0.43362">
        <ele>116</ele>
      </trkpt>
      <trkpt lat="45.13321" lon="0.43365">
        <ele>116</ele>
      </trkpt>
      <trkpt lat="45.13304" lon="0.43366">
        <ele>115.599976</ele>
      </trkpt>
      <trkpt lat="45.13297" lon="0.43378">
        <ele>114.799988</ele>
      </trkpt>
      <trkpt lat="45.13296" lon="0.43492">
        <ele>107.799988</ele>
      </trkpt>
      <trkpt lat="45.13289" lon="0.43512">
        <ele>106.400024</ele>
      </trkpt>
      <trkpt lat="45.13249" lon="0.4356">
        <ele>102.200012</ele>
      </trkpt>
      <trkpt lat="45.13197" lon="0.43608">
        <ele>97.599976</ele>
      </trkpt>
      <trkpt lat="45.13168" lon="0.43617">
        <ele>94.200012</ele>
      </trkpt>
      <trkpt lat="45.13147" lon="0.43604">
        <ele>90.400024</ele>
      </trkpt>
      <trkpt lat="45.13138" lon="0.43658">
        <ele>87.200012</ele>
      </trkpt>
      <trkpt lat="45.13103" lon="0.43833">
        <ele>84.799988</ele>
      </trkpt>
      <trkpt lat="45.13123" lon="0.43979">
        <ele>85.599976</ele>
      </trkpt>
      <trkpt lat="45.13117" lon="0.44023">
        <ele>85.599976</ele>
      </trkpt>
      <trkpt lat="45.13085" lon="0.44115">
        <ele>77</ele>
      </trkpt>
      <trkpt lat="45.13083" lon="0.44164">
        <ele>72.200012</ele>
      </trkpt>
      <trkpt lat="45.1306" lon="0.44305">
        <ele>71.200012</ele>
      </trkpt>
      <trkpt lat="45.13061" lon="0.44342">
        <ele>70.599976</ele>
      </trkpt>
      <trkpt lat="45.13094" lon="0.44473">
        <ele>65.799988</ele>
      </trkpt>
      <trkpt lat="45.13132" lon="0.44523">
        <ele>63.400024</ele>
      </trkpt>
      <trkpt lat="45.13129" lon="0.44555">
        <ele>63.200012</ele>
      </trkpt>
      <trkpt lat="45.13099" lon="0.44667">
        <ele>58</ele>
      </trkpt>
      <trkpt lat="45.13069" lon="0.44809">
        <ele>36.200012</ele>
      </trkpt>
      <trkpt lat="45.13023" lon="0.44877">
        <ele>33.400024</ele>
      </trkpt>
      <trkpt lat="45.12983" lon="0.44921">
        <ele>30</ele>
      </trkpt>
      <trkpt lat="45.12971" lon="0.44993">
        <ele>29.400024</ele>
      </trkpt>
      <trkpt lat="45.12941" lon="0.45078">
        <ele>29.200012</ele>
      </trkpt>
      <trkpt lat="45.12925" lon="0.45085">
        <ele>30.200012</ele>
      </trkpt>
      <trkpt lat="45.12834" lon="0.45065">
        <ele>34.200012</ele>
      </trkpt>
      <trkpt lat="45.12828" lon="0.45073">
        <ele>35</ele>
      </trkpt>
      <trkpt lat="45.12812" lon="0.45109">
        <ele>40</ele>
      </trkpt>
      <trkpt lat="45.12794" lon="0.4512">
        <ele>42.200012</ele>
      </trkpt>
      <trkpt lat="45.12755" lon="0.45141">
        <ele>48.400024</ele>
      </trkpt>
      <trkpt lat="45.12696" lon="0.45208">
        <ele>60.400024</ele>
      </trkpt>
      <trkpt lat="45.12673" lon="0.45243">
        <ele>64.799988</ele>
      </trkpt>
      <trkpt lat="45.12661" lon="0.45257">
        <ele>66</ele>
      </trkpt>
      <trkpt lat="45.12632" lon="0.4527">
        <ele>69.200012</ele>
      </trkpt>
      <trkpt lat="45.12612" lon="0.4531">
        <ele>72.400024</ele>
      </trkpt>
      <trkpt lat="45.12589" lon="0.45414">
        <ele>78.799988</ele>
      </trkpt>
      <trkpt lat="45.12582" lon="0.45469">
        <ele>81</ele>
      </trkpt>
      <trkpt lat="45.12573" lon="0.45599">
        <ele>84.599976</ele>
      </trkpt>
      <trkpt lat="45.12579" lon="0.45658">
        <ele>86.200012</ele>
      </trkpt>
      <trkpt lat="45.12569" lon="0.4571">
        <ele>87.400024</ele>
      </trkpt>
      <trkpt lat="45.12542" lon="0.45893">
        <ele>95</ele>
      </trkpt>
      <trkpt lat="45.12538" lon="0.4593">
        <ele>96.799988</ele>
      </trkpt>
      <trkpt lat="45.12552" lon="0.45995">
        <ele>99.599976</ele>
      </trkpt>
      <trkpt lat="45.12555" lon="0.46058">
        <ele>100.799988</ele>
      </trkpt>
      <trkpt lat="45.12548" lon="0.46141">
        <ele>100.200012</ele>
      </trkpt>
      <trkpt lat="45.12531" lon="0.46195">
        <ele>99.799988</ele>
      </trkpt>
      <trkpt lat="45.12509" lon="0.46238">
        <ele>102</ele>
      </trkpt>
      <trkpt lat="45.12468" lon="0.46254">
        <ele>101.400024</ele>
      </trkpt>
      <trkpt lat="45.12387" lon="0.46322">
        <ele>98.799988</ele>
      </trkpt>
      <trkpt lat="45.12348" lon="0.46334">
        <ele>98</ele>
      </trkpt>
      <trkpt lat="45.12307" lon="0.4635">
        <ele>97.200012</ele>
      </trkpt>
      <trkpt lat="45.12266" lon="0.46357">
        <ele>97.400024</ele>
      </trkpt>
      <trkpt lat="45.12153" lon="0.46322">
        <ele>97.799988</ele>
      </trkpt>
      <trkpt lat="45.12072" lon="0.46327">
        <ele>97.599976</ele>
      </trkpt>
      <trkpt lat="45.12033" lon="0.46303">
        <ele>97.599976</ele>
      </trkpt>
      <trkpt lat="45.1197" lon="0.46268">
        <ele>97.400024</ele>
      </trkpt>
      <trkpt lat="45.11856" lon="0.46182">
        <ele>96.400024</ele>
      </trkpt>
      <trkpt lat="45.11717" lon="0.46002">
        <ele>92</ele>
      </trkpt>
      <trkpt lat="45.11651" lon="0.45938">
        <ele>92.200012</ele>
      </trkpt>
      <trkpt lat="45.11552" lon="0.45888">
        <ele>91</ele>
      </trkpt>
      <trkpt lat="45.11515" lon="0.45887">
        <ele>90.200012</ele>
      </trkpt>
      <trkpt lat="45.11459" lon="0.45928">
        <ele>89.200012</ele>
      </trkpt>
      <trkpt lat="45.11397" lon="0.46038">
        <ele>87</ele>
      </trkpt>
      <trkpt lat="45.11367" lon="0.46095">
        <ele>85.200012</ele>
      </trkpt>
      <trkpt lat="45.11446" lon="0.46129">
        <ele>77.400024</ele>
      </trkpt>
      <trkpt lat="45.11484" lon="0.46178">
        <ele>71.200012</ele>
      </trkpt>
      <trkpt lat="45.11433" lon="0.46239">
        <ele>64.200012</ele>
      </trkpt>
      <trkpt lat="45.11373" lon="0.46331">
        <ele>50.400024</ele>
      </trkpt>
      <trkpt lat="45.11352" lon="0.46437">
        <ele>39.599976</ele>
      </trkpt>
      <trkpt lat="45.11335" lon="0.46464">
        <ele>36</ele>
      </trkpt>
      <trkpt lat="45.11351" lon="0.46533">
        <ele>33.400024</ele>
      </trkpt>
      <trkpt lat="45.11404" lon="0.46638">
        <ele>33.599976</ele>
      </trkpt>
      <trkpt lat="45.11464" lon="0.46655">
        <ele>35.200012</ele>
      </trkpt>
      <trkpt lat="45.115" lon="0.46678">
        <ele>36.599976</ele>
      </trkpt>
      <trkpt lat="45.11552" lon="0.46753">
        <ele>39.400024</ele>
      </trkpt>
      <trkpt lat="45.11673" lon="0.46884">
        <ele>38</ele>
      </trkpt>
      <trkpt lat="45.11805" lon="0.47128">
        <ele>37.400024</ele>
      </trkpt>
      <trkpt lat="45.11793" lon="0.47155">
        <ele>37.599976</ele>
      </trkpt>
      <trkpt lat="45.11841" lon="0.47247">
        <ele>38.400024</ele>
      </trkpt>
      <trkpt lat="45.11857" lon="0.47269">
        <ele>38.599976</ele>
      </trkpt>
      <trkpt lat="45.11881" lon="0.47231">
        <ele>40.200012</ele>
      </trkpt>
      <trkpt lat="45.11899" lon="0.47219">
        <ele>41.400024</ele>
      </trkpt>
      <trkpt lat="45.11976" lon="0.47321">
        <ele>44</ele>
      </trkpt>
      <trkpt lat="45.11992" lon="0.47316">
        <ele>44.400024</ele>
      </trkpt>
      <trkpt lat="45.12057" lon="0.47262">
        <ele>49.599976</ele>
      </trkpt>
      <trkpt lat="45.12061" lon="0.47271">
        <ele>50.200012</ele>
      </trkpt>
      <trkpt lat="45.12101" lon="0.47411">
        <ele>44.400024</ele>
      </trkpt>
      <trkpt lat="45.12152" lon="0.47465">
        <ele>47.400024</ele>
      </trkpt>
      <trkpt lat="45.12303" lon="0.47623">
        <ele>54.599976</ele>
      </trkpt>
      <trkpt lat="45.12311" lon="0.47631">
        <ele>54.799988</ele>
      </trkpt>
      <trkpt lat="45.12436" lon="0.47723">
        <ele>60</ele>
      </trkpt>
      <trkpt lat="45.125" lon="0.47781">
        <ele>61.200012</ele>
      </trkpt>
      <trkpt lat="45.12569" lon="0.47838">
        <ele>62</ele>
      </trkpt>
      <trkpt lat="45.12613" lon="0.4783">
        <ele>63.400024</ele>
      </trkpt>
      <trkpt lat="45.12633" lon="0.47822">
        <ele>64.400024</ele>
      </trkpt>
      <trkpt lat="45.12646" lon="0.47805">
        <ele>65</ele>
      </trkpt>
      <trkpt lat="45.12666" lon="0.47757">
        <ele>65.200012</ele>
      </trkpt>
      <trkpt lat="45.12696" lon="0.47718">
        <ele>65</ele>
      </trkpt>
      <trkpt lat="45.12712" lon="0.47755">
        <ele>65.400024</ele>
      </trkpt>
      <trkpt lat="45.12709" lon="0.47789">
        <ele>64.599976</ele>
      </trkpt>
      <trkpt lat="45.12722" lon="0.47932">
        <ele>60.200012</ele>
      </trkpt>
      <trkpt lat="45.12715" lon="0.47972">
        <ele>59.599976</ele>
      </trkpt>
      <trkpt lat="45.12677" lon="0.48056">
        <ele>57.200012</ele>
      </trkpt>
      <trkpt lat="45.12639" lon="0.48199">
        <ele>55.400024</ele>
      </trkpt>
      <trkpt lat="45.12624" lon="0.48225">
        <ele>55.400024</ele>
      </trkpt>
      <trkpt lat="45.12556" lon="0.48295">
        <ele>55</ele>
      </trkpt>
      <trkpt lat="45.12459" lon="0.48499">
        <ele>50.599976</ele>
      </trkpt>
      <trkpt lat="45.12442" lon="0.48551">
        <ele>48.200012</ele>
      </trkpt>
      <trkpt lat="45.12431" lon="0.48593">
        <ele>47.200012</ele>
      </trkpt>
      <trkpt lat="45.12515" lon="0.48672">
        <ele>47.599976</ele>
      </trkpt>
      <trkpt lat="45.12586" lon="0.4878">
        <ele>44.599976</ele>
      </trkpt>
      <trkpt lat="45.1263" lon="0.48876">
        <ele>39.799988</ele>
      </trkpt>
      <trkpt lat="45.12738" lon="0.49077">
        <ele>47</ele>
      </trkpt>
      <trkpt lat="45.12804" lon="0.49191">
        <ele>48.400024</ele>
      </trkpt>
      <trkpt lat="45.12862" lon="0.49208">
        <ele>47.400024</ele>
      </trkpt>
      <trkpt lat="45.12972" lon="0.49213">
        <ele>48</ele>
      </trkpt>
      <trkpt lat="45.1306" lon="0.49214">
        <ele>52.599976</ele>
      </trkpt>
      <trkpt lat="45.13122" lon="0.49173">
        <ele>56.799988</ele>
      </trkpt>
      <trkpt lat="45.13177" lon="0.49133">
        <ele>61.400024</ele>
      </trkpt>
      <trkpt lat="45.13215" lon="0.49134">
        <ele>63.799988</ele>
      </trkpt>
      <trkpt lat="45.13315" lon="0.49124">
        <ele>69.200012</ele>
      </trkpt>
      <trkpt lat="45.13321" lon="0.49118">
        <ele>69.400024</ele>
      </trkpt>
      <trkpt lat="45.1332" lon="0.49098">
        <ele>70.799988</ele>
      </trkpt>
      <trkpt lat="45.133" lon="0.48949">
        <ele>82.599976</ele>
      </trkpt>
      <trkpt lat="45.13317" lon="0.48891">
        <ele>83.400024</ele>
      </trkpt>
      <trkpt lat="45.13383" lon="0.48829">
        <ele>89.200012</ele>
      </trkpt>
      <trkpt lat="45.13458" lon="0.48788">
        <ele>88.599976</ele>
      </trkpt>
      <trkpt lat="45.13522" lon="0.4871">
        <ele>87.400024</ele>
      </trkpt>
      <trkpt lat="45.13592" lon="0.4856">
        <ele>88.200012</ele>
      </trkpt>
      <trkpt lat="45.13602" lon="0.48512">
        <ele>90.400024</ele>
      </trkpt>
      <trkpt lat="45.136" lon="0.485">
        <ele>90.400024</ele>
      </trkpt>
      <trkpt lat="45.13563" lon="0.48442">
        <ele>86.400024</ele>
      </trkpt>
      <trkpt lat="45.13521" lon="0.48404">
        <ele>84.599976</ele>
      </trkpt>
      <trkpt lat="45.13415" lon="0.48376">
        <ele>89</ele>
      </trkpt>
      <trkpt lat="45.13401" lon="0.48363">
        <ele>89.200012</ele>
      </trkpt>
      <trkpt lat="45.13369" lon="0.483">
        <ele>90.599976</ele>
      </trkpt>
      <trkpt lat="45.13339" lon="0.48262">
        <ele>92.799988</ele>
      </trkpt>
      <trkpt lat="45.13322" lon="0.48207">
        <ele>96</ele>
      </trkpt>
      <trkpt lat="45.13312" lon="0.48178">
        <ele>100.200012</ele>
      </trkpt>
      <trkpt lat="45.13401" lon="0.48153">
        <ele>101.200012</ele>
      </trkpt>
      <trkpt lat="45.13482" lon="0.4808">
        <ele>102.799988</ele>
      </trkpt>
      <trkpt lat="45.13523" lon="0.48027">
        <ele>104.200012</ele>
      </trkpt>
      <trkpt lat="45.13629" lon="0.4776">
        <ele>111</ele>
      </trkpt>
      <trkpt lat="45.13666" lon="0.4769">
        <ele>113.400024</ele>
      </trkpt>
      <trkpt lat="45.13673" lon="0.47696">
        <ele>113.599976</ele>
      </trkpt>
      <trkpt lat="45.13679" lon="0.47793">
        <ele>111.799988</ele>
      </trkpt>
      <trkpt lat="45.13687" lon="0.47801">
        <ele>111.200012</ele>
      </trkpt>
      <trkpt lat="45.13709" lon="0.478">
        <ele>110.599976</ele>
      </trkpt>
      <trkpt lat="45.13851" lon="0.47775">
        <ele>99.599976</ele>
      </trkpt>
      <trkpt lat="45.13825" lon="0.47858">
        <ele>96.400024</ele>
      </trkpt>
      <trkpt lat="45.1383" lon="0.48125">
        <ele>93.599976</ele>
      </trkpt>
      <trkpt lat="45.13863" lon="0.48209">
        <ele>88.400024</ele>
      </trkpt>
      <trkpt lat="45.13878" lon="0.4829">
        <ele>85</ele>
      </trkpt>
      <trkpt lat="45.13899" lon="0.48378">
        <ele>81.200012</ele>
      </trkpt>
      <trkpt lat="45.13927" lon="0.48447">
        <ele>77.799988</ele>
      </trkpt>
      <trkpt lat="45.13956" lon="0.48484">
        <ele>73.400024</ele>
      </trkpt>
      <trkpt lat="45.14036" lon="0.48742">
        <ele>54.200012</ele>
      </trkpt>
      <trkpt lat="45.14042" lon="0.48794">
        <ele>55.599976</ele>
      </trkpt>
      <trkpt lat="45.14021" lon="0.48924">
        <ele>62.400024</ele>
      </trkpt>
      <trkpt lat="45.14015" lon="0.48988">
        <ele>68</ele>
      </trkpt>
      <trkpt lat="45.1397" lon="0.49117">
        <ele>84.799988</ele>
      </trkpt>
      <trkpt lat="45.13923" lon="0.49194">
        <ele>88.400024</ele>
      </trkpt>
      <trkpt lat="45.13892" lon="0.4922">
        <ele>87.799988</ele>
      </trkpt>
      <trkpt lat="45.1385" lon="0.4933">
        <ele>83.400024</ele>
      </trkpt>
      <trkpt lat="45.13817" lon="0.49399">
        <ele>74.799988</ele>
      </trkpt>
      <trkpt lat="45.13765" lon="0.49493">
        <ele>68.200012</ele>
      </trkpt>
      <trkpt lat="45.13699" lon="0.4965">
        <ele>60</ele>
      </trkpt>
      <trkpt lat="45.13657" lon="0.49714">
        <ele>55.799988</ele>
      </trkpt>
      <trkpt lat="45.13651" lon="0.49749">
        <ele>54.200012</ele>
      </trkpt>
      <trkpt lat="45.13665" lon="0.49777">
        <ele>53.599976</ele>
      </trkpt>
      <trkpt lat="45.13651" lon="0.49833">
        <ele>54.799988</ele>
      </trkpt>
      <trkpt lat="45.1365" lon="0.49964">
        <ele>63.200012</ele>
      </trkpt>
      <trkpt lat="45.13661" lon="0.50025">
        <ele>65</ele>
      </trkpt>
      <trkpt lat="45.13685" lon="0.50018">
        <ele>65.200012</ele>
      </trkpt>
      <trkpt lat="45.13797" lon="0.49959">
        <ele>72.599976</ele>
      </trkpt>
      <trkpt lat="45.1385" lon="0.49906">
        <ele>80.200012</ele>
      </trkpt>
      <trkpt lat="45.1393" lon="0.4984">
        <ele>90.200012</ele>
      </trkpt>
      <trkpt lat="45.13959" lon="0.49837">
        <ele>92.400024</ele>
      </trkpt>
      <trkpt lat="45.13976" lon="0.49846">
        <ele>94</ele>
      </trkpt>
      <trkpt lat="45.13985" lon="0.49881">
        <ele>94.200012</ele>
      </trkpt>
      <trkpt lat="45.14014" lon="0.49906">
        <ele>94.200012</ele>
      </trkpt>
      <trkpt lat="45.14061" lon="0.49905">
        <ele>96.400024</ele>
      </trkpt>
      <trkpt lat="45.14104" lon="0.49962">
        <ele>97.799988</ele>
      </trkpt>
      <trkpt lat="45.1412" lon="0.49981">
        <ele>97.400024</ele>
      </trkpt>
      <trkpt lat="45.14126" lon="0.49973">
        <ele>97.200012</ele>
      </trkpt>
      <trkpt lat="45.14191" lon="0.49843">
        <ele>101.200012</ele>
      </trkpt>
      <trkpt lat="45.14236" lon="0.49718">
        <ele>103.200012</ele>
      </trkpt>
      <trkpt lat="45.14289" lon="0.4963">
        <ele>101.599976</ele>
      </trkpt>
      <trkpt lat="45.14351" lon="0.49589">
        <ele>103</ele>
      </trkpt>
      <trkpt lat="45.14371" lon="0.49553">
        <ele>106.799988</ele>
      </trkpt>
      <trkpt lat="45.1442" lon="0.49529">
        <ele>108.200012</ele>
      </trkpt>
      <trkpt lat="45.14451" lon="0.49642">
        <ele>102.799988</ele>
      </trkpt>
      <trkpt lat="45.14477" lon="0.49714">
        <ele>98.599976</ele>
      </trkpt>
      <trkpt lat="45.14533" lon="0.49813">
        <ele>89</ele>
      </trkpt>
      <trkpt lat="45.14524" lon="0.49834">
        <ele>88</ele>
      </trkpt>
      <trkpt lat="45.14468" lon="0.49861">
        <ele>84.799988</ele>
      </trkpt>
      <trkpt lat="45.14381" lon="0.49859">
        <ele>75</ele>
      </trkpt>
      <trkpt lat="45.14324" lon="0.49899">
        <ele>73</ele>
      </trkpt>
      <trkpt lat="45.14321" lon="0.4991">
        <ele>73</ele>
      </trkpt>
      <trkpt lat="45.14335" lon="0.50033">
        <ele>72.200012</ele>
      </trkpt>
      <trkpt lat="45.1433" lon="0.50134">
        <ele>70</ele>
      </trkpt>
      <trkpt lat="45.14313" lon="0.50193">
        <ele>68</ele>
      </trkpt>
      <trkpt lat="45.14301" lon="0.50235">
        <ele>65.200012</ele>
      </trkpt>
      <trkpt lat="45.14334" lon="0.50259">
        <ele>60.799988</ele>
      </trkpt>
      <trkpt lat="45.14414" lon="0.50348">
        <ele>52.400024</ele>
      </trkpt>
      <trkpt lat="45.14415" lon="0.50361">
        <ele>52</ele>
      </trkpt>
      <trkpt lat="45.14397" lon="0.50392">
        <ele>50.799988</ele>
      </trkpt>
      <trkpt lat="45.14345" lon="0.5044">
        <ele>49.400024</ele>
      </trkpt>
      <trkpt lat="45.14247" lon="0.50507">
        <ele>48.200012</ele>
      </trkpt>
      <trkpt lat="45.14188" lon="0.50567">
        <ele>46.799988</ele>
      </trkpt>
      <trkpt lat="45.14129" lon="0.50662">
        <ele>45.799988</ele>
      </trkpt>
      <trkpt lat="45.14105" lon="0.50682">
        <ele>45.799988</ele>
      </trkpt>
      <trkpt lat="45.14097" lon="0.507">
        <ele>45.799988</ele>
      </trkpt>
      <trkpt lat="45.14111" lon="0.50746">
        <ele>43.799988</ele>
      </trkpt>
      <trkpt lat="45.14143" lon="0.50784">
        <ele>44.400024</ele>
      </trkpt>
      <trkpt lat="45.14162" lon="0.50788">
        <ele>45.599976</ele>
      </trkpt>
      <trkpt lat="45.14165" lon="0.50817">
        <ele>47.400024</ele>
      </trkpt>
      <trkpt lat="45.14157" lon="0.50848">
        <ele>48.400024</ele>
      </trkpt>
      <trkpt lat="45.14062" lon="0.51036">
        <ele>47.400024</ele>
      </trkpt>
      <trkpt lat="45.1405" lon="0.51076">
        <ele>47.799988</ele>
      </trkpt>
      <trkpt lat="45.14048" lon="0.51127">
        <ele>47.799988</ele>
      </trkpt>
      <trkpt lat="45.14031" lon="0.51197">
        <ele>47.200012</ele>
      </trkpt>
      <trkpt lat="45.14107" lon="0.5137">
        <ele>43.799988</ele>
      </trkpt>
      <trkpt lat="45.14113" lon="0.51375">
        <ele>43.400024</ele>
      </trkpt>
      <trkpt lat="45.14135" lon="0.51351">
        <ele>43.400024</ele>
      </trkpt>
      <trkpt lat="45.14164" lon="0.51385">
        <ele>43.599976</ele>
      </trkpt>
      <trkpt lat="45.1414" lon="0.51438">
        <ele>43.799988</ele>
      </trkpt>
      <trkpt lat="45.14144" lon="0.51459">
        <ele>43.400024</ele>
      </trkpt>
      <trkpt lat="45.14162" lon="0.51505">
        <ele>43</ele>
      </trkpt>
      <trkpt lat="45.14193" lon="0.5155">
        <ele>43.400024</ele>
      </trkpt>
      <trkpt lat="45.14216" lon="0.51549">
        <ele>43.200012</ele>
      </trkpt>
      <trkpt lat="45.14258" lon="0.51588">
        <ele>43.599976</ele>
      </trkpt>
      <trkpt lat="45.1427" lon="0.51614">
        <ele>43.799988</ele>
      </trkpt>
      <trkpt lat="45.14301" lon="0.51764">
        <ele>43.799988</ele>
      </trkpt>
      <trkpt lat="45.14325" lon="0.51836">
        <ele>44</ele>
      </trkpt>
      <trkpt lat="45.14345" lon="0.51935">
        <ele>44.200012</ele>
      </trkpt>
      <trkpt lat="45.1436" lon="0.51948">
        <ele>44</ele>
      </trkpt>
      <trkpt lat="45.14418" lon="0.51958">
        <ele>44.799988</ele>
      </trkpt>
      <trkpt lat="45.1445" lon="0.51938">
        <ele>45.599976</ele>
      </trkpt>
    </trkseg>
  </trk>
</gpx>